[[{"header":{"parameterUnit":"m.s-1","parameterCategory":1,"la1":30.6,"la2":29.2853,"lo1":-89.7004,"lo2":-87.6739,"dy":0.0162,"dx":0.0183,"nx":112,"ny":82,"refTime":"2024-08-30T18:00:00:Z","depth":0,"parameterNumber":2,"parameterNumberName":"U-component_of_WINDS"},"data":[0.0,0.0,0.0,0.0,0.0,0.0,0.0,0.0,0.0,0.0,0.0,0.0,0.0,0.0,0.0,0.0,0.0,0.0,0.0,0.0,0.0,0.0,0.0,0.0,0.0,0.0,0.0,0.0,0.0,0.0,0.0,0.0,0.0,0.0,0.0,0.0,0.0,0.0,0.0,0.0,0.0,0.0,0.0,0.0,0.0,0.0,0.0,0.0,0.0,0.0,0.0,0.0,0.0,0.0,0.0,0.0,0.0,0.0,0.0,0.0,0.0,0.0,0.0,0.0,0.0,0.0,0.0,0.0,0.0,0.0,0.0,0.0,0.0,0.0,0.0,0.0,0.0,0.0,0.0,0.0,0.0,0.0,0.0,0.0,0.0,0.0,0.0,0.0,0.0,0.0,-0.8519,-0.923,-0.903,-0.8413,-0.7415,-0.5511,-0.3839,-0.2593,0.0,0.0,0.0,0.0,0.0,0.0,0.0,0.0,0.0,0.0,0.0,0.0,0.0,0.0,0.0,0.0,0.0,0.0,0.0,0.0,0.0,0.0,0.0,0.0,0.0,0.0,0.0,0.0,0.0,0.0,0.0,0.0,0.0,0.0,0.0,0.0,0.0,0.0,0.0,0.0,0.0,0.0,0.0,0.0,0.0,0.0,0.0,0.0,0.0,0.0,0.0,0.0,0.0,0.0,0.0,0.0,0.0,0.0,0.0,0.0,0.0,0.0,0.0,0.0,0.0,0.0,0.0,0.0,0.0,0.0,0.0,0.0,0.0,0.0,0.0,0.0,0.0,0.0,0.0,0.0,0.0,0.0,0.0,0.0,0.0,0.0,0.0,0.0,0.0,0.0,0.0,0.0,0.0,0.0,0.0,0.0,0.0,0.0,0.0,0.0,0.0,0.0,0.0,0.0,-0.8613,-1.0023,-1.0289,-0.9801,-0.8413,-0.6824,-0.5209,-0.3607,0.0,0.0,0.0,0.0,0.0,0.0,0.0,0.0,0.0,0.0,0.0,0.0,0.0,0.0,0.0,0.0,0.0,0.0,0.0,0.0,0.0,0.0,0.0,0.0,0.0,0.0,0.0,0.0,0.0,0.0,0.0,0.0,0.0,0.0,0.0,0.0,0.0,0.0,0.0,0.0,0.0,0.0,0.0,0.0,0.0,0.0,0.0,0.0,0.0,0.0,0.0,0.0,0.0,0.0,0.0,0.0,0.0,0.0,0.0,0.0,0.0,0.0,0.0,0.0,0.0,0.0,0.0,0.0,0.0,0.0,0.0,0.0,0.0,0.0,0.0,0.0,0.0,0.0,0.0,0.0,0.0,0.0,0.0,0.0,0.0,0.0,0.0,0.0,0.0,0.0,0.0,0.0,0.0,0.0,0.0,0.0,0.0,0.0,0.0,0.0,0.0,0.0,0.0,-0.8455,-0.9108,-1.0432,-1.0643,-1.0249,-0.9082,-0.7517,-0.6007,-0.4572,-0.2738,0.0,0.0,0.0,0.0,0.0,0.0,0.0,0.0,0.0,0.0,0.0,0.0,0.0,0.0,0.0,0.0,0.0,0.0,0.0,0.0,0.0,0.0,0.0,0.0,0.0,0.0,0.0,0.0,0.0,0.0,0.0,0.0,0.0,0.0,0.0,0.0,0.0,0.0,0.0,0.0,0.0,0.0,0.0,0.0,0.0,0.0,0.0,0.0,0.0,0.0,0.0,0.0,0.0,0.0,0.0,0.0,0.0,0.0,0.0,0.0,0.0,0.0,0.0,0.0,0.0,0.0,0.0,0.0,0.0,0.0,0.0,0.0,0.0,0.0,0.0,0.0,0.0,0.0,0.0,0.0,0.0,0.0,0.0,0.0,0.0,0.0,0.0,0.0,0.0,0.0,0.0,0.0,0.0,0.0,0.0,0.0,0.0,0.0,0.0,0.0,0.0,0.0,-0.9275,-0.9693,-1.0595,-1.0692,-1.0414,-0.9746,-0.8085,-0.6614,-0.5497,-0.3444,0.0,0.0,0.0,0.0,0.0,0.0,0.0,0.0,0.0,0.0,0.0,0.0,0.0,0.0,0.0,0.0,0.0,0.0,0.0,0.0,0.0,0.0,0.0,0.0,0.0,0.0,0.0,0.0,0.0,0.0,0.0,0.0,0.0,0.0,0.0,0.0,0.0,0.0,0.0,0.0,0.0,0.0,0.0,0.0,0.0,0.0,0.0,0.0,0.0,0.0,0.0,0.0,0.0,0.0,0.0,0.0,0.0,0.0,0.0,0.0,0.0,0.0,0.0,0.0,0.0,0.0,0.0,0.0,0.0,0.0,0.0,0.0,0.0,0.0,0.0,0.0,0.0,0.0,0.0,0.0,0.0,0.0,0.0,0.0,0.0,0.0,0.0,0.0,0.0,0.0,0.0,0.0,0.0,0.0,0.0,0.0,0.0,0.0,0.0,0.0,0.0,0.0,-0.9526,-1.0294,-1.0651,-1.0692,-1.0692,-1.0637,-0.8605,-0.7073,-0.6364,-0.4191,0.0,0.0,0.0,0.0,0.0,0.0,0.0,0.0,0.0,0.0,0.0,0.0,0.0,0.0,0.0,0.0,0.0,0.0,0.0,0.0,0.0,0.0,0.0,0.0,0.0,0.0,0.0,0.0,0.0,0.0,0.0,0.0,0.0,0.0,0.0,0.0,0.0,0.0,0.0,0.0,0.0,0.0,0.0,0.0,0.0,0.0,0.0,0.0,0.0,0.0,0.0,0.0,0.0,0.0,0.0,0.0,0.0,0.0,0.0,0.0,0.0,0.0,0.0,0.0,0.0,0.0,0.0,0.0,0.0,0.0,0.0,0.0,0.0,0.0,0.0,0.0,0.0,0.0,0.0,0.0,0.0,0.0,0.0,0.0,0.0,0.0,0.0,0.0,0.0,0.0,0.0,0.0,0.0,0.0,0.0,0.0,0.0,0.0,0.0,0.0,0.0,0.0,-0.9253,-0.9975,-1.0619,-1.0692,-1.0692,-1.0692,-0.9286,-0.7921,-0.6824,0.0,0.0,0.0,0.0,0.0,0.0,0.0,0.0,0.0,0.0,0.0,0.0,0.0,0.0,0.0,0.0,0.0,0.0,0.0,0.0,0.0,0.0,0.0,0.0,0.0,0.0,0.0,0.0,0.0,0.0,0.0,0.0,0.0,0.0,0.0,0.0,0.0,0.0,0.0,0.0,0.0,0.0,0.0,0.0,0.0,0.0,0.0,0.0,0.0,0.0,0.0,0.0,0.0,0.0,0.0,0.0,0.0,0.0,0.0,0.0,0.0,0.0,0.0,0.0,0.0,0.0,0.0,0.0,0.0,0.0,0.0,0.0,0.0,0.0,0.0,0.0,0.0,0.0,0.0,0.0,0.0,0.0,0.0,0.0,0.0,0.0,0.0,0.0,0.0,0.0,0.0,0.0,0.0,0.0,0.0,0.0,0.0,0.0,0.0,0.0,0.0,0.0,-0.8477,-0.9277,-0.9953,-1.0619,-1.0692,-1.0692,-1.0692,-0.9733,-0.8559,-0.7248,0.0,0.0,0.0,0.0,0.0,0.0,0.0,0.0,0.0,0.0,0.0,0.0,0.0,0.0,0.0,0.0,0.0,0.0,0.0,0.0,0.0,0.0,0.0,0.0,0.0,0.0,0.0,0.0,0.0,0.0,0.0,0.0,0.0,0.0,0.0,0.0,0.0,0.0,0.0,0.0,0.0,0.0,0.0,0.0,0.0,0.0,0.0,0.0,0.0,0.0,0.0,0.0,0.0,0.0,0.0,0.0,0.0,0.0,0.0,0.0,0.0,0.0,0.0,0.0,0.0,0.0,0.0,0.0,0.0,0.0,0.0,0.0,0.0,0.0,0.0,0.0,0.0,0.0,0.0,0.0,0.0,0.0,0.0,0.0,0.0,0.0,0.0,0.0,0.0,0.0,0.0,0.0,0.0,0.0,0.0,0.0,0.0,0.0,0.0,0.0,0.0,0.0,-0.8543,-0.9661,-1.0501,-1.0672,-1.0692,-1.0692,-1.0692,-0.9926,-0.8866,0.0,0.0,0.0,0.0,0.0,0.0,0.0,0.0,0.0,0.0,0.0,0.0,0.0,0.0,0.0,0.0,0.0,0.0,0.0,0.0,0.0,0.0,0.0,0.0,0.0,0.0,0.0,0.0,0.0,0.0,0.0,0.0,0.0,0.0,0.0,0.0,0.0,0.0,0.0,0.0,0.0,0.0,0.0,0.0,0.0,0.0,0.0,0.0,0.0,0.0,0.0,0.0,0.0,0.0,0.0,0.0,0.0,0.0,0.0,0.0,0.0,0.0,0.0,0.0,0.0,0.0,0.0,0.0,0.0,0.0,0.0,0.0,0.0,0.0,0.0,0.0,0.0,0.0,0.0,0.0,0.0,0.0,0.0,0.0,0.0,0.0,0.0,0.0,0.0,0.0,0.0,0.0,0.0,0.0,0.0,0.0,0.0,0.0,0.0,0.0,0.0,0.0,0.0,-0.8543,-0.9661,-1.0501,-1.0672,-1.0692,-1.0692,-1.0692,-1.0273,-0.9311,-0.779,0.0,0.0,0.0,0.0,0.0,0.0,0.0,0.0,0.0,0.0,0.0,0.0,0.0,0.0,0.0,0.0,0.0,0.0,0.0,0.0,0.0,0.0,0.0,0.0,0.0,0.0,0.0,0.0,0.0,0.0,0.0,0.0,0.0,0.0,0.0,0.0,0.0,0.0,0.0,0.0,0.0,0.0,0.0,0.0,0.0,0.0,0.0,0.0,0.0,0.0,0.0,0.0,0.0,0.0,0.0,0.0,0.0,0.0,0.0,0.0,0.0,0.0,0.0,0.0,0.0,0.0,0.0,0.0,0.0,0.0,0.0,0.0,0.0,0.0,0.0,0.0,0.0,0.0,0.0,0.0,0.0,0.0,0.0,0.0,0.0,0.0,0.0,0.0,0.0,0.0,0.0,0.0,0.0,0.0,0.0,0.0,0.0,0.0,0.0,0.0,0.0,0.0,-0.8551,-0.9721,-1.0578,-1.068,-1.0692,-1.0692,-1.0692,-1.0367,-0.9634,-0.8274,0.0,0.0,0.0,0.0,0.0,0.0,0.0,0.0,0.0,0.0,0.0,0.0,0.0,0.0,0.0,0.0,0.0,0.0,0.0,0.0,0.0,0.0,0.0,0.0,0.0,0.0,0.0,0.0,0.0,0.0,0.0,0.0,0.0,0.0,0.0,0.0,0.0,0.0,0.0,0.0,0.0,0.0,0.0,0.0,0.0,0.0,0.0,0.0,0.0,0.0,0.0,0.0,0.0,0.0,0.0,0.0,0.0,0.0,0.0,0.0,0.0,0.0,0.0,0.0,0.0,0.0,0.0,0.0,0.0,0.0,0.0,0.0,0.0,0.0,0.0,0.0,0.0,0.0,0.0,0.0,0.0,0.0,0.0,0.0,0.0,0.0,0.0,0.0,0.0,0.0,0.0,0.0,0.0,0.0,0.0,0.0,0.0,0.0,0.0,0.0,0.0,0.0,-0.8584,-0.9819,-1.0692,-1.0692,-1.0692,-1.0692,-1.0692,-1.0383,-0.9811,-0.8926,0.0,0.0,0.0,0.0,0.0,0.0,0.0,0.0,0.0,0.0,0.0,0.0,0.0,0.0,0.0,0.0,0.0,0.0,0.0,0.0,0.0,0.0,0.0,0.0,0.0,0.0,0.0,0.0,0.0,0.0,0.0,0.0,0.0,0.0,0.0,0.0,0.0,0.0,0.0,0.0,0.0,0.0,0.0,0.0,0.0,0.0,0.0,0.0,0.0,0.0,0.0,0.0,0.0,0.0,0.0,0.0,0.0,0.0,0.0,0.0,-0.7486,-0.7025,0.0,0.0,0.0,0.0,0.0,0.0,0.0,0.0,0.0,0.0,0.0,0.0,0.0,0.0,0.0,0.0,0.0,0.0,0.0,0.0,0.0,0.0,0.0,0.0,0.0,0.0,0.0,0.0,0.0,0.0,0.0,0.0,0.0,0.0,0.0,0.0,0.0,0.0,0.0,0.0,-0.8702,-0.9892,-1.0692,-1.0692,-1.0692,-1.0692,-1.0692,-1.0497,-1.005,-0.9335,-0.8499,0.0,0.0,0.0,0.0,0.0,0.0,0.0,0.0,0.0,0.0,0.0,0.0,0.0,0.0,0.0,0.0,0.0,0.0,0.0,0.0,0.0,0.0,0.0,0.0,0.0,0.0,0.0,0.0,0.0,0.0,0.0,0.0,0.0,0.0,0.0,0.0,0.0,0.0,0.0,0.0,0.0,0.0,0.0,0.0,0.0,0.0,0.0,0.0,0.0,0.0,0.0,0.0,0.0,0.0,0.0,0.0,0.0,0.0,0.0,-0.871,-0.8564,0.0,0.0,0.0,0.0,0.0,0.0,0.0,0.0,0.0,0.0,0.0,0.0,0.0,0.0,0.0,0.0,0.0,0.0,0.0,0.0,0.0,0.0,0.0,0.0,0.0,0.0,0.0,0.0,0.0,0.0,0.0,0.0,0.0,0.0,0.0,0.0,0.0,0.0,0.0,0.0,-0.8885,-0.9969,-1.0692,-1.0692,-1.0692,-1.0692,-1.0692,-1.0534,-1.0237,-0.982,-0.8991,0.0,0.0,0.0,0.0,0.0,0.0,0.0,0.0,0.0,0.0,0.0,0.0,0.0,0.0,0.0,0.0,0.0,0.0,0.0,0.0,0.0,0.0,0.0,0.0,0.0,0.0,0.0,0.0,0.0,0.0,0.0,0.0,0.0,0.0,0.0,0.0,0.0,0.0,0.0,0.0,0.0,0.0,0.0,0.0,0.0,0.0,0.0,0.0,0.0,0.0,0.0,0.0,0.0,-1.2767,-1.2543,-1.2868,-1.1914,-1.1551,-1.1638,-1.075,-1.0793,-1.1323,-0.9568,0.0,0.0,0.0,0.0,0.0,0.0,0.0,0.0,0.0,0.0,0.0,0.0,0.0,0.0,0.0,0.0,0.0,0.0,0.0,0.0,0.0,0.0,-1.1687,-1.1736,-1.2147,-1.1901,-0.9521,0.0,0.0,0.0,0.0,0.0,0.0,0.0,0.0,0.0,0.0,0.0,-0.9261,-1.0329,-1.1021,-1.1021,-1.1021,-1.0966,-1.0857,-1.0725,-1.051,-1.0273,-0.9482,-0.8962,0.0,0.0,0.0,0.0,0.0,0.0,0.0,0.0,0.0,0.0,0.0,0.0,0.0,0.0,0.0,0.0,0.0,0.0,0.0,0.0,0.0,0.0,0.0,0.0,0.0,0.0,0.0,0.0,0.0,0.0,0.0,0.0,-0.9213,-0.9816,0.0,0.0,0.0,0.0,0.0,0.0,0.0,0.0,0.0,0.0,0.0,0.0,0.0,-1.3716,-1.419,-1.4845,-1.5133,-1.5137,-1.5562,-1.5725,-1.565,-1.5652,-1.5597,-1.5613,-1.5495,0.0,-1.0862,-1.1093,0.0,0.0,0.0,0.0,0.0,0.0,0.0,0.0,0.0,0.0,0.0,0.0,0.0,0.0,0.0,0.0,0.0,0.0,0.0,0.0,0.0,0.0,-1.4428,-1.4315,-1.4402,-1.4342,-1.3955,-1.1109,-0.8515,-0.7951,-0.772,0.0,0.0,0.0,0.0,0.0,0.0,0.0,-1.0268,-1.1419,-1.2164,-1.2164,-1.2164,-1.2005,-1.1514,-1.1437,-1.1125,-1.0408,-1.014,-0.9835,-0.9502,-0.8779,0.0,0.0,0.0,0.0,0.0,0.0,0.0,0.0,0.0,0.0,0.0,0.0,0.0,0.0,0.0,0.0,0.0,0.0,0.0,0.0,0.0,0.0,0.0,0.0,0.0,0.0,0.0,0.0,0.0,-0.9739,-1.0653,-1.1558,-1.1156,-1.0875,0.0,0.0,0.0,0.0,0.0,0.0,0.0,0.0,0.0,-1.5499,-1.6142,-1.6766,-1.7265,-1.7726,-1.8071,-1.8383,-1.7877,-1.7672,-1.7763,-1.7061,-1.6731,-1.6731,-1.6731,-1.5742,-1.405,-1.3902,-1.3932,-1.3963,0.0,0.0,0.0,0.0,-1.3329,-1.3631,-1.4989,-1.5315,-1.5089,-1.4905,0.0,0.0,0.0,0.0,0.0,0.0,0.0,-1.4169,-1.5469,-1.6096,-1.6405,-1.6529,-1.6512,-1.6299,-1.5467,-1.379,-1.221,0.0,-1.1101,-1.0612,-0.932,0.0,0.0,0.0,0.0,-1.1,-1.1453,-1.2135,-1.2611,-1.2611,-1.2507,-1.2273,-1.206,-1.206,-1.1914,-1.1558,-1.1416,-1.1072,-1.0591,-0.9865,-0.9161,0.0,0.0,0.0,0.0,0.0,0.0,0.0,0.0,0.0,0.0,0.0,0.0,0.0,0.0,0.0,0.0,0.0,0.0,0.0,0.0,0.0,0.0,0.0,0.0,0.0,0.0,0.0,0.0,-1.1403,-1.2151,-1.322,-1.3078,-1.2864,0.0,0.0,0.0,0.0,0.0,0.0,-1.5818,-1.6683,-1.7435,-1.8237,-1.8771,-1.9299,-1.9806,-2.0027,-2.0354,-2.0788,-1.9763,-1.936,-1.9489,-1.8524,-1.8075,-1.8075,-1.8075,-1.796,-1.7714,-1.6717,-1.6528,-1.6913,-1.6066,-1.5564,-1.5431,-1.5725,-1.5878,-1.6221,-1.7782,-1.8196,-1.7931,-1.7606,-1.7375,-1.6965,-1.539,0.0,0.0,0.0,0.0,-1.6281,-1.8005,-1.8279,-1.8169,-1.8517,-1.8611,-1.8315,-1.7327,-1.6956,-1.6274,0.0,-1.401,-1.3451,-1.2004,0.0,0.0,0.0,0.0,-1.3003,-1.3349,-1.3581,-1.3714,-1.3714,-1.3242,-1.2904,-1.2736,-1.2687,-1.255,-1.2387,-1.229,-1.2044,-1.1612,-1.0951,-1.0158,-0.9263,0.0,0.0,0.0,0.0,0.0,0.0,0.0,0.0,0.0,0.0,0.0,0.0,0.0,0.0,0.0,0.0,0.0,0.0,0.0,0.0,0.0,0.0,0.0,0.0,0.0,0.0,0.0,0.0,0.0,-1.4794,-1.511,0.0,0.0,0.0,0.0,-1.5558,-1.6473,-1.7368,-1.8263,-1.8885,-1.9486,-2.008,-2.0408,-2.0715,-2.1015,-2.1036,-2.1056,-2.1089,-2.1026,-2.0963,-2.0982,-2.0912,-2.0912,-2.0912,-2.0912,-2.0906,-2.0713,-1.8859,-1.7817,-1.7539,-1.8369,-1.8539,-1.8326,-1.8569,-1.8917,-1.9203,-1.9601,-1.9707,-1.9734,-1.996,-1.9461,-1.8741,-1.8668,-1.8255,0.0,0.0,-1.8758,-1.9234,-1.9626,-1.9874,-2.0113,-2.0503,-2.0563,-2.0617,-2.0844,-2.0884,-1.9752,0.0,-1.5123,-1.505,-1.489,0.0,-1.4877,-1.4865,-1.5525,-1.6123,-1.6338,-1.6244,-1.6136,-1.6136,-1.5094,-1.4182,-1.3684,-1.3382,-1.2985,-1.2441,-1.2372,-1.2368,-1.2368,-1.1949,-1.1323,-1.0431,-0.9504,0.0,0.0,0.0,0.0,0.0,0.0,0.0,0.0,0.0,0.0,0.0,0.0,0.0,0.0,0.0,0.0,0.0,0.0,0.0,0.0,0.0,0.0,0.0,0.0,0.0,0.0,0.0,0.0,-1.5999,-1.6687,0.0,-1.6533,-1.6767,-1.7114,-1.7515,-1.8183,-1.8991,-1.9866,-2.0113,-2.051,-2.1093,-2.1208,-2.1317,-2.1418,-2.1418,-2.1418,-2.1418,-2.1172,-2.1235,-2.1418,-2.1418,-2.1544,-2.1734,-2.1734,-2.1734,-2.172,-2.0994,-2.0345,-1.9847,-2.0184,-2.0267,-2.0187,-2.0294,-2.0394,-2.0501,-2.0608,-2.0521,-2.0347,-2.0261,-2.014,-1.9996,-1.9826,-1.9737,-1.9764,-1.9872,-2.0055,-2.0346,-2.0887,-2.1106,-2.1238,-2.1548,-2.145,-2.1366,-2.1488,-2.1334,-2.084,-1.9629,-1.8876,-1.8265,-1.7581,-1.7369,-1.7085,-1.6405,-1.6949,-1.7396,-1.749,-1.7422,-1.7371,-1.7371,-1.6912,-1.6409,-1.6016,-1.5861,-1.5552,-1.4895,-1.4409,-1.3868,-1.3237,-1.2526,-1.1796,-1.1161,-1.0128,-0.9094,0.0,0.0,0.0,0.0,0.0,0.0,0.0,0.0,0.0,0.0,0.0,0.0,0.0,0.0,0.0,0.0,0.0,0.0,0.0,0.0,0.0,0.0,0.0,0.0,0.0,-1.5144,-1.6346,-1.6934,-1.7883,-1.833,-1.7929,-1.8343,-1.8758,-1.9223,-1.9708,-2.0373,-2.1107,-2.1142,-2.1347,-2.1727,-2.1796,-2.1796,-2.1796,-2.19,-2.1955,-2.1955,-2.1804,-2.1915,-2.2107,-2.2107,-2.2235,-2.2426,-2.2426,-2.2363,-2.2265,-2.2265,-2.1956,-2.1425,-2.1425,-2.1425,-2.1425,-2.1425,-2.1425,-2.1418,-2.1299,-2.1108,-2.0788,-2.0711,-2.0828,-2.0951,-2.089,-2.1012,-2.1196,-2.1196,-2.1196,-2.1244,-2.1692,-2.181,-2.1921,-2.2187,-2.2144,-2.2051,-2.2181,-2.2011,-2.1929,-2.2112,-2.1415,-2.0533,-1.9906,-1.9646,-1.9305,-1.8523,-1.8783,-1.9095,-1.9095,-1.881,-1.8581,-1.8581,-1.8101,-1.765,-1.737,-1.7172,-1.6851,-1.6423,-1.571,-1.51,-1.4595,-1.3435,-1.2584,-1.2049,-1.0674,-0.9543,-0.8759,0.0,0.0,0.0,0.0,0.0,0.0,0.0,0.0,0.0,0.0,0.0,0.0,0.0,0.0,0.0,0.0,0.0,0.0,0.0,0.0,0.0,0.0,0.0,-1.5129,-1.6052,-1.7007,-1.7595,-1.8754,-1.9249,-1.868,-1.9345,-2.0073,-2.0718,-2.1012,-2.1493,-2.2111,-2.2125,-2.2132,-2.2139,-2.2139,-2.2139,-2.2139,-2.2504,-2.2651,-2.2658,-2.296,-2.3107,-2.3107,-2.3107,-2.3107,-2.3107,-2.3107,-2.2939,-2.2651,-2.2651,-2.2469,-2.2118,-2.2111,-2.2111,-2.2111,-2.2111,-2.2111,-2.2048,-2.1734,-2.1425,-2.1172,-2.1488,-2.1607,-2.167,-2.1985,-2.2111,-2.2111,-2.2111,-2.2111,-2.2111,-2.2111,-2.2111,-2.223,-2.2543,-2.2606,-2.2668,-2.305,-2.3106,-2.3106,-2.3106,-2.2364,-2.1723,-2.1715,-2.1708,-2.1591,-2.1269,-2.1218,0.0,-2.1211,-2.0392,-1.9815,-1.9815,-1.8792,-1.7988,-1.77,-1.7175,-1.6796,-1.6757,-1.6196,-1.5961,-1.622,-1.4758,-1.3673,-1.313,-1.1116,-0.9844,-0.9358,0.0,0.0,0.0,0.0,0.0,0.0,0.0,0.0,0.0,0.0,0.0,0.0,0.0,0.0,0.0,0.0,0.0,0.0,0.0,0.0,0.0,-1.6772,-1.727,-1.6948,-1.7883,-1.8964,-1.9723,-2.0166,-2.0517,-2.1051,-2.0917,-2.1031,-2.1666,-2.1562,-2.1866,-2.2808,-2.2574,-2.268,-2.3164,-2.3171,-2.3171,-2.3171,-2.3256,-2.3306,-2.3299,-2.3196,-2.3238,-2.3427,-2.3427,-2.363,-2.3826,-2.3826,-2.3768,-2.3688,-2.3688,-2.35,-2.3118,-2.2384,-2.2111,-2.2111,-2.2111,-2.2111,-2.2111,-2.1985,-2.1922,-2.1859,-2.1922,-2.2111,-2.2299,-2.2174,-2.2299,-2.248,-2.248,-2.248,-2.2543,-2.2738,-2.2863,-2.2856,-2.2918,-2.2981,-2.2981,-2.3113,-2.3106,-2.3106,-2.3106,-2.2905,-2.2617,-2.2365,-2.1993,-2.1664,-2.1576,-2.1364,0.0,-2.1211,-2.0974,-2.0802,-2.0802,-2.0551,-2.0104,-1.9505,-1.9356,-1.8816,-1.7908,-1.7189,-1.674,-1.6549,-1.5624,-1.4564,-1.3484,-1.2692,-1.1617,0.0,0.0,0.0,0.0,0.0,0.0,0.0,0.0,0.0,0.0,0.0,0.0,0.0,0.0,0.0,0.0,0.0,0.0,0.0,0.0,0.0,0.0,-2.0082,-2.0717,-2.0947,-2.0493,-2.0488,-2.1367,-2.1341,-2.1423,-2.1846,-2.167,-2.1734,-2.2299,-2.223,-2.2511,-2.3262,-2.3278,-2.3436,-2.3818,-2.3826,-2.3826,-2.3826,-2.3956,-2.4021,-2.4021,-2.396,-2.4025,-2.4224,-2.4224,-2.4356,-2.4496,-2.4496,-2.4415,-2.4284,-2.4284,-2.4093,-2.3771,0.0,0.0,0.0,0.0,-2.2425,-2.2299,-2.2299,-2.2237,-2.2111,-2.223,-2.2418,-2.2606,-2.255,-2.2668,-2.2801,-2.2801,-2.2801,-2.2856,-2.3043,-2.3106,-2.3106,-2.3106,-2.3106,-2.3106,-2.3106,-2.3106,-2.3106,-2.3106,-2.3106,0.0,-2.2857,-2.241,-2.2045,-2.192,-2.162,-2.1415,-2.1415,-2.1298,-2.1211,-2.1211,-2.1211,-2.0998,-2.0431,-2.0194,0.0,0.0,0.0,-1.7358,-1.6759,-1.6301,0.0,0.0,0.0,0.0,0.0,0.0,0.0,0.0,-1.0192,-1.0121,0.0,0.0,0.0,0.0,0.0,0.0,0.0,0.0,0.0,0.0,0.0,0.0,0.0,0.0,0.0,0.0,-2.3679,-2.482,-2.5949,-2.3652,-2.2103,-2.2737,-2.2668,-2.2348,-2.1796,-2.2258,-2.2656,-2.2726,-2.3147,-2.3534,-2.3954,-2.4106,0.0,0.0,0.0,-2.4319,-2.4449,-2.4606,-2.4753,-2.4886,-2.5047,-2.5127,-2.5127,-2.5127,-2.5127,-2.5127,-2.5127,-2.4958,-2.4627,-2.4627,-2.443,-2.4101,-2.3735,-2.342,-2.3157,-2.312,-2.2926,-2.2675,-2.2675,0.0,0.0,-2.255,-2.2675,-2.2738,-2.2988,-2.3106,-2.3106,-2.3106,-2.3106,-2.3106,-2.3106,-2.3106,-2.3106,-2.3106,-2.3106,-2.3106,-2.3106,-2.3106,-2.3106,-2.3106,-2.3106,-2.3106,-2.3106,-2.2835,-2.2535,-2.2271,-2.1957,-2.1737,-2.1701,-2.1445,-2.1247,-2.1211,0.0,0.0,-2.075,-2.0201,-1.9889,-1.9823,-1.895,-1.8087,-1.7169,-1.719,-1.6932,-1.6437,-1.6368,-1.6035,-1.5586,-1.5478,-1.4639,-1.306,-1.1746,-1.1298,0.0,0.0,0.0,0.0,0.0,0.0,0.0,0.0,0.0,0.0,0.0,0.0,0.0,0.0,0.0,-2.5244,-2.5698,-2.6444,-2.8768,-2.7252,-2.5489,-2.4339,-2.4808,-2.4594,-2.2973,-2.4556,-2.5086,-2.3501,-2.4547,-2.5494,-2.6098,-2.5088,-2.518,-2.6565,-2.5524,-2.5457,-2.6491,-2.5517,-2.5554,-2.6593,-2.5622,0.0,-2.5127,-2.5127,-2.5127,-2.5127,-2.5127,-2.509,-2.5031,-2.5031,-2.4833,-2.4415,-2.383,-2.3552,-2.3471,-2.3208,-2.305,-2.2981,-2.2981,-2.2988,-2.2918,-2.2988,-2.2981,-2.3043,-2.3113,-2.3106,0.0,-2.3106,-2.3106,-2.3106,-2.3106,-2.3106,-2.3106,-2.3106,-2.3106,-2.3106,-2.3106,-2.3106,-2.3106,-2.3106,-2.3106,-2.3106,-2.3106,-2.2835,-2.2601,-2.255,-2.2279,-2.1993,-2.173,-2.1642,-2.1503,-2.124,-2.1211,-2.1079,-2.075,-2.0603,-2.0318,-1.9852,-1.9639,-1.9402,-1.9232,-1.9418,-1.9202,-1.8557,-1.7896,-1.7222,-1.6533,-1.6074,-1.5519,-1.4789,-1.3356,-1.238,0.0,0.0,0.0,0.0,0.0,0.0,0.0,0.0,0.0,0.0,0.0,-2.1771,-2.3455,0.0,-2.5996,-2.8039,-2.8282,-2.8713,-3.0168,-2.9558,-2.8283,-2.652,-2.6443,-2.607,-2.4917,-2.6216,-2.6686,-2.5705,-2.6638,-2.7406,-2.7725,-2.7189,-2.73,-2.8139,-2.7551,-2.7485,-2.8131,-2.7485,-2.7485,-2.8131,-2.7485,-2.7161,-2.7161,-2.7161,-2.7161,-2.7161,-2.7161,-2.7161,-2.7094,-2.6368,-2.6,-2.5736,-2.4531,-2.3984,-2.3801,-2.3471,-2.3354,-2.3325,-2.3164,-2.3106,-2.3106,-2.3106,-2.3106,-2.3106,-2.3106,-2.3106,-2.3106,-2.3106,-2.3106,-2.3106,-2.3106,-2.3106,-2.3106,-2.3106,-2.3106,-2.3106,-2.3106,-2.3106,-2.3106,-2.3106,-2.3106,-2.3106,-2.3106,-2.2974,-2.2864,-2.2864,-2.2601,-2.2345,-2.2176,-2.1891,-2.1635,-2.1467,-2.1306,-2.1145,-2.0976,-2.0815,-2.0516,-2.0033,-1.9996,-2.0077,-2.0237,-2.0398,-2.041,-2.0388,-2.0014,-1.9537,-1.8935,-1.8677,-1.7834,-1.6382,-1.563,-1.4639,0.0,0.0,0.0,0.0,0.0,0.0,0.0,-1.9176,-2.062,-2.193,-2.3767,-2.5624,-2.7433,-2.8337,-2.9165,-3.0148,-3.0461,-3.0577,-3.083,-3.0889,-3.0343,-2.8769,-2.8104,-2.7426,-2.6668,-2.7765,-2.8289,-2.7734,-2.8691,-2.9317,-2.9317,-2.9215,-2.9313,-2.9574,-2.9313,-2.9313,-2.9639,-2.9313,-2.9313,-2.9574,-2.9313,-2.9182,-2.9182,-2.9182,-2.9182,-2.9182,-2.9182,-2.9182,-2.9117,-2.8007,-2.7477,-2.7379,-2.6001,-2.5338,-2.4985,-2.4023,-2.3647,-2.3559,-2.3296,-2.3164,-2.3106,-2.3106,-2.3106,-2.3106,-2.3106,-2.3106,-2.3106,-2.3106,-2.3106,-2.3168,-2.3417,-2.3479,-2.3479,-2.3479,-2.3479,-2.3417,-2.3168,-2.3106,-2.3106,-2.3106,-2.3106,-2.3106,-2.3106,-2.3106,-2.3106,-2.3106,-2.2886,-2.2696,-2.263,-2.2191,-2.1854,-2.1796,-2.1554,-2.1401,-2.1401,-2.1159,-2.0896,-2.0633,-2.0611,-2.0728,-2.0998,-2.1006,-2.1284,-2.1862,-2.1699,-2.1435,-2.1183,-2.099,-1.9908,-1.8016,-1.8016,-1.6861,-1.227,-1.265,-1.4052,-1.8612,-1.7708,-1.7173,0.0,-2.3529,-2.3432,-2.5352,-2.7132,-2.8559,-2.9238,-2.968,-3.0167,-3.0732,-3.085,-3.083,-3.0889,-3.0889,-3.083,-3.0587,-3.0528,-2.9558,-2.7194,-2.9818,-3.0648,-2.8263,-2.9912,-3.0992,-3.0992,-2.9874,-2.977,-3.1056,-2.9835,-2.977,-3.1056,-2.9826,-2.9835,-3.1056,-2.977,-2.9182,-2.9182,-2.9182,-2.9182,-2.9182,-2.9182,-2.9182,-2.9191,-2.9051,-2.8986,-2.892,-2.8747,-2.8639,-2.826,-2.521,-2.3845,-2.3588,-2.3552,-2.3354,-2.3106,-2.3106,-2.3106,-2.3106,-2.3106,-2.3106,-2.3106,-2.3106,-2.3106,-2.3355,-2.4579,-2.4887,-2.4887,-2.4887,-2.4887,-2.4517,-2.3355,-2.3106,-2.3106,-2.3106,-2.3106,-2.3106,-2.3106,-2.3106,-2.3106,-2.3106,-2.3076,-2.2952,-2.2659,-2.2564,-2.2418,-2.2162,-2.2096,-2.2074,-2.2074,-2.2045,-2.2008,-2.1972,-2.1964,-2.1979,-2.2015,-2.2023,-2.2176,-2.2513,-2.1605,-2.1279,-2.156,-2.0663,-2.0049,-1.982,-1.982,-1.8022,-1.515,-1.5827,-1.7083,-2.095,-2.1505,-2.2066,-2.5617,-2.6324,-2.6589,-2.7958,-2.8966,-2.9805,-3.0254,-3.0478,-3.0664,-3.0859,-3.0889,-3.0889,-3.0889,-3.0889,-3.0791,-3.0518,-3.0723,-3.047,-2.9372,-3.1041,-3.1722,-3.059,-3.1775,-3.2502,-3.2502,-3.1982,-3.1918,-3.2502,-3.1918,-3.1918,-3.2502,-3.1918,-3.1918,-3.2502,-3.1918,-3.1662,-3.1662,-3.1662,-3.1662,-3.1662,-3.1662,-3.1662,-3.1598,-3.0743,-3.041,-3.0346,-2.9509,-2.9182,-2.8992,-2.7433,-2.6769,-2.6575,-2.61,-2.5859,-2.5697,-2.5434,-2.537,-2.537,-2.537,-2.537,-2.5248,-2.4456,-2.4818,-2.5125,-2.4216,-2.5063,-2.6042,-2.5256,-2.5071,-2.5133,-2.5309,-2.4764,-2.4456,-2.5248,-2.537,-2.537,-2.537,-2.537,-2.5125,-2.4394,-2.3604,-2.3062,-2.2923,-2.274,-2.2513,-2.2213,-2.2184,-2.2184,-2.2184,-2.2184,-2.2184,-2.2184,-2.2184,-2.2257,-2.2432,-2.244,-2.2586,-2.2901,-2.2467,-2.2352,-2.248,-2.2034,-2.1531,-2.0969,-2.0969,-1.9877,-1.7902,-1.8838,-2.0027,-2.3219,-2.4515,-2.5581,-2.7649,-2.8215,-2.8639,-2.9719,-3.0176,-3.0488,-3.083,-3.0889,-3.0889,-3.0889,-3.0889,-3.0889,-3.0889,-3.0889,-3.0762,-3.043,-3.0684,-3.0889,-3.0889,-3.1553,-3.2041,-3.2219,-3.2842,-3.3301,-3.3418,-3.3418,-3.3418,-3.3418,-3.3418,-3.3418,-3.3418,-3.3418,-3.3418,-3.3418,-3.3418,-3.3418,-3.3418,-3.3418,-3.3418,-3.3418,-3.3418,-3.3418,-3.3292,-3.2301,-3.1899,-3.1781,-3.0743,-3.0354,-3.0328,-3.0116,-2.9555,-2.875,-2.8129,-2.7803,-2.7518,-2.7253,-2.7098,-2.7013,-2.7013,-2.7013,-2.6831,-2.5859,-2.6286,-2.665,-2.5117,-2.6086,-2.7306,-2.6399,-2.6156,-2.6277,-2.6892,-2.6286,-2.592,-2.6831,-2.7013,-2.7013,-2.7013,-2.7013,-2.671,-2.5745,-2.4517,-2.3542,-2.3168,-2.2901,-2.2674,-2.2462,-2.244,-2.244,-2.244,-2.244,-2.244,-2.244,-2.244,-2.2535,-2.2747,-2.2754,-2.2871,-2.3106,-2.3106,-2.3106,-2.3106,-2.3106,-2.2738,-2.1985,-2.1985,-2.1601,-2.0162,-2.1007,-2.2307,-2.5951,-2.5991,-2.5956,-2.9372,-2.925,-2.8853,-3.0509,-3.0859,-3.0869,-3.0889,-3.0889,-3.0889,-3.0889,-3.0889,-3.0889,-3.0889,-3.0889,-3.0889,-3.0869,-3.0889,-3.0889,-3.0889,-3.1289,-3.1709,-3.2139,-3.2568,-3.2998,-3.3398,-3.3418,-3.3418,-3.3418,-3.3418,-3.3418,-3.3418,-3.3418,-3.3418,-3.3418,-3.3418,-3.3418,-3.3418,-3.3418,-3.3418,-3.3418,-3.3418,-3.3418,-3.3418,-3.3355,-3.3355,-3.3355,-3.3292,-3.3292,-3.3292,-3.3282,-3.1402,-2.8828,-2.8738,-2.8249,-2.7631,-2.7614,-2.7304,-2.7013,-2.7013,-2.7013,-2.7013,-2.6952,-2.6952,-2.7254,-2.8435,-2.8801,-2.8861,-2.8801,-2.8801,-2.8444,-2.7254,-2.6952,-2.6952,-2.7013,-2.7013,-2.7013,-2.7013,-2.7013,-2.7021,-2.6952,-2.5859,-2.4579,-2.3293,-2.3098,-2.3091,-2.3084,-2.3084,-2.3084,-2.3084,-2.3084,-2.3084,-2.3084,-2.3084,-2.3084,-2.3091,-2.3091,-2.3098,-2.3106,-2.3106,-2.3106,-2.3106,-2.3106,-2.3113,-2.3043,-2.3043,-2.3043,-2.2035,-2.3455,-2.4914,-2.7593,-2.8358,-2.888,-3.0315,-3.0355,-3.0132,-3.0401,-3.0205,-2.9922,-2.9639,-2.958,-2.9678,-2.9971,-3.0244,-3.0537,-3.085,-3.0889,-3.0771,-3.0469,-3.0703,-3.0771,-3.0459,-3.1084,-3.1699,-3.2129,-3.2559,-3.2978,-3.3398,-3.3418,-3.3418,-3.3418,-3.3418,-3.3418,-3.3418,-3.3418,-3.3574,-3.3857,-3.4141,-3.4267,-3.4267,-3.4267,-3.4121,-3.3848,-3.3848,-3.3691,-3.3418,-3.3418,-3.3418,-3.3418,-3.3418,-3.3418,-3.3418,-3.3418,-3.2742,-3.1811,-3.154,-3.1268,-3.0939,-3.0396,-3.0124,-2.9964,-2.9702,-2.9618,-2.9372,-2.8513,-2.8879,-2.9313,-2.7975,-2.8938,-3.002,-2.9098,-2.892,-2.9048,-2.949,-2.8879,-2.8513,-2.9431,-2.9618,-2.9618,-2.9618,-2.9618,-2.9007,-2.7237,-2.5912,-2.4641,-2.3293,-2.3106,-2.3106,-2.3106,-2.3106,-2.3106,-2.3106,-2.3106,-2.3106,-2.3106,-2.3106,-2.3106,-2.3106,-2.3106,-2.3106,-2.3106,-2.3106,-2.3106,-2.3106,-2.3106,-2.3106,-2.3106,-2.3106,-2.3106,-2.4137,-2.5705,-2.706,-2.8888,-2.9912,-3.0518,-3.082,-3.0762,-3.0469,-2.9863,-2.9404,-2.8935,-2.835,-2.8242,-2.8476,-2.9219,-2.956,-3.001,-3.0781,-3.0889,-3.0781,-3.0478,-3.084,-3.0996,-3.0693,-3.1328,-3.1865,-3.2209,-3.2559,-3.2978,-3.3398,-3.3418,-3.3496,-3.3643,-3.3652,-3.373,-3.3877,-3.3877,-3.4014,-3.4297,-3.457,-3.4697,-3.4697,-3.4697,-3.4551,-3.4287,-3.4131,-3.3916,-3.3643,-3.3486,-3.3418,-3.3418,-3.3418,-3.3418,-3.3418,-3.3418,-3.3418,-3.3379,-3.3115,-3.292,-3.2705,-3.2148,-3.1768,-3.1465,-3.1201,-3.1006,-3.0704,-2.9844,-3.0216,-3.0528,-2.8829,-2.9618,-3.0704,-2.9844,-2.9599,-2.9844,-3.0704,-3.0206,-2.9844,-3.0704,-3.0889,-3.0889,-3.0889,-3.0889,-3.0157,-2.8009,-2.6996,-2.566,-2.341,-2.3106,-2.3106,-2.3106,-2.3106,-2.3106,-2.3106,-2.3106,-2.3106,-2.3106,-2.3106,-2.3106,-2.3106,-2.3106,-2.3106,-2.3106,-2.3106,-2.3106,-2.3106,-2.3106,-2.3106,-2.3106,-2.3106,-2.3106,-2.6444,-2.7734,-2.8682,-2.9922,-3.0566,-3.0889,-3.0859,-3.0478,-2.9883,-2.9004,-2.8447,-2.7861,-2.6982,-2.6894,-2.7353,-2.8594,-2.8877,-2.9404,-3.0703,-3.0908,-3.0928,-3.0928,-3.1299,-3.1553,-3.1553,-3.1943,-3.2207,-3.2207,-3.2568,-3.2978,-3.3398,-3.3418,-3.3623,-3.4062,-3.4072,-3.4267,-3.4697,-3.4717,-3.4736,-3.4736,-3.4756,-3.4766,-3.4766,-3.4766,-3.4756,-3.4707,-3.4287,-3.4092,-3.4033,-3.3603,-3.3418,-3.3418,-3.3418,-3.3418,-3.3418,-3.3418,-3.3418,-3.3418,-3.3418,-3.3164,-3.2822,-3.2803,-3.2236,-3.1543,-3.1523,-3.1221,-3.0889,-3.0889,-3.0889,-3.0889,-3.0889,-3.0889,-3.0889,-3.0889,-3.0889,-3.0889,-3.0889,-3.0889,-3.0889,-3.0889,-3.0889,-3.0889,-3.0889,-3.0889,-3.045,-2.9107,-2.892,-2.7529,-2.3775,-2.3293,-2.3293,-2.3293,-2.323,-2.323,-2.323,-2.3168,-2.3106,-2.3106,-2.3106,-2.3106,-2.3106,-2.3106,-2.3106,-2.3106,-2.3106,-2.3106,-2.3106,-2.3106,-2.3106,-2.3106,-2.3106,-2.3106,-2.798,-2.9062,-2.9873,-3.0547,-3.0801,-3.0801,-3.0449,-2.9785,-2.8916,-2.7744,-2.6641,-2.5585,-2.4355,-2.5195,-2.623,-2.6924,-2.8369,-2.9756,-3.0752,-3.1162,-3.1357,-3.1357,-3.1738,-3.2002,-3.2002,-3.2383,-3.2637,-3.2637,-3.2734,-3.2978,-3.3398,-3.3418,-3.3623,-3.4062,-3.4072,-3.4267,-3.4697,-3.5039,-3.5215,-3.5225,-3.5537,-3.5684,-3.5684,-3.5684,-3.5508,-3.5195,-3.4736,-3.4365,-3.4033,-3.3603,-3.3418,-3.3418,-3.3418,-3.3418,-3.3418,-3.3418,-3.3418,-3.3418,-3.3418,-3.335,-3.3213,-3.29,-3.2432,-3.1943,-3.1621,-3.1221,-3.0889,-3.0889,-3.0889,-3.0889,-3.0889,-3.0889,-3.0889,-3.0889,-3.0889,-3.0889,-3.0889,-3.0889,-3.0889,-3.0889,-3.0889,-3.0889,-3.0889,-3.0889,-3.045,-2.9107,-2.892,-2.8197,-2.6277,-2.5981,-2.5981,-2.5981,-2.5186,-2.4579,-2.4579,-2.3658,-2.3106,-2.3106,-2.3106,-2.3106,-2.3106,-2.3106,-2.3106,-2.3106,-2.3106,-2.3106,-2.3106,-2.3106,-2.3106,-2.3106,-2.3106,-2.3106,-2.918,-2.998,-3.0566,-3.083,-3.0732,-3.0371,-2.9551,-2.8701,-2.7559,-2.5645,-2.458,-2.3555,-2.2308,-2.3281,-2.4648,-2.5644,-2.7451,-2.917,-3.041,-3.1123,-3.1514,-3.1514,-3.207,-3.2441,-3.2441,-3.2822,-3.3066,-3.3066,-3.3066,-3.3252,-3.3682,-3.3711,-3.3994,-3.4629,-3.4648,-3.4853,-3.5273,-3.5537,-3.5664,-3.5674,-3.5908,-3.6016,-3.6016,-3.6016,-3.5889,-3.5635,-3.498,-3.457,-3.4297,-3.3682,-3.3418,-3.3418,-3.3418,-3.3418,-3.3418,-3.3418,-3.3418,-3.3418,-3.3418,-3.3418,-3.3379,-3.3144,-3.2783,-3.2363,-3.1934,-3.1504,-3.1133,-3.0947,-3.0889,-3.0889,-3.0889,-3.0889,-3.0889,-3.0889,-3.0889,-3.0889,-3.0889,-3.0889,-3.0889,-3.0889,-3.0889,-3.0889,-3.0889,-3.0889,-3.0645,-2.9903,-2.9785,-2.954,-2.8829,-2.7735,-2.7013,-2.7013,-2.6346,-2.592,-2.592,-2.4702,-2.3969,-2.3969,-2.3417,-2.3106,-2.3106,-2.3106,-2.3106,-2.3106,-2.3106,-2.3106,-2.3106,-2.3106,-2.3106,-2.3106,-2.3106,-2.3106,-3.0059,-3.0586,-3.0879,-3.081,-3.041,-2.9687,-2.8418,-2.7285,-2.581,-2.3344,-2.2461,-2.1699,-2.0498,-2.1484,-2.3037,-2.4639,-2.6554,-2.8374,-2.9971,-3.1006,-3.1601,-3.1601,-3.2353,-3.2881,-3.2881,-3.3203,-3.3447,-3.3506,-3.3506,-3.3672,-3.4053,-3.4121,-3.4531,-3.5361,-3.5449,-3.5654,-3.6016,-3.6016,-3.6016,-3.6016,-3.6016,-3.6016,-3.6016,-3.6016,-3.6016,-3.5976,-3.5146,-3.4756,-3.4639,-3.3838,-3.3476,-3.3418,-3.3418,-3.3418,-3.3418,-3.3418,-3.3418,-3.3418,-3.3418,-3.3418,-3.3418,-3.3418,-3.3135,-3.2725,-3.2363,-3.1904,-3.1445,-3.1074,-3.0937,-3.0889,-3.0889,-3.0889,-3.0889,-3.0889,-3.0889,-3.0889,-3.0889,-3.0889,-3.0889,-3.0889,-3.0889,-3.0889,-3.0889,-3.0889,-3.0889,-3.0889,-3.0889,-3.0889,-3.0889,-2.8948,-2.7504,-2.7504,-2.7375,-2.7254,-2.7254,-2.6103,-2.5256,-2.5133,-2.4031,-2.3293,-2.3113,-2.3106,-2.3106,-2.3106,-2.3106,-2.3106,-2.3106,-2.3106,-2.3106,-2.3106,-2.3157,-2.3171,-3.0537,-3.083,-3.0801,-3.041,-2.9726,-2.8809,-2.7529,-2.5469,-2.3398,-2.1834,-2.0644,-1.9561,-1.8623,-2.0674,-2.2842,-2.3848,-2.6357,-2.8662,-3.001,-3.1269,-3.206,-3.206,-3.2803,-3.331,-3.331,-3.3379,-3.3574,-3.3935,-3.3965,-3.3994,-3.4072,-3.4404,-3.4834,-3.5371,-3.5732,-3.5947,-3.6016,-3.6016,-3.6016,-3.6016,-3.6016,-3.6016,-3.6016,-3.6016,-3.6016,-3.5986,-3.5488,-3.5049,-3.4658,-3.417,-3.375,-3.3418,-3.3418,-3.3418,-3.3418,-3.3418,-3.3418,-3.3418,-3.3418,-3.3418,-3.3418,-3.3418,-3.3135,-3.2783,-3.2715,-3.2139,-3.1504,-3.1435,-3.1162,-3.0889,-3.0889,-3.0889,-3.0889,-3.0889,-3.0889,-3.0889,-3.0889,-3.0889,-3.0889,-3.0889,-3.0889,-3.0889,-3.0889,-3.0889,-3.0889,-3.0889,-3.0889,-3.0889,-3.0889,-3.0528,-3.0225,-3.0225,-2.9235,-2.8564,-2.8564,-2.7426,-2.6225,-2.5194,-2.4887,-2.4278,-2.3168,-2.3106,-2.3106,-2.3106,-2.3106,-2.3106,-2.3106,-2.3106,-2.3106,-2.312,-2.3384,-2.3508,-3.0351,-3.0703,-3.0781,-3.0312,-2.9385,-2.8076,-2.6113,-2.4023,-2.1934,-1.9961,-1.8948,-1.8257,-1.7797,-1.9674,-2.1614,-2.267,-2.4941,-2.7226,-2.8965,-3.0322,-3.1396,-3.215,-3.291,-3.3418,-3.3418,-3.3633,-3.3848,-3.4053,-3.4502,-3.4766,-3.4766,-3.5156,-3.5488,-3.5713,-3.5918,-3.6016,-3.6016,-3.6016,-3.6016,-3.6016,-3.6016,-3.6016,-3.6016,-3.6016,-3.6016,-3.5996,-3.5576,-3.5127,-3.4668,-3.4248,-3.3818,-3.3418,-3.3418,-3.3418,-3.3418,-3.3418,-3.3418,-3.3418,-3.3418,-3.3418,-3.3418,-3.3418,-3.3281,-3.3076,-3.2861,-3.2353,-3.1807,-3.1582,-3.1211,-3.0889,-3.0889,-3.0889,-3.0889,-3.0889,-3.0889,-3.0889,-3.0889,-3.0889,-3.0889,-3.0889,-3.0889,-3.0889,-3.0889,-3.0889,-3.0889,-3.0889,-3.0889,-3.0889,-3.0889,-3.0889,-3.0889,-3.0889,-3.0333,-2.9962,-2.9962,-2.8751,-2.7727,-2.7116,-2.6459,-2.5798,-2.5186,-2.4517,-2.4154,-2.4154,-2.3479,-2.3106,-2.3106,-2.3106,-2.3106,-2.312,-2.3442,-2.3596,-3.0182,-3.071,-3.0926,-3.0319,-2.9143,-2.7518,-2.491,-2.284,-2.0791,-1.8419,-1.7727,-1.7486,-1.7292,-1.8949,-2.0667,-2.1722,-2.3649,-2.5799,-2.8012,-2.9394,-3.0693,-3.2012,-3.291,-3.3418,-3.3418,-3.3818,-3.4111,-3.4199,-3.5029,-3.5527,-3.5527,-3.584,-3.6016,-3.6016,-3.6016,-3.6016,-3.6016,-3.6016,-3.6016,-3.6016,-3.6016,-3.6016,-3.6016,-3.6016,-3.6016,-3.5996,-3.5576,-3.5127,-3.4668,-3.4248,-3.3818,-3.3418,-3.3418,-3.3418,-3.3418,-3.3418,-3.3418,-3.3418,-3.3418,-3.3418,-3.3418,-3.3418,-3.3418,-3.3359,-3.3027,-3.2637,-3.2207,-3.1777,-3.1348,-3.1006,-3.0918,-3.0889,-3.0889,-3.0889,-3.0889,-3.0889,-3.0889,-3.0889,-3.0889,-3.0889,-3.0889,-3.0889,-3.0889,-3.0889,-3.0889,-3.0889,-3.0889,-3.0889,-3.0889,-3.0889,-3.0889,-3.0889,-3.0889,-3.0889,-3.0889,-2.9903,-2.9226,-2.892,-2.7966,-2.7254,-2.7013,-2.5806,-2.5071,-2.5071,-2.3783,-2.3106,-2.3106,-2.3179,-2.3215,-2.3223,-2.3618,-2.3801,-3.0452,-3.1169,-3.1414,-3.0294,-2.8903,-2.7202,-2.4697,-2.2038,-1.9609,-1.7972,-1.7512,-1.7273,-1.6835,-1.8965,-2.0984,-2.1777,-2.3561,-2.5651,-2.7976,-2.9414,-3.0713,-3.2012,-3.291,-3.3418,-3.3418,-3.3818,-3.4228,-3.4609,-3.5459,-3.5957,-3.5957,-3.5996,-3.6016,-3.6016,-3.6016,-3.6016,-3.6016,-3.6016,-3.6016,-3.6016,-3.6016,-3.6016,-3.6016,-3.6016,-3.6016,-3.5996,-3.5576,-3.5127,-3.4668,-3.4248,-3.3818,-3.3418,-3.3418,-3.3418,-3.3418,-3.3418,-3.3418,-3.3418,-3.3418,-3.3418,-3.3418,-3.3418,-3.3418,-3.3418,-3.3379,-3.3066,-3.2656,-3.2226,-3.1797,-3.1367,-3.0986,-3.0889,-3.0889,-3.0889,-3.0889,-3.0889,-3.0889,-3.0889,-3.0889,-3.0889,-3.0889,-3.0889,-3.0889,-3.0889,-3.0889,-3.0889,-3.0889,-3.0889,-3.0889,-3.0889,-3.0889,-3.0889,-3.0889,-3.0889,-3.0889,-3.0772,-3.0216,-2.8979,-2.8801,-2.8206,-2.7073,-2.5806,-2.5071,-2.5071,-2.3783,-2.3106,-2.3106,-2.3406,-2.3552,-2.3567,-2.4188,-2.4481,-2.9399,-3.0339,-3.0776,-3.0053,-2.9032,-2.7524,-2.5118,-2.2814,-2.0546,-1.8405,-1.7828,-1.7554,-1.7091,-1.8712,-2.0307,-2.0785,-2.2009,-2.3586,-2.5663,-2.6846,-2.8369,-3.0703,-3.1748,-3.2578,-3.335,-3.4043,-3.4746,-3.5439,-3.582,-3.6016,-3.6016,-3.6016,-3.6016,-3.6016,-3.6016,-3.6016,-3.6016,-3.6016,-3.6016,-3.6016,-3.6016,-3.6016,-3.6016,-3.6016,-3.5879,-3.5635,-3.5469,-3.499,-3.4316,-3.4141,-3.3818,-3.3418,-3.3418,-3.3418,-3.3418,-3.3418,-3.3418,-3.3418,-3.3418,-3.3418,-3.3418,-3.3418,-3.3418,-3.3418,-3.3418,-3.3125,-3.2764,-3.2588,-3.2236,-3.1865,-3.1699,-3.1465,-3.1201,-3.0957,-3.0889,-3.0889,-3.0889,-3.0889,-3.0889,-3.0889,-3.0889,-3.0889,-3.0889,-3.0889,-3.0889,-3.0889,-3.0889,-3.0889,-3.0889,-3.0889,-3.0889,-3.0889,-3.0889,-3.0889,-3.0889,-3.0889,-3.0645,-3.0147,-3.0089,-2.9853,-2.9381,-2.8095,-2.7004,-2.6286,-2.5146,-2.4139,-2.3398,-2.3727,-2.3888,-2.3903,-2.4357,-2.4569,-2.8439,-2.9553,-3.0174,-2.9631,-2.8866,-2.7575,-2.5284,-2.3286,-2.1285,-1.9024,-1.8385,-1.8114,-1.7827,-1.9019,-2.0185,-2.0455,-2.1316,-2.2561,-2.4356,-2.5352,-2.6875,-2.9502,-3.0586,-3.1582,-3.2744,-3.3857,-3.4883,-3.5771,-3.583,-3.5889,-3.6016,-3.5898,-3.5889,-3.6016,-3.6016,-3.6016,-3.6016,-3.6016,-3.5957,-3.583,-3.583,-3.5762,-3.5635,-3.5635,-3.5469,-3.5185,-3.5059,-3.4648,-3.4062,-3.3935,-3.3701,-3.3418,-3.3418,-3.3418,-3.3418,-3.3418,-3.3418,-3.3418,-3.3418,-3.3418,-3.3418,-3.3418,-3.3418,-3.3418,-3.3418,-3.3213,-3.2949,-3.2832,-3.249,-3.2229,-3.2229,-3.1846,-3.1445,-3.1143,-3.0986,-3.0889,-3.0889,-3.0889,-3.0889,-3.0889,-3.0889,-3.0889,-3.0889,-3.0889,-3.0889,-3.0889,-3.0889,-3.0889,-3.0889,-3.0889,-3.0889,-3.0889,-3.0889,-3.0889,-3.0889,-3.0889,-3.0889,-3.0889,-3.0889,-3.0889,-3.0889,-2.9599,-2.8379,-2.7167,-2.6075,-2.495,-2.3742,-2.4064,-2.4225,-2.4232,-2.4562,-2.4782,-2.7771,-2.9116,-2.9849,-2.9095,-2.8313,-2.7144,-2.4902,-2.3077,-2.1327,-1.9727,-1.917,-1.9002,-1.908,-2.0105,-2.1013,-2.1182,-2.2041,-2.3271,-2.4861,-2.582,-2.7012,-2.873,-2.9687,-3.0557,-3.1445,-3.3076,-3.4443,-3.5332,-3.54,-3.5586,-3.5996,-3.5625,-3.5596,-3.6006,-3.6016,-3.6016,-3.6016,-3.6016,-3.581,-3.54,-3.54,-3.5156,-3.4707,-3.4707,-3.4707,-3.4687,-3.4267,-3.4082,-3.4033,-3.3603,-3.3428,-3.3418,-3.3418,-3.3418,-3.3418,-3.3418,-3.3418,-3.3418,-3.3418,-3.3418,-3.3418,-3.3418,-3.3418,-3.3418,-3.3418,-3.3418,-3.333,-3.291,-3.249,-3.2229,-3.2229,-3.1846,-3.1514,-3.1514,-3.1191,-3.0889,-3.0889,-3.0889,-3.0889,-3.0889,-3.0889,-3.0889,-3.0889,-3.0889,-3.0889,-3.0889,-3.0889,-3.0889,-3.0889,-3.0889,-3.0889,-3.0889,-3.0889,-3.0889,-3.0889,-3.0889,-3.0889,-3.0889,-3.0889,-3.0889,-3.0889,-2.9599,-2.8436,-2.7535,-2.6189,-2.5066,-2.4079,-2.4408,-2.4562,-2.4576,-2.4965,-2.5119,-2.4533,-2.5485,-2.6127,-2.5648,-2.5628,-2.5329,-2.3897,-2.3107,-2.2116,-2.0077,-1.9618,-1.9529,-1.9442,-2.0291,-2.1596,-2.3363,-2.3366,-2.4021,-2.6646,-2.6662,-2.7266,-2.9651,-3.1375,-3.2627,-3.3203,-3.375,-3.4307,-3.4883,-3.4922,-3.498,-3.5107,-3.499,-3.5127,-3.5576,-3.5283,-3.5117,-3.5117,-3.5117,-3.5049,-3.4922,-3.4922,-3.4844,-3.4697,-3.4697,-3.4541,-3.4267,-3.4131,-3.3906,-3.3613,-3.3476,-3.3418,-3.3418,-3.3418,-3.3418,-3.3418,-3.3418,-3.3418,-3.3418,-3.3418,-3.3418,-3.3418,-3.3418,-3.3418,-3.3418,-3.3418,-3.3418,-3.3389,-3.3262,-3.3125,-3.2891,-3.2314,-3.207,-3.1885,-3.1592,-3.1416,-3.1406,-3.1699,-3.1768,-3.1768,-3.1768,-3.1523,-3.1318,-3.1318,-3.1074,-3.0889,-3.0889,-3.0889,-3.0889,-3.0889,-3.0889,-3.0889,-3.0889,-3.0889,-3.0889,-3.0889,-3.0889,-3.0889,-3.0889,-3.0889,-3.0889,-3.0889,-3.073,-3.0137,-2.897,-2.8057,-2.7042,-2.5892,-2.5263,-2.4973,-2.4973,-2.5075,-2.5127,-2.23,-2.3106,-2.3523,-2.3794,-2.3877,-2.3765,-2.3099,-2.2719,-2.2043,-2.0477,-1.9963,-1.9901,-2.026,-2.0705,-2.1705,-2.3886,-2.359,-2.3949,-2.6541,-2.6458,-2.7138,-2.9766,-3.1652,-3.2871,-3.331,-3.3643,-3.4004,-3.4434,-3.4463,-3.4531,-3.4687,-3.4551,-3.459,-3.4883,-3.4766,-3.4697,-3.4697,-3.4697,-3.4619,-3.4463,-3.4463,-3.4375,-3.4219,-3.4219,-3.4072,-3.3828,-3.3828,-3.3672,0.0,-3.3418,-3.3418,-3.3418,-3.3418,-3.3418,-3.3418,-3.3418,-3.3418,-3.3418,-3.3418,-3.3418,-3.3418,-3.3418,-3.3418,-3.3418,-3.3418,-3.3418,-3.3418,-3.3418,-3.3418,-3.3301,-3.2773,-3.2412,-3.216,-3.1826,-3.1641,-3.1592,-3.1865,-3.2051,-3.2229,-3.2229,-3.1953,-3.1768,-3.1768,-3.1543,-3.1318,-3.1152,-3.1133,-3.1064,-3.0918,-3.0889,-3.0957,-3.1113,-3.0986,-3.0957,-3.1113,-3.0986,-3.0889,-3.0889,-3.1035,-3.1133,-3.1133,-3.1533,-3.1204,-3.0036,-2.9636,-2.8549,-2.6835,-2.5681,-2.5127,-2.5127,-2.5127,-2.5127,0.0,-2.1579,-2.1803,-2.2945,-2.2718,-2.2268,-2.2312,-2.1853,0.0,-2.0742,-2.0201,-2.0175,-2.138,-2.1315,-2.1677,-2.3454,-2.3383,-2.3688,-2.5472,-2.595,-2.7074,-2.962,-3.0937,-3.1807,-3.2399,-3.3021,-3.3584,-3.3994,-3.4023,-3.4199,-3.459,-3.4238,-3.4023,-3.4023,-3.4404,-3.4609,-3.4609,-3.4609,-3.4414,-3.4023,-3.4023,-3.3809,-3.3418,-3.3418,-3.3418,-3.3418,-3.3418,-3.3418,-3.3418,-3.3418,-3.3418,-3.3418,-3.3418,-3.3418,-3.3418,-3.3418,-3.3418,-3.3418,-3.3418,-3.3418,-3.3418,-3.3418,-3.3418,-3.3418,-3.3418,-3.3418,-3.3418,-3.3418,-3.3418,-3.3418,-3.3389,-3.2773,-3.2238,-3.2268,-3.1875,-3.1582,-3.1641,-3.1973,-3.2256,-3.2256,-3.2226,-3.2217,-3.2217,-3.2248,-3.2031,-3.1621,-3.1533,-3.1377,-3.0986,-3.0908,-3.1035,-3.1435,-3.1152,-3.1094,-3.1484,-3.1133,-3.0898,-3.0928,-3.1299,-3.1533,-3.1562,-3.1982,-3.1821,-3.0843,-3.0754,-2.9532,-2.7086,-2.5846,-2.5187,-2.5127,-2.5127,-2.5127,-1.7878,0.0,-1.8855,-1.9279,-1.9597,-1.9945,0.0,-2.068,-2.0717,-2.0125,-1.9899,-2.0401,-2.2355,-2.2234,-2.3245,-2.7568,-2.7376,-2.7466,-2.9748,-3.0205,-3.0988,-3.2844,-3.2983,-3.3371,-3.4513,-3.3918,-3.3467,-3.3574,-3.3574,-3.3613,-3.3721,-3.3633,-3.3574,-3.3574,-3.3672,-3.3721,-3.3721,-3.3721,-3.3672,-3.3574,-3.3574,-3.3525,-3.3418,-3.3418,-3.3418,-3.3418,-3.3418,-3.3418,-3.3418,-3.3418,-3.3418,-3.3418,-3.3418,-3.3418,-3.3418,-3.3418,-3.3418,-3.3418,-3.3418,-3.3418,-3.3418,-3.3418,-3.3418,-3.3418,-3.3418,-3.3418,-3.3418,-3.3418,-3.3418,-3.335,-3.3027,-3.2559,-3.2307,-3.2578,-3.2324,-3.2187,-3.2832,-3.3057,-3.3125,-3.3125,-3.2871,-3.2646,-3.2646,-3.2383,-3.2129,-3.2031,-3.1728,-3.1484,-3.1377,-3.1094,-3.0928,-3.1025,-3.124,-3.1406,-3.1514,-3.1133,-3.1025,-3.1348,-3.1465,-3.167,-3.2002,-3.2422,-3.2562,-3.2339,-3.1546,-2.9795,-2.7086,-2.6835,-2.6182,-2.5127,-2.5127,-2.5127,-1.6338,-1.7648,-1.8864,-1.9497,-1.9919,-2.0292,-2.0817,-2.0589,-2.0175,-1.9861,-2.0012,-2.0727,-2.2406,-2.2787,-2.4115,-2.7998,-2.8143,-2.8617,-3.124,-3.2572,-3.3735,-3.4779,-3.4584,-3.458,-3.5314,-3.4215,-3.3418,-3.3418,-3.3418,-3.3418,-3.3418,-3.3418,-3.3418,-3.3418,-3.3418,-3.3418,-3.3418,-3.3418,-3.3418,-3.3418,-3.3418,-3.3418,-3.3418,-3.3418,-3.3418,-3.3418,-3.3418,-3.3418,-3.3418,-3.3418,-3.3418,-3.3418,-3.3418,-3.3418,-3.3418,-3.3418,-3.3418,-3.3418,-3.3418,-3.3418,-3.3418,-3.3418,-3.3418,-3.3418,-3.3418,-3.3418,-3.3418,-3.3418,-3.3418,-3.3369,-3.3144,-3.2773,-3.2519,-3.2744,-3.2627,-3.2578,-3.3037,-3.3281,-3.3418,-3.3418,-3.3242,-3.3086,-3.3086,-3.2891,-3.2676,-3.249,-3.209,-3.1738,-3.1543,-3.1152,-3.0967,-3.1162,-3.1211,-3.1387,-3.1787,-3.1426,-3.1357,-3.1787,-3.1992,-3.2207,-3.2441,-3.2861,-3.3086,-3.3086,-3.1933,-3.0207,-2.8065,-2.7419,-2.6435,-2.5127,-2.5127,-2.5207,-1.6185,-1.8313,-2.0445,-2.0996,-2.1366,-2.1717,-2.2081,-2.1079,-2.0075,-2.0162,-2.0603,-2.1358,-2.2698,-2.3667,-2.5095,-2.7645,-2.827,-2.9376,-3.1906,-3.3945,-3.5457,-3.6123,-3.5714,-3.55,-3.5674,-3.4278,-3.3418,-3.3418,-3.3418,-3.3418,-3.3418,-3.3418,-3.3418,-3.3418,-3.3418,-3.3418,-3.3418,-3.3418,-3.3418,-3.3418,-3.3418,-3.3418,-3.3418,-3.3418,-3.3418,-3.3418,-3.3418,-3.3418,-3.3418,-3.3418,-3.3418,-3.3418,-3.3418,-3.3418,-3.3418,-3.3418,-3.3418,-3.3418,-3.3418,-3.3418,-3.3418,-3.3418,-3.3418,-3.3418,-3.3418,-3.3418,-3.3418,-3.3418,-3.3418,-3.3418,-3.3418,-3.3105,-3.2812,-3.2871,-3.2842,-3.2812,-3.2871,-3.3174,-3.3418,-3.3418,-3.3418,-3.3418,-3.3418,-3.3418,-3.3301,-3.2939,-3.2529,-3.2129,-3.1758,-3.1348,-3.1191,-3.1484,-3.126,-3.1377,-3.217,-3.1885,-3.1894,-3.2334,-3.2637,-3.2822,-3.2891,-3.3232,-3.3418,-3.3418,-3.2237,-3.0936,-2.9509,-2.8328,-2.6953,-2.539,-2.5434,-2.5476,-1.8561,-2.0849,-2.2076,-1.9935,-2.0784,-2.2068,-2.1719,-2.1405,-2.1355,-2.1832,-2.1995,-2.2836,-2.5393,-2.6339,-2.7759,-3.0947,-3.2256,-3.3345,-3.4662,-3.5013,-3.5799,-3.7326,-3.6253,-3.5797,-3.6874,-3.4819,-3.3418,-3.3418,-3.3418,-3.3418,-3.3418,-3.3418,-3.3418,-3.3418,-3.3418,-3.3418,-3.3418,-3.3418,-3.3418,-3.3418,-3.3418,-3.3418,-3.3418,-3.3418,-3.3418,-3.3418,-3.3418,-3.3418,-3.3418,-3.3418,-3.3418,-3.3418,-3.3418,-3.3418,-3.3418,-3.3418,-3.3418,-3.3418,-3.3418,-3.3418,-3.3418,-3.3418,-3.3418,-3.3418,-3.3418,-3.3418,-3.3418,-3.3418,-3.3418,-3.3418,-3.3418,-3.3105,-3.2891,-3.3242,-3.3057,-3.2891,-3.3252,-3.3379,-3.3418,-3.3418,-3.3418,-3.3418,-3.3418,-3.3418,-3.3398,-3.334,-3.2969,-3.2676,-3.2607,-3.2236,-3.1855,-3.1553,-3.1787,-3.2021,-3.2219,-3.2432,-3.2783,-3.3203,-3.2949,-3.2949,-3.331,-3.3389,-3.3418,-3.3418,-3.3155,-3.2365,-3.0992,-3.0725,-2.9296,-2.6828,-2.7058,-2.6626,-1.7601,-2.0087,-2.1945,-2.0677,-2.2698,-2.4933,-2.4682,-2.3929,-2.3364,-2.3584,-2.3891,-2.4669,-2.6587,-2.7858,-2.979,-3.3258,-3.4878,-3.5901,-3.6493,-3.689,-3.7414,-3.8236,-3.6922,-3.6496,-3.7747,-3.5159,-3.3723,-3.4465,-3.3786,-3.3418,-3.3418,-3.3418,-3.3418,-3.3418,-3.3418,-3.3418,-3.3418,-3.3418,-3.3418,-3.3418,-3.3418,-3.3418,-3.3418,-3.3418,-3.3418,-3.3418,-3.3418,-3.3418,-3.3418,-3.3418,-3.3418,-3.3418,-3.3418,-3.3418,-3.3418,-3.3418,-3.3418,-3.3418,-3.3418,-3.3418,-3.3418,-3.3418,-3.3418,-3.3418,-3.3418,-3.3418,-3.3418,-3.3418,-3.3418,-3.3418,-3.3418,-3.3281,-3.3184,-3.3379,-3.3271,-3.3184,-3.3379,-3.3418,-3.3418,-3.3418,-3.3418,-3.3418,-3.3418,-3.3232,-3.3164,-3.3389,-3.2871,-3.2539,-3.2764,-3.2432,-3.209,-3.1894,-3.2051,-3.2256,-3.249,-3.2685,-3.2969,-3.3389,-3.3242,-3.3223,-3.3418,-3.3418,-3.3418,-3.3418,-3.3418,-3.2702,-3.1313,-3.1313,-3.0387,-2.8635,-2.8801,-2.8285,-1.7025,-1.9346,-2.1606,-2.2133,-2.4506,-2.6841,-2.7356,-2.6302,-2.5398,-2.6038,-2.649,-2.708,-2.8059,-2.9829,-3.2106,-3.5105,-3.6702,-3.7543,-3.7468,-3.8256,-3.8707,-3.8532,-3.7486,-3.7186,-3.8125,-3.5614,-3.4317,-3.5149,-3.4242,-3.3625,-3.3418,-3.3418,-3.3418,-3.3418,-3.3418,-3.3418,-3.3418,-3.3418,-3.3418,-3.3418,-3.3418,-3.3418,-3.3418,-3.3418,-3.3418,-3.3418,-3.3418,-3.3418,-3.3418,-3.3418,-3.3418,-3.3418,-3.3418,-3.3418,-3.3418,-3.3418,-3.3418,-3.3418,-3.3418,-3.3418,-3.3418,-3.3418,-3.3418,-3.3418,-3.3418,-3.3418,-3.3418,-3.3418,-3.3418,-3.3418,-3.3418,-3.3418,-3.3418,-3.3418,-3.3418,-3.3418,-3.3418,-3.3418,-3.3418,-3.3418,-3.3418,-3.3418,-3.3418,-3.3154,-3.3057,-3.3369,-3.2871,-3.2578,-3.29,-3.2656,-3.2422,-3.2324,-3.2314,-3.2451,-3.2764,-3.2891,-3.3076,-3.3398,-3.3418,-3.3418,-3.3418,-3.3418,-3.3418,-3.3418,-3.3418,-3.2892,-3.1781,-3.1781,-3.122,-3.0214,-3.0397,-3.0055,-1.8983,-2.0514,-2.1983,-2.4067,-2.4763,-2.5536,-2.7582,-2.7168,-2.7115,-2.9666,-3.0231,-3.0432,-3.0997,-3.3307,-3.5428,-3.65,-3.7825,-3.8299,-3.7293,-3.8096,-3.8478,-3.7687,-3.7595,-3.7634,-3.7747,-3.6429,-3.528,-3.4714,-3.4573,-3.4207,-3.3461,-3.3418,-3.3418,-3.3418,-3.3418,-3.3418,-3.3418,-3.3418,-3.3418,-3.3418,-3.3418,-3.3418,-3.3418,-3.3418,-3.3418,-3.3418,-3.3418,-3.3418,-3.3418,-3.3418,-3.3418,-3.3418,-3.3418,-3.3418,-3.3418,-3.3418,-3.3418,-3.3418,-3.3418,-3.3418,-3.3418,-3.3418,-3.3418,-3.3418,-3.3418,-3.3418,-3.3418,-3.3418,-3.3418,-3.3418,-3.3418,-3.3418,-3.3418,-3.3418,-3.3418,-3.3418,-3.3418,-3.3418,-3.3418,-3.3418,-3.3418,-3.3418,-3.3418,-3.3398,-3.3389,-3.3418,-3.3369,-3.334,-3.3369,-3.335,-3.3184,-3.2793,-3.2754,-3.2764,-3.2793,-3.3154,-3.3389,-3.3418,-3.3418,-3.3418,-3.3418,-3.3418,-3.3418,-3.3418,-3.3418,-3.3355,-3.3228,-3.3228,-3.2521,-3.1249,-3.1941,-3.1586,-1.7516,-1.9585,-2.1857,-2.3358,-2.482,-2.6427,-2.8649,-2.9616,-3.0532,-3.229,-3.293,-3.3232,-3.3432,-3.5165,-3.6661,-3.6991,-3.8189,-3.8724,-3.7512,-3.8207,-3.8352,-3.7154,-3.7243,-3.7711,-3.8312,-3.6747,-3.5605,-3.5436,-3.4627,-3.37,-3.2689,-3.2891,-3.3037,-3.3037,-3.3281,-3.3418,-3.3418,-3.3418,-3.3418,-3.3418,-3.3418,-3.3418,-3.3418,-3.3418,-3.3418,-3.3418,-3.3418,-3.3418,-3.3418,-3.3418,-3.3418,-3.3418,-3.3418,-3.3418,-3.3418,-3.3418,-3.3418,-3.3418,-3.3418,-3.3418,-3.3418,-3.3418,-3.3418,-3.3418,-3.3418,-3.3418,-3.3418,-3.3418,-3.3418,-3.3418,-3.3418,-3.3418,-3.3418,-3.3418,-3.3418,-3.3418,-3.3418,-3.3418,-3.3418,-3.3418,-3.3418,-3.3418,-3.3418,-3.3203,-3.3115,-3.3379,-3.3203,-3.3125,-3.3389,-3.3418,-3.3359,-3.3203,-3.3184,-3.3184,-3.3184,-3.333,-3.3418,-3.3418,-3.3418,-3.3418,-3.3418,-3.3418,-3.3418,-3.3418,-3.3418,-3.3418,-3.3418,-3.3418,-3.3301,-3.3039,-3.3612,-3.3224,-1.729,-1.9459,-2.202,-2.3095,-2.5071,-2.7392,-2.9741,-3.1286,-3.2729,-3.4562,-3.4964,-3.5044,-3.5429,-3.6282,-3.7036,-3.7387,-3.8491,-3.8764,-3.7287,-3.8068,-3.8198,-3.658,-3.7239,-3.8005,-3.8605,-3.7379,-3.6284,-3.5706,-3.479,-3.3698,-3.228,-3.2441,-3.2598,-3.2598,-3.2871,-3.3027,-3.3027,-3.3027,-3.3027,-3.3027,-3.3027,-3.3164,-3.3418,-3.3418,-3.3418,-3.3418,-3.3418,-3.3418,-3.3418,-3.3418,-3.3418,-3.3418,-3.3418,-3.3418,-3.3418,-3.3418,-3.3418,-3.3418,-3.3418,-3.3418,-3.3418,-3.3418,-3.3418,-3.3418,-3.3418,-3.3418,-3.3418,-3.3418,-3.3418,-3.3418,-3.3418,-3.3418,-3.3418,-3.3418,-3.3418,-3.3418,-3.3418,-3.3418,-3.3418,-3.3418,-3.3418,-3.3418,-3.3418,-3.3184,-3.3086,-3.3379,-3.3174,-3.3096,-3.3389,-3.3418,-3.3418,-3.3418,-3.3418,-3.3418,-3.3418,-3.3418,-3.3418,-3.3418,-3.3418,-3.3418,-3.3418,-3.3418,-3.3418,-3.3418,-3.3418,-3.3418,-3.3418,-3.3418,-3.3574,-3.3877,-3.4307,-3.4191,-1.8995,-2.0613,-2.2598,-2.3728,-2.5686,-2.807,-3.0783,-3.1838,-3.3194,-3.6521,-3.6332,-3.5859,-3.6998,-3.6795,-3.6782,-3.7839,-3.8741,-3.8594,-3.6511,-3.7684,-3.808,-3.6025,-3.7601,-3.8684,-3.8409,-3.8409,-3.747,-3.5294,-3.5111,-3.4233,-3.2311,-3.2219,-3.2219,-3.2219,-3.2229,-3.2229,-3.2229,-3.2229,-3.2229,-3.2229,-3.2229,-3.2607,-3.3418,-3.3418,-3.3418,-3.3418,-3.3418,-3.3418,-3.3418,-3.3418,-3.3418,-3.3418,-3.3418,-3.3418,-3.3418,-3.3418,-3.3418,-3.3418,-3.3418,-3.3418,-3.3418,-3.3418,-3.3418,-3.3418,-3.3418,-3.3418,-3.3418,-3.3418,-3.3418,-3.3418,-3.3408,-3.3408,-3.3408,-3.3418,-3.3418,-3.3418,-3.3418,-3.3418,-3.3418,-3.3418,-3.3418,-3.3418,-3.3418,-3.3418,-3.3418,-3.3418,-3.3418,-3.3418,-3.3418,-3.3418,-3.3418,-3.3418,-3.3418,-3.3418,-3.3418,-3.3418,-3.3418,-3.3418,-3.3418,-3.3418,-3.3418,-3.3418,-3.3418,-3.3418,-3.3418,-3.3418,-3.3418,-3.3418,-3.3418,-3.3428,-3.3867,-3.4297,-1.8531,-2.0916,-2.3766,-2.4845,-2.767,-3.0696,-3.2704,-3.3884,-3.5345,-3.8341,-3.8379,-3.7864,-3.7776,-3.7965,-3.8103,-3.8015,-3.8906,-3.8816,-3.6511,-3.8056,-3.8514,-3.6079,-3.7802,-3.905,-3.8736,-3.8526,-3.7756,-3.6294,-3.5999,-3.5235,-3.3794,-3.3262,-3.2977,-3.2977,-3.2474,-3.2229,-3.2229,-3.2229,-3.2229,-3.2229,-3.2229,-3.2451,-3.2978,-3.2978,-3.3144,-3.3418,-3.3418,-3.3418,-3.3418,-3.3418,-3.3418,-3.3418,-3.3418,-3.3418,-3.3389,-3.3086,-3.2978,-3.2978,-3.2978,-3.2978,-3.3027,-3.333,-3.3418,-3.3418,-3.3418,-3.3418,-3.3359,-3.3066,-3.2978,-3.291,-3.2617,-3.2539,-3.2685,-3.3281,-3.3418,-3.3418,-3.3418,-3.3418,-3.3418,-3.3418,-3.3418,-3.3418,-3.3418,-3.3418,-3.3418,-3.3418,-3.3418,-3.3418,-3.3418,-3.3418,-3.3418,-3.3418,-3.3418,-3.3418,-3.3418,-3.3418,-3.3418,-3.3418,-3.3418,-3.3418,-3.3418,-3.3418,-3.3418,-3.3418,-3.3418,-3.3418,-3.3418,-3.3418,-3.3418,-3.3428,-3.3867,-3.4141,-2.0351,-2.2535,-2.5059,-2.6829,-2.9189,-3.175,-3.4311,-3.5742,-3.7061,-3.8969,-3.8919,-3.8555,-3.8655,-3.8592,-3.8555,-3.8655,-3.9245,-3.8868,-3.6511,-3.8214,-3.8764,-3.6274,-3.8015,-3.9322,-3.905,-3.8841,-3.8226,-3.69,-3.6197,-3.5542,-3.4825,-3.3314,-3.2731,-3.3241,-3.2205,-3.166,-3.166,-3.166,-3.166,-3.166,-3.166,-3.1875,-3.2295,-3.2471,-3.2685,-3.293,-3.3105,-3.3076,-3.2939,-3.3105,-3.3076,-3.292,-3.292,-3.292,-3.2891,-3.2637,-3.2549,-3.2549,-3.2549,-3.2549,-3.2588,-3.2842,-3.3037,-3.3144,-3.2969,-3.3037,-3.3086,-3.2666,-3.2549,-3.249,-3.2236,-3.2229,-3.2334,-3.3008,-3.3174,-3.3223,-3.3389,-3.3418,-3.3418,-3.3418,-3.3418,-3.3418,-3.3418,-3.3418,-3.3418,-3.3418,-3.3418,-3.3418,-3.3418,-3.3418,-3.3418,-3.3418,-3.3418,-3.3418,-3.3418,-3.3418,-3.3418,-3.3418,-3.3418,-3.3418,-3.3418,-3.3418,-3.3418,-3.3418,-3.3418,-3.3418,-3.3418,-3.3418,-3.3418,-3.3428,-3.3691,-3.3906,-2.3201,-2.4707,-2.6339,-2.9101,-3.0394,-3.1938,-3.5579,-3.7199,-3.8103,-3.8668,-3.8417,-3.8404,-3.9433,-3.8818,-3.8492,-3.9521,-3.9697,-3.8868,-3.6511,-3.8214,-3.8816,-3.6457,-3.8267,-3.9581,-3.9362,-3.931,-3.8764,-3.7406,-3.624,-3.5629,-3.5629,-3.3201,-3.2264,-3.3247,-3.1872,-3.1054,-3.0947,-3.1054,-3.1112,-3.1112,-3.1228,-3.1426,-3.1643,-3.1964,-3.2129,-3.2187,-3.2578,-3.2519,-3.2258,-3.2578,-3.251,-3.2229,-3.2229,-3.2229,-3.2158,-3.2119,-3.2109,-3.2109,-3.2109,-3.2109,-3.2119,-3.2219,-3.2422,-3.2666,-3.2285,-3.2441,-3.2656,-3.2226,-3.2109,-3.216,-3.206,-3.2051,-3.2158,-3.2578,-3.2734,-3.29,-3.3281,-3.3369,-3.335,-3.331,-3.334,-3.3369,-3.3369,-3.3398,-3.3408,-3.3369,-3.333,-3.332,-3.3359,-3.3369,-3.3379,-3.3418,-3.3418,-3.3418,-3.3418,-3.3418,-3.3418,-3.3418,-3.3418,-3.3418,-3.3418,-3.3418,-3.3418,-3.3418,-3.3418,-3.3418,-3.3418,-3.3418,-3.3418,-3.3418,-3.3418,-3.3633,-2.1782,-2.4136,-2.6876,-2.9202,-3.1838,-3.4286,-3.5994,-3.6885,-3.7525,-3.8078,-3.8454,-3.8755,-3.9057,-3.9207,-3.9408,-3.9647,-3.9697,-3.8868,-3.6511,-3.8214,-3.8816,-3.6457,-3.8267,-3.9697,-3.9633,-3.9426,-3.9154,-3.8828,-3.8332,-3.8068,-3.8068,-3.663,-3.553,-3.4847,-3.3575,-3.2358,-3.1218,-3.2369,-3.2861,-3.2644,-3.3586,-3.3593,-3.2742,-3.1968,-3.1846,-3.2178,-3.2266,-3.2256,-3.2238,-3.2266,-3.2307,-3.2229,-3.2229,-3.2229,-3.219,-3.1787,-3.166,-3.166,-3.166,-3.166,-3.1709,-3.206,-3.2226,-3.2285,-3.2258,-3.2226,-3.2207,-3.1777,-3.166,-3.1582,-3.125,-3.1162,-3.1269,-3.1689,-3.2305,-3.2822,-3.291,-3.293,-3.2832,-3.25,-3.2705,-3.293,-3.293,-3.3203,-3.331,-3.2978,-3.2646,-3.2559,-3.2891,-3.293,-3.3057,-3.3389,-3.3418,-3.3418,-3.3418,-3.3418,-3.3418,-3.3418,-3.3418,-3.3418,-3.3418,-3.3418,-3.3418,-3.3418,-3.3418,-3.3418,-3.3418,-3.3418,-3.3418,-3.3418,-3.3418,-3.3467,-2.2184,-2.433,-2.6841,-3.0131,-3.2654,-3.4613,-3.5717,-3.6194,-3.6558,-3.7111,-3.7877,-3.8454,-3.8454,-3.8919,-3.9142,-3.8539,-3.8644,-3.8214,-3.6457,-3.7725,-3.8384,-3.718,-3.8594,-3.9697,-3.9697,-3.9581,-3.9478,-3.9478,-3.8776,-3.8619,-3.9218,-3.7447,-3.612,-3.5508,-3.417,-3.3124,-3.2369,-3.3124,-3.3733,-3.4181,-3.4803,-3.447,-3.3247,-3.1834,-3.1338,-3.1572,-3.1768,-3.1738,-3.1572,-3.1777,-3.1738,-3.1562,-3.1562,-3.1562,-3.1533,-3.1299,-3.1211,-3.1211,-3.1211,-3.1211,-3.126,-3.1484,-3.1699,-3.1816,-3.1621,-3.1699,-3.1768,-3.1338,-3.1211,-3.1162,-3.0947,-3.0889,-3.0996,-3.1416,-3.1865,-3.2236,-3.2451,-3.249,-3.2432,-3.2268,-3.2344,-3.249,-3.249,-3.2676,-3.2744,-3.2529,-3.2305,-3.2307,-3.2471,-3.2666,-3.2881,-3.3096,-3.3301,-3.3418,-3.3418,-3.3418,-3.3418,-3.3418,-3.3418,-3.3418,-3.3418,-3.3418,-3.3418,-3.3418,-3.3418,-3.3418,-3.3418,-3.3418,-3.3418,-3.3418,-3.3418,-3.3418,-2.2447,-2.4556,-2.6904,-3.1148,-3.2993,-3.4048,-3.5107,-3.5357,-3.5508,-3.6107,-3.7098,-3.7864,-3.7864,-3.8341,-3.8403,-3.7448,-3.7657,-3.7503,-3.6363,-3.731,-3.7976,-3.7805,-3.8923,-3.9697,-3.9697,-3.9697,-3.9697,-3.9697,-3.8764,-3.8659,-3.9645,-3.7595,-3.6217,-3.5781,-3.4615,-3.3845,-3.3575,-3.3845,-3.4559,-3.5672,-3.5453,-3.4847,-3.3733,-3.1883,-3.1064,-3.1083,-3.1368,-3.127,-3.0976,-3.126,-3.1201,-3.0889,-3.0889,-3.0889,-3.0889,-3.0889,-3.0889,-3.0889,-3.0889,-3.0889,-3.0889,-3.0889,-3.1123,-3.1348,-3.0996,-3.1133,-3.1338,-3.0986,-3.0889,-3.0889,-3.0889,-3.0889,-3.0976,-3.1328,-3.1406,-3.1523,-3.1963,-3.206,-3.2031,-3.1963,-3.2002,-3.208,-3.2219,-3.21,-3.206,-3.206,-3.1992,-3.1973,-3.2041,-3.2363,-3.2607,-3.2685,-3.3066,-3.331,-3.331,-3.3379,-3.3418,-3.3418,-3.3418,-3.3418,-3.3418,-3.3418,-3.3418,-3.3418,-3.3418,-3.3418,-3.3418,-3.3418,-3.3418,-3.3418,-3.3418,-3.3418,-1.9861,-2.364,-2.7896,-3.1348,-3.2704,-3.347,-3.4575,-3.4826,-3.4944,-3.5495,-3.6533,-3.7299,-3.7299,-3.7751,-3.8066,-3.7917,-3.7917,-3.7604,-3.6477,-3.7719,-3.8384,-3.7316,-3.8701,-3.9697,-3.9697,-3.9697,-3.9697,-3.9697,-3.953,-3.953,-3.9697,-3.9362,-3.8202,-3.6185,-3.5956,-3.5201,-3.3955,-3.5201,-3.6283,-3.7186,-3.6162,-3.5453,-3.4958,-3.2721,-3.1682,-3.1682,-3.1452,-3.1326,-3.1218,-3.1054,-3.0947,-3.0889,-3.0889,-3.0889,-3.0889,-3.0889,-3.0889,-3.0889,-3.0889,-3.0889,-3.0889,-3.0889,-3.0928,-3.0967,-3.0908,-3.0928,-3.0967,-3.0908,-3.0889,-3.0889,-3.0889,-3.0889,-3.0898,-3.0957,-3.0976,-3.1094,-3.1514,-3.1601,-3.1494,-3.1133,-3.1357,-3.1728,-3.21,-3.1855,-3.1601,-3.1601,-3.1299,-3.1191,-3.1553,-3.165,-3.1836,-3.2217,-3.2627,-3.2881,-3.2881,-3.3213,-3.3418,-3.3418,-3.3418,-3.3418,-3.3418,-3.3418,-3.3418,-3.3418,-3.3418,-3.3418,-3.3418,-3.3418,-3.3418,-3.3418,-3.3418,-3.3418,-2.0776,-2.3954,-2.7067,-3.0093,-3.1286,-3.2064,-3.3483,-3.3796,-3.4048,-3.4856,-3.5466,-3.5994,-3.6609,-3.7174,-3.7342,-3.6689,-3.6835,-3.688,-3.6374,-3.6935,-3.75,-3.7588,-3.8564,-3.9233,-3.9233,-3.9509,-3.9697,-3.9697,-3.9697,-3.9697,-3.9697,-3.9697,-3.8921,-3.7233,-3.718,-3.6846,-3.6197,-3.6846,-3.766,-3.8687,-3.6888,-3.6228,-3.6673,-3.3685,-3.2143,-3.1787,-3.1614,-3.1441,-3.1267,-3.116,-3.1054,-3.0889,-3.0889,-3.0889,-3.0889,-3.0889,-3.0889,-3.0889,-3.0889,-3.0889,-3.0889,-3.0889,-3.1344,-3.1787,-3.1112,-3.1835,-3.2618,-3.1286,-3.1402,-3.173,-3.1064,-3.0889,-3.0889,-3.0889,-3.0889,-3.0947,-3.1123,-3.1162,-3.1113,-3.0928,-3.1035,-3.123,-3.1416,-3.1299,-3.1162,-3.1162,-3.1006,-3.0957,-3.1143,-3.1367,-3.1592,-3.1787,-3.2187,-3.2539,-3.2773,-3.2969,-3.3174,-3.3408,-3.3418,-3.3418,-3.3418,-3.3418,-3.3418,-3.3418,-3.3418,-3.3418,-3.3418,-3.3418,-3.3418,-3.3418,-3.3418,-3.3418,-2.0838,-2.3088,-2.5046,-2.7996,-2.9352,-3.0407,-3.2077,-3.2667,-3.3131,-3.411,-3.4412,-3.4813,-3.5768,-3.6395,-3.6557,-3.5856,-3.6061,-3.6328,-3.6328,-3.6437,-3.6823,-3.769,-3.8304,-3.8655,-3.8655,-3.9019,-3.932,-3.9471,-3.9484,-3.9546,-3.9685,-3.9697,-3.9154,-3.795,-3.7897,-3.7897,-3.7897,-3.8214,-3.8816,-3.9697,-3.7607,-3.7073,-3.7779,-3.4636,-3.2934,-3.2467,-3.241,-3.2065,-3.1556,-3.171,-3.1441,-3.0995,-3.0947,-3.0889,-3.0889,-3.0889,-3.0889,-3.0889,-3.0889,-3.0889,-3.0947,-3.1286,-3.196,-3.2571,-3.195,-3.3006,-3.4056,-3.2285,-3.2457,-3.2903,-3.2008,-3.1777,-3.173,-3.145,-3.1344,-3.1286,-3.0947,-3.0889,-3.0889,-3.0889,-3.0889,-3.0889,-3.0889,-3.0889,-3.0889,-3.0889,-3.0889,-3.0889,-3.0889,-3.1162,-3.1357,-3.1357,-3.1748,-3.2129,-3.2441,-3.2666,-3.293,-3.3242,-3.3359,-3.3418,-3.3418,-3.3418,-3.3418,-3.3418,-3.3418,-3.3418,-3.3418,-3.3418,-3.3418,-3.3418,-3.3418,-3.3418,-1.7965,-1.9673,-2.1735,-2.4996,-2.703,-2.8674,-3.0357,-3.1537,-3.2428,-3.3031,-3.3583,-3.4123,-3.47,-3.5219,-3.5759,-3.6273,-3.6373,-3.6398,-3.6398,-3.6849,-3.7175,-3.7224,-3.7713,-3.8052,-3.8052,-3.8078,-3.8329,-3.8919,-3.8957,-3.9145,-3.9672,-3.9697,-3.9154,-3.795,-3.7897,-3.7897,-3.7897,-3.9037,-3.9633,-3.9685,-3.8437,-3.7832,-3.7832,-3.5454,-3.4368,-3.4357,-3.4022,-3.3243,-3.2305,-3.2815,-3.2311,-3.1267,-3.1005,-3.0889,-3.0889,-3.0889,-3.0889,-3.0889,-3.0889,-3.0889,-3.1112,-3.2238,-3.2628,-3.2913,-3.3899,-3.428,-3.4391,-3.4224,-3.428,-3.428,-3.4224,-3.4224,-3.3955,-3.2846,-3.2628,-3.2295,-3.118,-3.0889,-3.0889,-3.0889,-3.0889,-3.0889,-3.0889,-3.0889,-3.0889,-3.0889,-3.0889,-3.0889,-3.0889,-3.0908,-3.0928,-3.0928,-3.1299,-3.1562,-3.1582,-3.2324,-3.2803,-3.2822,-3.3203,-3.3418,-3.3418,-3.3418,-3.3418,-3.3418,-3.3418,-3.3418,-3.3418,-3.3418,-3.3418,-3.3418,-3.3418,-3.3418,-1.7652,-1.8894,-2.0326,-2.3246,-2.5272,-2.6929,-2.8624,-3.0131,-3.1336,-3.1888,-3.2441,-3.2993,-3.3558,-3.4412,-3.5031,-3.5278,-3.5604,-3.583,-3.583,-3.6307,-3.6707,-3.6707,-3.7149,-3.7475,-3.7475,-3.7801,-3.809,-3.8304,-3.8316,-3.8567,-3.9132,-3.917,-3.9167,-3.9077,-3.8319,-3.7897,-3.7897,-3.9089,-3.9697,-3.9697,-3.8489,-3.8332,-3.8985,-3.663,-3.5979,-3.6696,-3.6588,-3.5322,-3.3413,-3.3618,-3.3212,-3.2369,-3.1488,-3.1054,-3.1005,-3.1787,-3.2076,-3.218,-3.2892,-3.3176,-3.3222,-3.3674,-3.4346,-3.4902,-3.4503,-3.5498,-3.6383,-3.4836,-3.4947,-3.5399,-3.4614,-3.4391,-3.4112,-3.296,-3.2685,-3.2352,-3.117,-3.0889,-3.0889,-3.0889,-3.0889,-3.0889,-3.0889,-3.0889,-3.0889,-3.0889,-3.0889,-3.0889,-3.0889,-3.0889,-3.0889,-3.0889,-3.1025,-3.123,-3.1494,-3.1797,-3.209,-3.2373,-3.2529,-3.2744,-3.3008,-3.3018,-3.3144,-3.3418,-3.3418,-3.3418,-3.3418,-3.3418,-3.3418,-3.3418,-3.3418,-3.3418,-1.6685,-1.7765,-1.9108,-2.1866,-2.3263,-2.4632,-2.7231,-2.8699,-2.9754,-3.067,-3.1436,-3.2051,-3.2441,-3.3257,-3.406,-3.4625,-3.4981,-3.5219,-3.5219,-3.5579,-3.5881,-3.6069,-3.6408,-3.6709,-3.6885,-3.7236,-3.7525,-3.7713,-3.7726,-3.7977,-3.8555,-3.8768,-3.9132,-3.9672,-3.8921,-3.8489,-3.8489,-3.931,-3.9697,-3.9697,-3.8881,-3.8921,-3.9633,-3.7672,-3.718,-3.7897,-3.7897,-3.6684,-3.4781,-3.5035,-3.4637,-3.3687,-3.2426,-3.1998,-3.2113,-3.2571,-3.296,-3.3402,-3.4123,-3.4391,-3.4447,-3.4891,-3.5564,-3.6122,-3.5717,-3.6708,-3.7655,-3.6045,-3.6165,-3.6611,-3.5827,-3.5333,-3.4781,-3.4067,-3.3572,-3.3063,-3.2227,-3.145,-3.0889,-3.0889,-3.0889,-3.0889,-3.0889,-3.0889,-3.0889,-3.0889,-3.0889,-3.0889,-3.0889,-3.0889,-3.0889,-3.0889,-3.0889,-3.1006,-3.1289,-3.1435,-3.1641,-3.1934,-3.2226,-3.25,-3.2783,-3.293,-3.3135,-3.3418,-3.3418,-3.3418,-3.3418,-3.3418,-3.3418,-3.3418,-3.3418,-3.3418,0.0,0.0,0.0,-2.0702,-2.1031,-2.181,-2.6126,-2.7143,-2.7645,-2.9365,-3.0545,-3.1286,-3.1348,-3.1813,-3.2729,-3.4361,-3.4618,-3.47,-3.47,-3.4668,-3.4868,-3.5408,-3.547,-3.5683,-3.6329,-3.638,-3.6619,-3.7123,-3.7161,-3.74,-3.7952,-3.853,-3.9094,-3.9595,-3.9672,-3.9672,-3.9645,-3.9685,-3.9697,-3.9697,-3.9697,-3.9697,-3.9645,-3.8489,-3.7938,-3.7938,-3.7938,-3.734,-3.6348,-3.7198,-3.6649,-3.5233,-3.3744,-3.3698,-3.428,-3.3187,-3.3515,-3.4447,-3.4503,-3.4503,-3.4725,-3.585,-3.6231,-3.6449,-3.7655,-3.7986,-3.7986,-3.7986,-3.7986,-3.7986,-3.7986,-3.7108,-3.6231,-3.6231,-3.5289,-3.4447,-3.4391,-3.2618,-3.1005,-3.0947,-3.0947,-3.0889,-3.0889,-3.0889,-3.0889,-3.0889,-3.0889,-3.0889,-3.0889,-3.0889,-3.0889,-3.0889,-3.0889,-3.0889,-3.0889,-3.1269,-3.1504,-3.1504,-3.2275,-3.2754,-3.2773,-3.3164,-3.3398,-3.3418,-3.3418,-3.3418,-3.3418,-3.3418,-3.3418,-3.3418,-3.3418,-3.3418,-1.558,0.0,0.0,0.0,0.0,0.0,-2.2652,-2.3703,-2.4983,-2.7469,-2.821,-2.8913,-3.0532,-3.126,-3.1763,-3.224,-3.3332,-3.4123,-3.4123,-3.4474,-3.4776,-3.4881,-3.4906,-3.5119,-3.5717,-3.5768,-3.5994,-3.6593,-3.6631,-3.6883,-3.7374,-3.7939,-3.814,-3.784,-3.8674,-3.8912,-3.8372,-3.9258,-3.9697,-3.9697,-3.9697,-3.9697,-3.9697,-3.9362,-3.9206,-3.9206,-3.9206,-3.9037,-3.8699,-3.8043,-3.7435,-3.6757,-3.5288,-3.4748,-3.4814,-3.5113,-3.5454,-3.5838,-3.6708,-3.6989,-3.7042,-3.7376,-3.7495,-3.7536,-3.7921,-3.7986,-3.7986,-3.7986,-3.7986,-3.7986,-3.7986,-3.7761,-3.7269,-3.6394,-3.5959,-3.5454,-3.4614,-3.3888,-3.3176,-3.2342,-3.1508,-3.0889,-3.0889,-3.0889,-3.0889,-3.0889,-3.0889,-3.0889,-3.0889,-3.0889,-3.0889,-3.0889,-3.0889,-3.0889,-3.0889,-3.0996,-3.1064,-3.1064,-3.1289,-3.1699,-3.2314,-3.2451,-3.2803,-3.3408,-3.3418,-3.3418,-3.3418,-3.3418,-3.3418,-3.3418,-3.3418,-3.3418,-1.6321,-1.7036,-1.8179,-1.8655,0.0,0.0,-2.1707,-2.2293,-2.3175,-2.5724,-2.665,-2.7442,-2.8938,-2.9854,-3.0444,-3.0683,-3.1926,-3.2943,-3.3169,-3.3684,-3.4123,-3.4349,-3.4374,-3.46,-3.5107,-3.537,-3.5633,-3.5994,-3.6279,-3.6644,-3.7149,-3.7487,-3.7605,-3.7484,-3.8427,-3.8701,-3.8316,-3.925,-3.9697,-3.9697,-3.9697,-3.9697,-3.9697,-3.9697,-3.9697,-3.9697,-3.9697,-3.9697,-3.9645,-3.8933,-3.8477,-3.8137,-3.6769,-3.6337,-3.6522,-3.6545,-3.6881,-3.7376,-3.7974,-3.8198,-3.8145,-3.8039,-3.7986,-3.7986,-3.7986,-3.7986,-3.7986,-3.7986,-3.7986,-3.7986,-3.7986,-3.7986,-3.7814,-3.7108,-3.6947,-3.6773,-3.6045,-3.5498,-3.4792,-3.3618,-3.2846,-3.2227,-3.173,-3.1682,-3.1508,-3.1005,-3.0889,-3.0889,-3.0889,-3.0889,-3.0889,-3.0889,-3.0889,-3.0889,-3.0889,-3.0889,-3.0889,-3.0889,-3.1055,-3.1455,-3.2139,-3.2334,-3.2744,-3.3408,-3.3418,-3.3418,-3.3418,-3.3418,-3.3418,-3.3418,-3.3418,-3.3418,-1.7491,-1.823,0.0,-2.0415,-1.9648,0.0,-2.1967,-2.192,-2.1882,-2.3941,-2.5084,-2.5996,-2.6801,-2.777,-2.8624,-2.9239,-3.0331,-3.1348,-3.2026,-3.2566,-3.3068,-3.3571,-3.3671,-3.3922,-3.4487,-3.4994,-3.5345,-3.5408,-3.5956,-3.6531,-3.6973,-3.7061,-3.7349,-3.7902,-3.8479,-3.8856,-3.8919,-3.9421,-3.9697,-3.9697,-3.9697,-3.9697,-3.9697,-3.9697,-3.9697,-3.9697,-3.9697,-3.9697,-3.9697,-3.9697,-3.953,-3.9258,-3.8137,-3.8149,-3.8736,-3.7684,-3.7909,-3.8788,-3.8514,-3.8461,-3.8409,-3.8145,-3.8039,-3.8039,-3.8039,-3.7986,-3.7986,-3.7986,-3.7986,-3.7986,-3.7986,-3.7986,-3.7986,-3.7986,-3.7986,-3.7986,-3.7986,-3.7162,-3.6068,-3.5002,-3.4558,-3.4067,-3.3073,-3.2913,-3.2457,-3.1286,-3.1122,-3.1064,-3.0889,-3.0889,-3.0889,-3.0889,-3.0889,-3.0889,-3.0889,-3.0889,-3.0889,-3.0889,-3.124,-3.1641,-3.208,-3.2461,-3.2871,-3.334,-3.3398,-3.3418,-3.3418,-3.3418,-3.3418,-3.3418,-3.3418,-3.3418,-2.0853,-2.1377,-2.1929,-2.0363,-2.1079,0.0,-1.9597,-1.966,-2.0388,-2.132,-2.1307,-2.1832,-2.4205,-2.5184,-2.5766,-2.6327,-2.8097,-2.9917,-3.1348,-3.165,-3.1763,-3.1863,-3.2265,-3.2767,-3.3345,-3.3897,-3.4399,-3.4806,-3.5345,-3.5708,-3.5809,-3.6282,-3.682,-3.7324,-3.7889,-3.8391,-3.8919,-3.9421,-3.9697,-3.9697,-3.9697,-3.9697,-3.9697,-3.9697,-3.9697,-3.9697,-3.9697,-3.9697,-3.9697,-3.9697,-3.9697,-3.9581,-3.9141,-3.9037,-3.9154,-3.8671,-3.8619,-3.8788,-3.8736,-3.8736,-3.8684,-3.8409,-3.8303,-3.8303,-3.8092,-3.7986,-3.7986,-3.7986,-3.7986,-3.7986,-3.7986,-3.7986,-3.7986,-3.7986,-3.7986,-3.7986,-3.7986,-3.7814,-3.7601,-3.7322,-3.5717,-3.4336,-3.4123,-3.4056,-3.3674,-3.2514,-3.2352,-3.2018,-3.1005,-3.0889,-3.0889,-3.0889,-3.0889,-3.0889,-3.0889,-3.0889,-3.0889,-3.0889,-3.0967,-3.1201,-3.1621,-3.1719,-3.2129,-3.29,-3.3252,-3.3418,-3.3418,-3.3418,-3.3418,-3.3418,-3.3418,-3.3418,-2.2347,-2.2723,-2.3271,-2.2171,-2.2309,0.0,0.0,-2.0439,-2.0654,-2.2074,-2.1232,-2.1091,-2.3891,-2.4148,-2.4224,-2.5071,-2.6841,-2.8298,-2.89,-3.0357,-3.1386,-3.1386,-3.1637,-3.1913,-3.2202,-3.2993,-3.3834,-3.4663,-3.4931,-3.5207,-3.5483,-3.5805,-3.6207,-3.6807,-3.7312,-3.7739,-3.8027,-3.8868,-3.9283,-3.9283,-3.9559,-3.9697,-3.9697,-3.9697,-3.9697,-3.9697,-3.9697,-3.9697,-3.9697,-3.9697,-3.9697,-3.9697,-3.953,-3.9478,-3.9478,-3.9322,-3.927,-3.9218,-3.9114,-3.905,-3.8998,-3.8684,-3.8526,-3.8356,-3.825,-3.8092,-3.7986,-3.7986,-3.7986,-3.7986,-3.7986,-3.7986,-3.7986,-3.7986,-3.7986,-3.7986,-3.7986,-3.7986,-3.7986,-3.7986,-3.7042,-3.5991,-3.5399,-3.5289,-3.4891,-3.373,-3.3073,-3.2685,-3.2675,-3.1614,-3.1122,-3.173,-3.1286,-3.0889,-3.0889,-3.0889,-3.0889,-3.0889,-3.0889,-3.1074,-3.1504,-3.1514,-3.1914,-3.2773,-3.2998,-3.3213,-3.3418,-3.3418,-3.3418,-3.3418,-3.3418,-3.3418,-2.3941,-2.4167,-2.4795,-2.4155,-2.3715,-2.3233,0.0,0.0,0.0,-2.2912,-2.1785,-2.1245,-2.359,-2.3276,-2.2932,-2.3866,-2.5498,-2.6449,-2.5783,-2.8323,-3.0357,-3.057,-3.0884,-3.1085,-3.1085,-3.1813,-3.278,-3.3997,-3.3985,-3.4216,-3.4981,-3.532,-3.5696,-3.6194,-3.6847,-3.7186,-3.7186,-3.8191,-3.8806,-3.8932,-3.932,-3.9597,-3.9697,-3.9697,-3.9697,-3.9697,-3.9697,-3.9697,-3.9697,-3.9697,-3.9697,-3.9697,-3.9697,-3.9697,-3.9697,-3.9697,-3.9697,-3.9697,-3.9426,-3.9374,-3.931,-3.8998,-3.8736,-3.8461,-3.8461,-3.8303,-3.8145,-3.8092,-3.8092,-3.8145,-3.8039,-3.8039,-3.8092,-3.8039,-3.7986,-3.7986,-3.7986,-3.7986,-3.7986,-3.7986,-3.7986,-3.7708,-3.6731,-3.6569,-3.6122,-3.4947,-3.3955,-3.3628,-3.4336,-3.2561,-3.1624,-3.2571,-3.1624,-3.0889,-3.0889,-3.0889,-3.0889,-3.0889,-3.0889,-3.1045,-3.1377,-3.1475,-3.1846,-3.2539,-3.2715,-3.2959,-3.3301,-3.3379,-3.3418,-3.3418,-3.3418,-3.3418,-2.7645,-2.7896,-2.7634,-2.4732,-2.5737,-2.6176,-2.1292,0.0,-2.233,-2.0639,0.0,-2.015,-2.1018,0.0,0.0,-2.1144,-2.2962,-2.4004,-2.2937,-2.4782,-2.6628,-2.7632,-2.9063,-2.998,-2.998,-2.9628,-3.0055,-3.165,-3.1336,-3.175,-3.3269,-3.4751,-3.552,-3.5596,-3.6646,-3.7186,-3.7186,-3.7801,-3.8366,-3.8919,-3.8931,-3.922,-3.9697,-3.9697,-3.9697,-3.9697,-3.9697,-3.9697,-3.9697,-3.9697,-3.9697,-3.9697,-3.9697,-3.9697,-3.9697,-3.9697,-3.9697,-3.9697,-3.9645,-3.9633,-3.9594,-3.9322,-3.8998,-3.8736,-3.8736,-3.8736,-3.8684,-3.8409,-3.8526,-3.8579,-3.8145,-3.8198,-3.8303,-3.8039,-3.7986,-3.7986,-3.7986,-3.7986,-3.7986,-3.7986,-3.7986,-3.7986,-3.7814,-3.7814,-3.7376,-3.6177,-3.5904,-3.5454,-3.4503,-3.3289,-3.2571,-3.2685,-3.1624,-3.0889,-3.0889,-3.0889,-3.0889,-3.0889,-3.0889,-3.0918,-3.0957,-3.1318,-3.1562,-3.166,-3.2412,-3.2822,-3.2871,-3.3242,-3.3418,-3.3418,-3.3418,-3.3418,-2.7421,-2.7879,-2.7959,-2.5971,-2.5812,-2.5511,-2.2849,-2.2209,-2.2284,-2.2636,0.0,0.0,0.0,0.0,0.0,0.0,-2.1483,-2.181,-2.0966,-2.2209,-2.3866,-2.5649,-2.6741,-2.7871,-2.9164,-2.8787,-2.9139,-3.0821,-3.0131,-3.0495,-3.2466,-3.3558,-3.455,-3.547,-3.5947,-3.6383,-3.6757,-3.7249,-3.7651,-3.7902,-3.8555,-3.9045,-3.9233,-3.9546,-3.9697,-3.9697,-3.9697,-3.9697,-3.9697,-3.9697,-3.9697,-3.9697,-3.9697,-3.9697,-3.9697,-3.9697,-3.9697,-3.9697,-3.9697,-3.9697,-3.9645,-3.9374,-3.9206,-3.905,-3.8841,-3.8788,-3.8788,-3.8684,-3.8736,-3.8736,-3.8514,-3.8579,-3.8579,-3.8461,-3.8461,-3.8461,-3.8461,-3.8461,-3.8461,-3.8461,-3.8461,-3.8461,-3.8461,-3.8356,-3.8092,-3.7761,-3.715,-3.6762,-3.6923,-3.5366,-3.4213,-3.4213,-3.3145,-3.2035,-3.1218,-3.1112,-3.1054,-3.0889,-3.0889,-3.0889,-3.0889,-3.1064,-3.1269,-3.1514,-3.1875,-3.2178,-3.2432,-3.2851,-3.3057,-3.3066,-3.331,-3.3418,-2.7322,-2.7725,-2.7804,-2.6104,-2.5165,-2.4429,-2.3516,-2.2723,-2.2585,-2.4023,-2.3113,0.0,0.0,0.0,0.0,0.0,0.0,-2.0553,-1.951,-2.02,-2.1581,-2.3665,-2.4644,-2.5912,-2.7797,-2.7105,-2.7406,-2.9541,-2.8487,-2.8863,-3.1424,-3.2365,-3.3533,-3.4994,-3.5345,-3.5805,-3.6405,-3.6807,-3.7036,-3.7199,-3.8015,-3.8617,-3.8881,-3.9283,-3.9546,-3.9697,-3.9697,-3.9697,-3.9697,-3.9697,-3.9697,-3.9697,-3.9697,-3.9697,-3.9697,-3.9697,-3.9697,-3.9697,-3.9697,-3.9697,-3.9697,-3.9478,-3.9426,-3.9362,-3.9114,-3.9062,-3.905,-3.8945,-3.8998,-3.901,-3.8841,-3.8841,-3.8893,-3.8841,-3.8788,-3.8788,-3.8788,-3.8788,-3.8788,-3.8788,-3.8788,-3.8841,-3.8945,-3.8684,-3.8579,-3.8788,-3.808,-3.7856,-3.8684,-3.7019,-3.5793,-3.5793,-3.4403,-3.3077,-3.1977,-3.1546,-3.116,-3.0889,-3.0889,-3.0889,-3.0889,-3.0889,-3.1035,-3.1338,-3.1455,-3.167,-3.1992,-3.2412,-3.2627,-3.2637,-3.3174,-3.3418,-2.8664,-2.8454,-2.7707,-2.4439,-2.3953,-2.383,-2.1998,-2.2786,-2.3778,-2.3258,-2.4362,-2.5146,0.0,0.0,0.0,0.0,0.0,0.0,0.0,-1.8719,-1.9697,-2.1393,-2.305,-2.4481,-2.5598,-2.3753,-2.3853,-2.7143,-2.5875,-2.6389,-2.9691,-3.1373,-3.2767,-3.3909,-3.4944,-3.5805,-3.6405,-3.643,-3.6707,-3.7186,-3.7224,-3.7814,-3.8919,-3.8944,-3.9195,-3.9697,-3.9697,-3.9697,-3.9697,-3.9697,-3.9697,-3.9697,-3.9697,-3.9697,-3.9697,-3.9697,-3.9697,-3.9697,-3.9697,-3.9697,-3.9697,-3.9697,-3.9697,-3.9697,-3.9697,-3.9697,-3.9633,-3.9374,-3.9478,-3.9542,-3.8945,-3.905,-3.9206,-3.8893,-3.8788,-3.8788,-3.8788,-3.8788,-3.8788,-3.8788,-3.8788,-3.8893,-3.9218,-3.8998,-3.8788,-3.8788,-3.8788,-3.8736,-3.8788,-3.7791,-3.7031,-3.7031,-3.4902,-3.3508,-3.3452,-3.215,-3.116,-3.0889,-3.0889,-3.0889,-3.0889,-3.0889,-3.0898,-3.0908,-3.1309,-3.1523,-3.1543,-3.1982,-3.2187,-3.2268,-3.3037,-3.3418,-2.8485,-2.8922,-2.8807,-2.6592,-2.5311,-2.4377,-2.3378,-2.3288,-2.3346,-2.3145,-2.4412,0.0,0.0,0.0,0.0,0.0,0.0,0.0,0.0,-1.7815,-1.8279,-1.9208,-2.1104,-2.2623,-2.3351,-2.3045,-2.3597,-2.5511,-2.546,-2.6465,-2.9089,-3.0771,-3.219,-3.3319,-3.4424,-3.5219,-3.5818,-3.6182,-3.6505,-3.6681,-3.701,-3.7387,-3.7776,-3.858,-3.902,-3.917,-3.9534,-3.9697,-3.9697,-3.9697,-3.9697,-3.9697,-3.9697,-3.9697,-3.9697,-3.9697,-3.9697,-3.9697,-3.9697,-3.9697,-3.9697,-3.9697,-3.9697,-3.9697,-3.9697,-3.9697,-3.9685,-3.9581,-3.9633,-3.9645,-3.9426,-3.9478,-3.953,-3.9426,-3.9374,-3.9374,-3.9374,-3.9374,-3.9374,-3.9374,-3.9374,-3.9426,-3.9542,-3.9478,-3.9374,-3.9374,-3.9374,-3.9374,-3.9374,-3.9037,-3.8489,-3.7725,-3.6888,-3.5999,-3.5057,-3.4191,-3.3642,-3.354,-3.3325,-3.2892,-3.2123,-3.2076,-3.174,-3.0889,-3.1025,-3.1103,-3.1103,-3.1533,-3.1738,-3.1758,-3.2324,-3.2744,-2.8485,-2.8922,-2.8943,-2.7248,-2.6015,-2.502,-2.4192,-2.4004,-2.3923,-2.3747,-2.4732,0.0,0.0,0.0,0.0,0.0,0.0,0.0,0.0,-1.7413,-1.7739,-1.789,-1.951,-2.0978,-2.1933,-2.1779,-2.2443,-2.4381,-2.4644,-2.5774,-2.821,-3.0105,-3.1625,-3.2729,-3.4048,-3.4944,-3.5495,-3.6094,-3.6405,-3.6417,-3.6769,-3.6998,-3.7211,-3.7939,-3.8542,-3.8944,-3.9245,-3.9509,-3.9697,-3.9697,-3.9697,-3.9697,-3.9697,-3.9697,-3.9697,-3.9697,-3.9697,-3.9697,-3.9697,-3.9697,-3.9697,-3.9697,-3.9697,-3.9697,-3.9697,-3.9697,-3.9697,-3.9697,-3.9697,-3.9697,-3.9697,-3.9697,-3.9697,-3.9697,-3.9697,-3.9697,-3.9697,-3.9697,-3.9697,-3.9697,-3.9697,-3.9697,-3.9697,-3.9697,-3.9697,-3.9697,-3.9697,-3.9697,-3.9697,-3.9697,-3.9426,-3.8607,-3.8161,-3.7275,-3.5672,-3.5233,-3.4969,-3.4759,-3.4492,-3.4056,-3.3346,-3.2913,-3.2352,-3.1566,-3.1112,-3.0889,-3.0889,-3.1162,-3.1299,-3.1299,-3.1582,-3.1934]},{"header":{"parameterUnit":"m.s-1","parameterCategory":1,"la1":30.6,"la2":29.2853,"lo1":-89.7004,"lo2":-87.6739,"dy":0.0162,"dx":0.0183,"nx":112,"ny":82,"refTime":"2024-08-30T18:00:00:Z","depth":0,"parameterNumber":3,"parameterNumberName":"V-component_of_WINDS"},"data":[0.0,0.0,0.0,0.0,0.0,0.0,0.0,0.0,0.0,0.0,0.0,0.0,0.0,0.0,0.0,0.0,0.0,0.0,0.0,0.0,0.0,0.0,0.0,0.0,0.0,0.0,0.0,0.0,0.0,0.0,0.0,0.0,0.0,0.0,0.0,0.0,0.0,0.0,0.0,0.0,0.0,0.0,0.0,0.0,0.0,0.0,0.0,0.0,0.0,0.0,0.0,0.0,0.0,0.0,0.0,0.0,0.0,0.0,0.0,0.0,0.0,0.0,0.0,0.0,0.0,0.0,0.0,0.0,0.0,0.0,0.0,0.0,0.0,0.0,0.0,0.0,0.0,0.0,0.0,0.0,0.0,0.0,0.0,0.0,0.0,0.0,0.0,0.0,0.0,0.0,4.0081,4.3424,4.7847,5.0614,5.075,5.0835,4.8109,4.1658,0.0,0.0,0.0,0.0,0.0,0.0,0.0,0.0,0.0,0.0,0.0,0.0,0.0,0.0,0.0,0.0,0.0,0.0,0.0,0.0,0.0,0.0,0.0,0.0,0.0,0.0,0.0,0.0,0.0,0.0,0.0,0.0,0.0,0.0,0.0,0.0,0.0,0.0,0.0,0.0,0.0,0.0,0.0,0.0,0.0,0.0,0.0,0.0,0.0,0.0,0.0,0.0,0.0,0.0,0.0,0.0,0.0,0.0,0.0,0.0,0.0,0.0,0.0,0.0,0.0,0.0,0.0,0.0,0.0,0.0,0.0,0.0,0.0,0.0,0.0,0.0,0.0,0.0,0.0,0.0,0.0,0.0,0.0,0.0,0.0,0.0,0.0,0.0,0.0,0.0,0.0,0.0,0.0,0.0,0.0,0.0,0.0,0.0,0.0,0.0,0.0,0.0,0.0,0.0,4.052,4.7409,4.9468,5.0423,5.0614,5.0143,4.7567,4.2288,0.0,0.0,0.0,0.0,0.0,0.0,0.0,0.0,0.0,0.0,0.0,0.0,0.0,0.0,0.0,0.0,0.0,0.0,0.0,0.0,0.0,0.0,0.0,0.0,0.0,0.0,0.0,0.0,0.0,0.0,0.0,0.0,0.0,0.0,0.0,0.0,0.0,0.0,0.0,0.0,0.0,0.0,0.0,0.0,0.0,0.0,0.0,0.0,0.0,0.0,0.0,0.0,0.0,0.0,0.0,0.0,0.0,0.0,0.0,0.0,0.0,0.0,0.0,0.0,0.0,0.0,0.0,0.0,0.0,0.0,0.0,0.0,0.0,0.0,0.0,0.0,0.0,0.0,0.0,0.0,0.0,0.0,0.0,0.0,0.0,0.0,0.0,0.0,0.0,0.0,0.0,0.0,0.0,0.0,0.0,0.0,0.0,0.0,0.0,0.0,0.0,0.0,0.0,3.9775,4.2851,4.9079,5.0073,5.0374,5.0538,4.9925,4.7217,4.1743,3.9162,0.0,0.0,0.0,0.0,0.0,0.0,0.0,0.0,0.0,0.0,0.0,0.0,0.0,0.0,0.0,0.0,0.0,0.0,0.0,0.0,0.0,0.0,0.0,0.0,0.0,0.0,0.0,0.0,0.0,0.0,0.0,0.0,0.0,0.0,0.0,0.0,0.0,0.0,0.0,0.0,0.0,0.0,0.0,0.0,0.0,0.0,0.0,0.0,0.0,0.0,0.0,0.0,0.0,0.0,0.0,0.0,0.0,0.0,0.0,0.0,0.0,0.0,0.0,0.0,0.0,0.0,0.0,0.0,0.0,0.0,0.0,0.0,0.0,0.0,0.0,0.0,0.0,0.0,0.0,0.0,0.0,0.0,0.0,0.0,0.0,0.0,0.0,0.0,0.0,0.0,0.0,0.0,0.0,0.0,0.0,0.0,0.0,0.0,0.0,0.0,0.0,0.0,4.3634,4.5602,4.9843,5.0302,5.034,5.0434,4.9302,4.6327,4.1059,3.793,0.0,0.0,0.0,0.0,0.0,0.0,0.0,0.0,0.0,0.0,0.0,0.0,0.0,0.0,0.0,0.0,0.0,0.0,0.0,0.0,0.0,0.0,0.0,0.0,0.0,0.0,0.0,0.0,0.0,0.0,0.0,0.0,0.0,0.0,0.0,0.0,0.0,0.0,0.0,0.0,0.0,0.0,0.0,0.0,0.0,0.0,0.0,0.0,0.0,0.0,0.0,0.0,0.0,0.0,0.0,0.0,0.0,0.0,0.0,0.0,0.0,0.0,0.0,0.0,0.0,0.0,0.0,0.0,0.0,0.0,0.0,0.0,0.0,0.0,0.0,0.0,0.0,0.0,0.0,0.0,0.0,0.0,0.0,0.0,0.0,0.0,0.0,0.0,0.0,0.0,0.0,0.0,0.0,0.0,0.0,0.0,0.0,0.0,0.0,0.0,0.0,0.0,4.4579,4.817,5.0111,5.0302,5.0302,5.0314,4.7587,4.4342,4.0756,3.6085,0.0,0.0,0.0,0.0,0.0,0.0,0.0,0.0,0.0,0.0,0.0,0.0,0.0,0.0,0.0,0.0,0.0,0.0,0.0,0.0,0.0,0.0,0.0,0.0,0.0,0.0,0.0,0.0,0.0,0.0,0.0,0.0,0.0,0.0,0.0,0.0,0.0,0.0,0.0,0.0,0.0,0.0,0.0,0.0,0.0,0.0,0.0,0.0,0.0,0.0,0.0,0.0,0.0,0.0,0.0,0.0,0.0,0.0,0.0,0.0,0.0,0.0,0.0,0.0,0.0,0.0,0.0,0.0,0.0,0.0,0.0,0.0,0.0,0.0,0.0,0.0,0.0,0.0,0.0,0.0,0.0,0.0,0.0,0.0,0.0,0.0,0.0,0.0,0.0,0.0,0.0,0.0,0.0,0.0,0.0,0.0,0.0,0.0,0.0,0.0,0.0,0.0,4.33,4.668,4.9958,5.0302,5.0302,5.0302,4.8335,4.521,4.0781,0.0,0.0,0.0,0.0,0.0,0.0,0.0,0.0,0.0,0.0,0.0,0.0,0.0,0.0,0.0,0.0,0.0,0.0,0.0,0.0,0.0,0.0,0.0,0.0,0.0,0.0,0.0,0.0,0.0,0.0,0.0,0.0,0.0,0.0,0.0,0.0,0.0,0.0,0.0,0.0,0.0,0.0,0.0,0.0,0.0,0.0,0.0,0.0,0.0,0.0,0.0,0.0,0.0,0.0,0.0,0.0,0.0,0.0,0.0,0.0,0.0,0.0,0.0,0.0,0.0,0.0,0.0,0.0,0.0,0.0,0.0,0.0,0.0,0.0,0.0,0.0,0.0,0.0,0.0,0.0,0.0,0.0,0.0,0.0,0.0,0.0,0.0,0.0,0.0,0.0,0.0,0.0,0.0,0.0,0.0,0.0,0.0,0.0,0.0,0.0,0.0,0.0,3.9671,4.3414,4.6825,4.9958,5.0302,5.0302,5.0302,4.8107,4.4815,4.033,0.0,0.0,0.0,0.0,0.0,0.0,0.0,0.0,0.0,0.0,0.0,0.0,0.0,0.0,0.0,0.0,0.0,0.0,0.0,0.0,0.0,0.0,0.0,0.0,0.0,0.0,0.0,0.0,0.0,0.0,0.0,0.0,0.0,0.0,0.0,0.0,0.0,0.0,0.0,0.0,0.0,0.0,0.0,0.0,0.0,0.0,0.0,0.0,0.0,0.0,0.0,0.0,0.0,0.0,0.0,0.0,0.0,0.0,0.0,0.0,0.0,0.0,0.0,0.0,0.0,0.0,0.0,0.0,0.0,0.0,0.0,0.0,0.0,0.0,0.0,0.0,0.0,0.0,0.0,0.0,0.0,0.0,0.0,0.0,0.0,0.0,0.0,0.0,0.0,0.0,0.0,0.0,0.0,0.0,0.0,0.0,0.0,0.0,0.0,0.0,0.0,0.0,3.9976,4.5449,4.9404,5.0206,5.0302,5.0302,5.0302,4.6451,4.2623,0.0,0.0,0.0,0.0,0.0,0.0,0.0,0.0,0.0,0.0,0.0,0.0,0.0,0.0,0.0,0.0,0.0,0.0,0.0,0.0,0.0,0.0,0.0,0.0,0.0,0.0,0.0,0.0,0.0,0.0,0.0,0.0,0.0,0.0,0.0,0.0,0.0,0.0,0.0,0.0,0.0,0.0,0.0,0.0,0.0,0.0,0.0,0.0,0.0,0.0,0.0,0.0,0.0,0.0,0.0,0.0,0.0,0.0,0.0,0.0,0.0,0.0,0.0,0.0,0.0,0.0,0.0,0.0,0.0,0.0,0.0,0.0,0.0,0.0,0.0,0.0,0.0,0.0,0.0,0.0,0.0,0.0,0.0,0.0,0.0,0.0,0.0,0.0,0.0,0.0,0.0,0.0,0.0,0.0,0.0,0.0,0.0,0.0,0.0,0.0,0.0,0.0,0.0,3.9976,4.5449,4.9404,5.0206,5.0302,5.0302,5.0302,4.8075,4.4764,4.0309,0.0,0.0,0.0,0.0,0.0,0.0,0.0,0.0,0.0,0.0,0.0,0.0,0.0,0.0,0.0,0.0,0.0,0.0,0.0,0.0,0.0,0.0,0.0,0.0,0.0,0.0,0.0,0.0,0.0,0.0,0.0,0.0,0.0,0.0,0.0,0.0,0.0,0.0,0.0,0.0,0.0,0.0,0.0,0.0,0.0,0.0,0.0,0.0,0.0,0.0,0.0,0.0,0.0,0.0,0.0,0.0,0.0,0.0,0.0,0.0,0.0,0.0,0.0,0.0,0.0,0.0,0.0,0.0,0.0,0.0,0.0,0.0,0.0,0.0,0.0,0.0,0.0,0.0,0.0,0.0,0.0,0.0,0.0,0.0,0.0,0.0,0.0,0.0,0.0,0.0,0.0,0.0,0.0,0.0,0.0,0.0,0.0,0.0,0.0,0.0,0.0,0.0,4.0014,4.5736,4.9767,5.0245,5.0302,5.0302,5.0302,4.8774,4.5814,4.1129,0.0,0.0,0.0,0.0,0.0,0.0,0.0,0.0,0.0,0.0,0.0,0.0,0.0,0.0,0.0,0.0,0.0,0.0,0.0,0.0,0.0,0.0,0.0,0.0,0.0,0.0,0.0,0.0,0.0,0.0,0.0,0.0,0.0,0.0,0.0,0.0,0.0,0.0,0.0,0.0,0.0,0.0,0.0,0.0,0.0,0.0,0.0,0.0,0.0,0.0,0.0,0.0,0.0,0.0,0.0,0.0,0.0,0.0,0.0,0.0,0.0,0.0,0.0,0.0,0.0,0.0,0.0,0.0,0.0,0.0,0.0,0.0,0.0,0.0,0.0,0.0,0.0,0.0,0.0,0.0,0.0,0.0,0.0,0.0,0.0,0.0,0.0,0.0,0.0,0.0,0.0,0.0,0.0,0.0,0.0,0.0,0.0,0.0,0.0,0.0,0.0,0.0,4.0167,4.6194,5.0302,5.0302,5.0302,5.0302,5.0302,4.885,4.6156,4.1991,0.0,0.0,0.0,0.0,0.0,0.0,0.0,0.0,0.0,0.0,0.0,0.0,0.0,0.0,0.0,0.0,0.0,0.0,0.0,0.0,0.0,0.0,0.0,0.0,0.0,0.0,0.0,0.0,0.0,0.0,0.0,0.0,0.0,0.0,0.0,0.0,0.0,0.0,0.0,0.0,0.0,0.0,0.0,0.0,0.0,0.0,0.0,0.0,0.0,0.0,0.0,0.0,0.0,0.0,0.0,0.0,0.0,0.0,0.0,0.0,3.5409,3.3051,0.0,0.0,0.0,0.0,0.0,0.0,0.0,0.0,0.0,0.0,0.0,0.0,0.0,0.0,0.0,0.0,0.0,0.0,0.0,0.0,0.0,0.0,0.0,0.0,0.0,0.0,0.0,0.0,0.0,0.0,0.0,0.0,0.0,0.0,0.0,0.0,0.0,0.0,0.0,0.0,4.0941,4.6538,5.0302,5.0302,5.0302,5.0302,5.0302,4.9385,4.7283,4.3682,3.9986,0.0,0.0,0.0,0.0,0.0,0.0,0.0,0.0,0.0,0.0,0.0,0.0,0.0,0.0,0.0,0.0,0.0,0.0,0.0,0.0,0.0,0.0,0.0,0.0,0.0,0.0,0.0,0.0,0.0,0.0,0.0,0.0,0.0,0.0,0.0,0.0,0.0,0.0,0.0,0.0,0.0,0.0,0.0,0.0,0.0,0.0,0.0,0.0,0.0,0.0,0.0,0.0,0.0,0.0,0.0,0.0,0.0,0.0,0.0,4.0979,3.8832,0.0,0.0,0.0,0.0,0.0,0.0,0.0,0.0,0.0,0.0,0.0,0.0,0.0,0.0,0.0,0.0,0.0,0.0,0.0,0.0,0.0,0.0,0.0,0.0,0.0,0.0,0.0,0.0,0.0,0.0,0.0,0.0,0.0,0.0,0.0,0.0,0.0,0.0,0.0,0.0,4.18,4.6901,5.0302,5.0302,5.0302,5.0302,5.0302,4.9557,4.8162,4.5955,4.2297,0.0,0.0,0.0,0.0,0.0,0.0,0.0,0.0,0.0,0.0,0.0,0.0,0.0,0.0,0.0,0.0,0.0,0.0,0.0,0.0,0.0,0.0,0.0,0.0,0.0,0.0,0.0,0.0,0.0,0.0,0.0,0.0,0.0,0.0,0.0,0.0,0.0,0.0,0.0,0.0,0.0,0.0,0.0,0.0,0.0,0.0,0.0,0.0,0.0,0.0,0.0,0.0,0.0,4.6036,4.7432,4.8659,4.9866,5.0793,5.1174,4.7029,4.5836,4.6493,4.207,0.0,0.0,0.0,0.0,0.0,0.0,0.0,0.0,0.0,0.0,0.0,0.0,0.0,0.0,0.0,0.0,0.0,0.0,0.0,0.0,0.0,0.0,4.4002,4.4575,4.6344,4.6227,4.0236,0.0,0.0,0.0,0.0,0.0,0.0,0.0,0.0,0.0,0.0,0.0,4.2878,4.7323,5.0231,5.0231,5.0231,5.0243,5.0267,4.9656,4.8923,4.8075,4.4609,4.2163,0.0,0.0,0.0,0.0,0.0,0.0,0.0,0.0,0.0,0.0,0.0,0.0,0.0,0.0,0.0,0.0,0.0,0.0,0.0,0.0,0.0,0.0,0.0,0.0,0.0,0.0,0.0,0.0,0.0,0.0,0.0,0.0,3.0372,3.2107,0.0,0.0,0.0,0.0,0.0,0.0,0.0,0.0,0.0,0.0,0.0,0.0,0.0,4.4864,4.6414,4.9522,5.0883,5.0495,5.3607,5.4841,5.4354,5.5268,5.577,5.5826,5.517,0.0,4.9506,4.6427,0.0,0.0,0.0,0.0,0.0,0.0,0.0,0.0,0.0,0.0,0.0,0.0,0.0,0.0,0.0,0.0,0.0,0.0,0.0,0.0,0.0,0.0,5.0316,4.9718,4.9815,4.9812,4.8867,4.4554,4.0062,3.7406,3.6317,0.0,0.0,0.0,0.0,0.0,0.0,0.0,4.4475,4.7795,4.9946,4.9946,4.9946,5.0005,5.012,5.0038,4.9668,4.8965,4.7704,4.6271,4.4704,4.1304,0.0,0.0,0.0,0.0,0.0,0.0,0.0,0.0,0.0,0.0,0.0,0.0,0.0,0.0,0.0,0.0,0.0,0.0,0.0,0.0,0.0,0.0,0.0,0.0,0.0,0.0,0.0,0.0,0.0,3.0084,3.3032,3.4049,3.408,3.3596,0.0,0.0,0.0,0.0,0.0,0.0,0.0,0.0,0.0,4.5334,4.7384,4.9215,5.086,5.2787,5.401,5.4544,5.6271,5.7134,5.7208,5.7829,5.8108,5.8108,5.8108,5.6764,5.4326,5.1213,4.8386,4.5851,0.0,0.0,0.0,0.0,4.3941,4.4584,4.7004,4.7309,4.6438,4.5368,0.0,0.0,0.0,0.0,0.0,0.0,0.0,4.46,4.6231,4.9356,5.223,5.2826,5.2974,5.2897,5.2638,5.015,4.6792,0.0,4.1793,4.0306,3.6364,0.0,0.0,0.0,0.0,4.4742,4.6803,4.9129,5.058,5.058,5.0163,4.992,4.9992,4.9992,4.9866,4.9569,4.8719,4.7957,4.7285,4.4045,4.1321,0.0,0.0,0.0,0.0,0.0,0.0,0.0,0.0,0.0,0.0,0.0,0.0,0.0,0.0,0.0,0.0,0.0,0.0,0.0,0.0,0.0,0.0,0.0,0.0,0.0,0.0,0.0,0.0,3.2884,3.5415,3.6446,3.745,3.7359,0.0,0.0,0.0,0.0,0.0,0.0,4.3461,4.5682,4.7902,5.0105,5.1573,5.3023,5.4418,5.5023,5.5923,5.7116,5.7396,5.7862,5.8458,5.875,5.889,5.889,5.889,5.8517,5.7714,5.4894,5.2621,5.0731,4.9447,4.844,4.7847,4.9311,4.998,5.0485,5.2953,5.3411,5.2635,5.095,4.9065,4.693,4.407,0.0,0.0,0.0,0.0,4.7791,5.0147,5.1977,5.3524,5.4746,5.5024,5.4937,5.454,5.3982,5.221,0.0,4.6734,4.523,4.0525,0.0,0.0,0.0,0.0,4.7288,4.8752,5.0248,5.1183,5.1183,5.052,5.0123,5.0146,4.9957,4.9871,4.9912,4.9292,4.899,4.9074,4.6281,4.3999,4.2438,0.0,0.0,0.0,0.0,0.0,0.0,0.0,0.0,0.0,0.0,0.0,0.0,0.0,0.0,0.0,0.0,0.0,0.0,0.0,0.0,0.0,0.0,0.0,0.0,0.0,0.0,0.0,0.0,0.0,4.0508,4.1515,0.0,0.0,0.0,0.0,4.289,4.5259,4.7719,5.0178,5.1885,5.3537,5.517,5.6069,5.6914,5.774,5.7795,5.785,5.7941,5.7964,5.7987,5.8042,5.8047,5.8047,5.8047,5.8047,5.8029,5.789,5.6568,5.5039,5.3384,5.2235,5.1283,5.0695,5.1542,5.233,5.312,5.4035,5.4329,5.4402,5.5027,5.365,5.1667,5.1465,5.0326,0.0,0.0,5.1536,5.3025,5.3922,5.4788,5.5449,5.5389,5.5367,5.5326,5.5199,5.5122,5.4084,0.0,5.005,4.9419,4.7404,0.0,4.7183,4.7146,4.796,4.8895,4.9729,5.0745,5.1373,5.1373,5.0956,5.071,5.0847,5.016,4.9759,4.9898,4.9855,4.9836,4.9836,4.8149,4.6493,4.4958,4.0762,0.0,0.0,0.0,0.0,0.0,0.0,0.0,0.0,0.0,0.0,0.0,0.0,0.0,0.0,0.0,0.0,0.0,0.0,0.0,0.0,0.0,0.0,0.0,0.0,0.0,0.0,0.0,0.0,4.3956,4.5847,0.0,4.5424,4.6067,4.7021,4.8122,4.9958,5.1825,5.3668,5.4888,5.597,5.6983,5.7294,5.7587,5.7862,5.7862,5.7862,5.7862,5.7973,5.795,5.7862,5.7862,5.7815,5.7745,5.7745,5.7745,5.7708,5.729,5.686,5.6436,5.6026,5.5684,5.5464,5.5757,5.6033,5.6326,5.662,5.6381,5.5904,5.5666,5.4961,5.4202,5.4286,5.3861,5.3393,5.3686,5.4181,5.4781,5.5496,5.5894,5.6241,5.6687,5.6432,5.6025,5.5978,5.5577,5.4825,5.3567,5.2573,5.1402,4.9821,4.9564,4.927,4.8327,4.9751,5.1063,5.1341,5.1694,5.1917,5.1917,5.1287,5.0691,5.0223,4.9924,4.9325,4.8343,4.845,4.8363,4.7932,4.6952,4.6234,4.5828,4.2802,3.9193,0.0,0.0,0.0,0.0,0.0,0.0,0.0,0.0,0.0,0.0,0.0,0.0,0.0,0.0,0.0,0.0,0.0,0.0,0.0,0.0,0.0,0.0,0.0,0.0,0.0,4.1607,4.4911,4.6526,4.9132,5.0362,4.926,5.0398,5.1536,5.2281,5.3601,5.4854,5.6081,5.6736,5.7285,5.7726,5.7721,5.7721,5.7721,5.7995,5.8141,5.8141,5.8511,5.8615,5.8543,5.8543,5.8495,5.8422,5.8422,5.8257,5.8002,5.8002,5.7953,5.7881,5.7881,5.7881,5.7881,5.7881,5.7881,5.7862,5.7927,5.7602,5.7116,5.652,5.6269,5.6223,5.6246,5.62,5.6131,5.6131,5.6131,5.6259,5.6695,5.6817,5.6921,5.7425,5.7128,5.6703,5.6673,5.6237,5.5849,5.5777,5.454,5.3144,5.1857,5.1685,5.1292,5.0041,5.1257,5.2286,5.2286,5.239,5.2471,5.2471,5.1833,5.1079,5.0267,4.9695,4.8938,4.7866,4.7468,4.7173,4.7005,4.5906,4.5377,4.5563,4.3012,4.0332,3.7566,0.0,0.0,0.0,0.0,0.0,0.0,0.0,0.0,0.0,0.0,0.0,0.0,0.0,0.0,0.0,0.0,0.0,0.0,0.0,0.0,0.0,0.0,0.0,4.1425,4.4103,4.6728,4.8343,5.1351,5.2708,5.1149,5.3151,5.4778,5.5414,5.62,5.6917,5.7601,5.7638,5.7656,5.7674,5.7674,5.7674,5.7674,5.8434,5.8816,5.8835,5.9618,6.0001,6.0001,6.0001,6.0001,6.0001,6.0001,5.9564,5.8816,5.8816,5.8342,5.7619,5.7601,5.7601,5.7601,5.7601,5.7601,5.7625,5.7745,5.7881,5.7973,5.7857,5.7792,5.7768,5.7649,5.7601,5.7601,5.7601,5.7601,5.7601,5.7601,5.7601,5.7534,5.7412,5.7388,5.7363,5.7232,5.7188,5.7188,5.7188,5.6055,5.4796,5.3916,5.3729,5.344,5.2643,5.2516,0.0,5.2498,5.2779,5.2999,5.2999,5.252,5.1872,5.1042,4.9528,4.8606,4.8495,4.7036,4.6518,4.7275,4.5252,4.4203,4.4327,4.1486,4.0038,4.0134,0.0,0.0,0.0,0.0,0.0,0.0,0.0,0.0,0.0,0.0,0.0,0.0,0.0,0.0,0.0,0.0,0.0,0.0,0.0,0.0,0.0,4.2577,4.5734,4.625,4.9132,5.1752,5.3283,5.4847,5.5801,5.5747,5.6507,5.7006,5.6998,5.7288,5.7715,5.8274,5.8427,5.87,5.9183,5.9201,5.9201,5.9201,5.9419,5.9547,5.9529,5.9841,5.995,5.9856,5.9856,5.9797,5.9719,5.9719,5.9574,5.9375,5.9375,5.8903,5.813,5.7747,5.7601,5.7601,5.7601,5.7601,5.7601,5.7649,5.7673,5.7697,5.7673,5.7601,5.7528,5.7577,5.7528,5.7437,5.7437,5.7437,5.7412,5.7356,5.7307,5.7289,5.7264,5.7239,5.7239,5.7206,5.7188,5.7188,5.7188,5.6869,5.6332,5.5529,5.4436,5.3621,5.3403,5.2878,0.0,5.2498,5.2572,5.264,5.264,5.2508,5.1865,5.0484,4.9934,4.8698,4.6348,4.5974,4.5682,4.5315,4.4898,4.4822,4.5159,4.3193,4.1713,0.0,0.0,0.0,0.0,0.0,0.0,0.0,0.0,0.0,0.0,0.0,0.0,0.0,0.0,0.0,0.0,0.0,0.0,0.0,0.0,0.0,0.0,4.6323,4.9555,5.0728,5.2698,5.4436,5.5481,5.6515,5.7298,5.766,5.7768,5.7745,5.7528,5.7911,5.8263,5.8493,5.8907,5.9307,5.9701,5.9719,5.9719,5.9719,6.0046,6.0209,6.0209,6.0633,6.0796,6.0717,6.0717,6.0664,6.0629,6.0629,6.043,6.0104,6.0104,5.9633,5.8836,0.0,0.0,0.0,0.0,5.748,5.7528,5.7528,5.7553,5.7601,5.7534,5.7461,5.7388,5.7431,5.7363,5.7332,5.7332,5.7332,5.7289,5.7213,5.7188,5.7188,5.7188,5.7188,5.7188,5.7188,5.7188,5.7188,5.7188,5.7188,0.0,5.6573,5.5468,5.4562,5.4255,5.3512,5.3005,5.3005,5.2715,5.2498,5.2498,5.2498,5.1973,5.0728,4.9981,0.0,0.0,0.0,4.522,4.4529,4.4636,0.0,0.0,0.0,0.0,0.0,0.0,0.0,0.0,4.5974,4.6369,0.0,0.0,0.0,0.0,0.0,0.0,0.0,0.0,0.0,0.0,0.0,0.0,0.0,0.0,0.0,0.0,4.9923,5.2926,5.425,5.4886,5.5402,5.5926,5.6817,5.7468,5.7721,5.7607,5.7515,5.7508,5.8203,5.8616,5.8551,5.9291,0.0,0.0,0.0,5.9815,5.9762,6.0521,6.0883,6.0829,6.1607,6.1996,6.1996,6.1996,6.1996,6.1996,6.1996,6.158,6.0955,6.0955,6.0466,5.9651,5.8746,5.7967,5.7315,5.7224,5.7282,5.7381,5.7381,0.0,0.0,5.7431,5.7381,5.7356,5.7257,5.7188,5.7188,5.7188,5.7188,5.7188,5.7188,5.7188,5.7188,5.7188,5.7188,5.7188,5.7188,5.7188,5.7188,5.7188,5.7188,5.7188,5.7188,5.6518,5.5776,5.5124,5.4345,5.3802,5.3711,5.3078,5.2589,5.2498,0.0,0.0,5.1357,4.9999,4.9072,4.8909,4.6902,4.5481,4.5021,4.5075,4.559,4.6579,4.6707,4.845,5.1787,5.2044,5.3239,5.5195,4.9886,4.9929,0.0,0.0,0.0,0.0,0.0,0.0,0.0,0.0,0.0,0.0,0.0,0.0,0.0,0.0,0.0,4.8622,5.1263,5.3183,5.3963,5.4809,5.5608,5.6313,5.6214,5.6394,5.722,5.7155,5.7351,5.8166,5.8538,5.8984,5.9488,6.0196,6.0602,6.0733,6.1242,6.1269,6.0744,6.1414,6.1504,6.0977,6.1666,0.0,6.1996,6.1996,6.1996,6.1996,6.1996,6.1906,6.1761,6.1761,6.1272,6.043,5.8981,5.8293,5.8094,5.7442,5.7232,5.7239,5.7239,5.7257,5.7264,5.7257,5.7239,5.7213,5.7206,5.7188,0.0,5.7188,5.7188,5.7188,5.7188,5.7188,5.7188,5.7188,5.7188,5.7188,5.7188,5.7188,5.7188,5.7188,5.7188,5.7188,5.7188,5.6518,5.5939,5.5812,5.5142,5.4436,5.3784,5.3566,5.3222,5.257,5.2498,5.2172,5.1357,5.0995,5.0289,4.8981,4.8456,4.8173,4.8052,4.8672,4.9219,4.9633,5.0538,5.1472,5.2436,5.4047,5.5488,5.6676,5.5103,5.4991,0.0,0.0,0.0,0.0,0.0,0.0,0.0,0.0,0.0,0.0,0.0,4.0517,4.3537,0.0,4.838,5.0714,5.2362,5.3438,5.3731,5.4158,5.4769,5.5601,5.5594,5.5748,5.6295,5.6542,5.6905,5.7397,5.8283,5.894,5.9287,6.0007,6.0428,6.0516,6.0807,6.0837,6.0498,6.0837,6.0837,6.0498,6.0837,6.1004,6.1004,6.1004,6.1004,6.1004,6.1004,6.1004,6.1034,6.1372,6.1253,6.0814,5.9961,5.9361,5.8909,5.8094,5.7804,5.7732,5.7333,5.7188,5.7188,5.7188,5.7188,5.7188,5.7188,5.7188,5.7188,5.7188,5.7188,5.7188,5.7188,5.7188,5.7188,5.7188,5.7188,5.7188,5.7188,5.7188,5.7188,5.7188,5.7188,5.7188,5.7188,5.6862,5.6591,5.6591,5.5939,5.5305,5.4888,5.4182,5.3548,5.3132,5.2733,5.2335,5.1919,5.152,5.0778,4.9582,4.9492,4.9691,5.009,5.0488,5.1157,5.209,5.2652,5.3497,5.4603,5.5619,5.6777,5.8086,5.7827,5.7905,0.0,0.0,0.0,0.0,0.0,0.0,0.0,3.6544,3.7586,4.092,4.2877,4.4947,4.812,4.9831,5.1157,5.235,5.3161,5.3634,5.3534,5.3501,5.3767,5.4537,5.4861,5.5159,5.5443,5.5994,5.6431,5.6706,5.802,5.88,5.88,5.9569,5.9934,5.9806,5.9934,5.9934,5.9774,5.9934,5.9934,5.9806,5.9934,5.9998,5.9998,5.9998,5.9998,5.9998,5.9998,5.9998,6.003,6.0577,6.0819,6.0778,6.0701,6.024,5.9583,5.8903,5.8528,5.8311,5.7659,5.7333,5.7188,5.7188,5.7188,5.7188,5.7188,5.7188,5.7188,5.7188,5.7188,5.7163,5.7061,5.7036,5.7036,5.7036,5.7036,5.7061,5.7163,5.7188,5.7188,5.7188,5.7188,5.7188,5.7188,5.7188,5.7188,5.7188,5.6645,5.6174,5.6011,5.4925,5.4092,5.3947,5.3349,5.2969,5.2969,5.2371,5.1719,5.1067,5.1013,5.1303,5.1973,5.1991,5.2679,5.411,5.4217,5.5119,5.6845,5.6896,5.7614,5.8928,5.8928,5.929,3.1964,3.2634,3.4135,3.7228,3.7126,3.8234,0.0,4.5199,4.4302,4.8059,4.9073,4.9591,5.0642,5.1537,5.2383,5.323,5.3433,5.3534,5.3501,5.3501,5.3534,5.3651,5.3685,5.4158,5.5296,5.5639,5.63,5.7469,5.839,5.8907,5.8907,5.9591,5.9709,5.9028,5.9676,5.9709,5.9028,5.9659,5.9676,5.9028,5.9709,5.9998,5.9998,5.9998,5.9998,5.9998,5.9998,5.9998,6.0016,6.0062,6.0093,6.0125,6.01,6.0043,5.992,5.9573,5.9017,5.8383,5.8293,5.7804,5.7188,5.7188,5.7188,5.7188,5.7188,5.7188,5.7188,5.7188,5.7188,5.7087,5.6528,5.6393,5.6393,5.6393,5.6393,5.6555,5.7087,5.7188,5.7188,5.7188,5.7188,5.7188,5.7188,5.7188,5.7188,5.7188,5.7116,5.6808,5.6084,5.5848,5.5486,5.4852,5.4689,5.4635,5.4635,5.4562,5.4472,5.4381,5.4363,5.4399,5.449,5.4508,5.4888,5.5721,5.6101,5.6726,5.7664,5.7949,5.8227,5.8388,5.8388,5.8947,3.7147,3.8093,3.9171,4.1452,4.255,4.4017,4.7675,4.7734,4.7722,5.0178,5.1068,5.1623,5.2401,5.279,5.3112,5.345,5.3501,5.3501,5.3501,5.3501,5.3331,5.2858,5.3213,5.3718,5.4237,5.5145,5.5926,5.6487,5.762,5.8334,5.8334,5.8598,5.8633,5.8334,5.8633,5.8633,5.8334,5.8633,5.8633,5.8334,5.8633,5.8772,5.8772,5.8772,5.8772,5.8772,5.8772,5.8772,5.8806,5.9214,5.9363,5.9396,5.9838,5.9998,5.9939,5.9336,5.891,5.8483,5.7605,5.7071,5.6715,5.6298,5.6156,5.6156,5.6156,5.6156,5.6211,5.6582,5.6402,5.6266,5.6706,5.6294,5.5848,5.6229,5.6311,5.6284,5.6184,5.6447,5.6582,5.6211,5.6156,5.6156,5.6156,5.6156,5.6266,5.6608,5.6984,5.708,5.6736,5.6283,5.5721,5.4979,5.4907,5.4907,5.4907,5.4907,5.4907,5.4907,5.4907,5.5088,5.5522,5.554,5.5903,5.6681,5.6854,5.711,5.7437,5.7589,5.7779,5.8006,5.8006,5.8348,4.0091,4.1576,4.3071,4.4722,4.6844,4.8622,4.912,4.9743,5.049,5.1605,5.2266,5.2807,5.3399,5.3501,5.3501,5.3501,5.3501,5.3501,5.3501,5.3501,5.3281,5.2706,5.3145,5.3501,5.3501,5.4651,5.5497,5.5664,5.6884,5.7679,5.7881,5.7881,5.7881,5.7881,5.7881,5.7881,5.7881,5.7881,5.7881,5.7881,5.7881,5.7881,5.7881,5.7881,5.7881,5.7881,5.7881,5.7881,5.7954,5.8423,5.8599,5.8685,5.9214,5.9414,5.9361,5.8789,5.8636,5.8622,5.7513,5.6846,5.642,5.5876,5.556,5.5385,5.5385,5.5385,5.5473,5.5932,5.5733,5.556,5.6248,5.5784,5.5219,5.5658,5.5773,5.5716,5.5443,5.5733,5.5904,5.5473,5.5385,5.5385,5.5385,5.5385,5.5531,5.6007,5.6555,5.701,5.7163,5.6681,5.612,5.5595,5.554,5.554,5.554,5.554,5.554,5.554,5.554,5.5776,5.6301,5.6319,5.6609,5.7188,5.7188,5.7188,5.7188,5.7188,5.7356,5.7649,5.7649,5.7774,3.8937,4.1007,4.4136,4.6221,4.8626,5.0804,5.1915,5.2633,5.3141,5.3381,5.345,5.3467,5.3501,5.3501,5.3501,5.3501,5.3501,5.3501,5.3501,5.3501,5.3501,5.3467,5.3501,5.3501,5.3501,5.4194,5.4921,5.5666,5.641,5.7154,5.7848,5.7881,5.7881,5.7881,5.7881,5.7881,5.7881,5.7881,5.7881,5.7881,5.7881,5.7881,5.7881,5.7881,5.7881,5.7881,5.7881,5.7881,5.7881,5.7918,5.7918,5.7918,5.7954,5.7954,5.7954,5.7937,5.829,5.878,5.8759,5.7759,5.6495,5.646,5.5981,5.5385,5.5385,5.5385,5.5385,5.5414,5.5414,5.5266,5.4624,5.4454,5.4422,5.4454,5.4454,5.4641,5.5266,5.5414,5.5414,5.5385,5.5385,5.5385,5.5385,5.5385,5.5402,5.5414,5.5932,5.6528,5.7112,5.717,5.7152,5.7134,5.7134,5.7134,5.7134,5.7134,5.7134,5.7134,5.7134,5.7134,5.7152,5.7152,5.717,5.7188,5.7188,5.7188,5.7188,5.7188,5.7206,5.7213,5.7213,5.7213,4.1881,4.4113,4.6611,4.8523,5.0379,5.1967,5.2907,5.3244,5.3258,5.279,5.2317,5.1826,5.1336,5.1234,5.1403,5.1911,5.2384,5.2892,5.3433,5.3501,5.3298,5.2773,5.3179,5.3298,5.2756,5.3839,5.4905,5.5649,5.6393,5.712,5.7848,5.7881,5.7881,5.7881,5.7881,5.7881,5.7881,5.7881,5.8152,5.8643,5.9133,5.9353,5.9353,5.9353,5.9099,5.8626,5.8626,5.8355,5.7881,5.7881,5.7881,5.7881,5.7881,5.7881,5.7881,5.7881,5.802,5.8135,5.7638,5.7141,5.6541,5.5548,5.5051,5.476,5.428,5.4126,5.4237,5.4627,5.4457,5.4269,5.4905,5.4425,5.3881,5.4296,5.4391,5.4345,5.4173,5.4457,5.4627,5.4205,5.4126,5.4126,5.4126,5.4126,5.4411,5.5231,5.5887,5.6501,5.7112,5.7188,5.7188,5.7188,5.7188,5.7188,5.7188,5.7188,5.7188,5.7188,5.7188,5.7188,5.7188,5.7188,5.7188,5.7188,5.7188,5.7188,5.7188,5.7188,5.7188,5.7188,5.7188,5.7188,4.4456,4.6492,4.8443,5.0415,5.1809,5.2858,5.3382,5.3281,5.2773,5.1725,5.093,5.0118,4.9103,4.8917,4.9323,5.0608,5.12,5.1978,5.3315,5.3501,5.3315,5.279,5.3416,5.3687,5.3162,5.4262,5.5192,5.5647,5.6393,5.712,5.7848,5.7881,5.8017,5.8271,5.8287,5.8423,5.8676,5.8676,5.8913,5.9404,5.9877,6.0097,6.0097,6.0097,5.9844,5.9387,5.9116,5.8744,5.8271,5.8,5.7881,5.7881,5.7881,5.7881,5.7881,5.7881,5.7881,5.7814,5.7357,5.7019,5.6647,5.5683,5.5023,5.4499,5.4042,5.3704,5.3584,5.3979,5.3816,5.3685,5.4506,5.4126,5.3584,5.3979,5.4091,5.3979,5.3584,5.3799,5.3979,5.3584,5.3501,5.3501,5.3501,5.3501,5.3849,5.4822,5.5349,5.5981,5.7043,5.7188,5.7188,5.7188,5.7188,5.7188,5.7188,5.7188,5.7188,5.7188,5.7188,5.7188,5.7188,5.7188,5.7188,5.7188,5.7188,5.7188,5.7188,5.7188,5.7188,5.7188,5.7188,5.7188,4.6503,4.8037,4.9678,5.1826,5.2942,5.3501,5.345,5.279,5.1758,5.0236,4.9272,4.8257,4.6735,4.6583,4.7378,4.9526,5.0016,5.093,5.3179,5.3534,5.3568,5.3568,5.4211,5.4651,5.4651,5.5327,5.5784,5.5784,5.641,5.712,5.7848,5.7881,5.8237,5.8998,5.9015,5.9353,6.0097,6.0131,6.0165,6.0165,6.0199,6.0216,6.0216,6.0216,6.0199,6.0114,5.9387,5.9049,5.8947,5.8203,5.7881,5.7881,5.7881,5.7881,5.7881,5.7881,5.7881,5.7881,5.7881,5.7442,5.685,5.6816,5.5835,5.4634,5.46,5.4076,5.3501,5.3501,5.3501,5.3501,5.3501,5.3501,5.3501,5.3501,5.3501,5.3501,5.3501,5.3501,5.3501,5.3501,5.3501,5.3501,5.3501,5.3501,5.3684,5.4313,5.4391,5.5064,5.6871,5.7112,5.7112,5.7112,5.7138,5.7138,5.7138,5.7163,5.7188,5.7188,5.7188,5.7188,5.7188,5.7188,5.7188,5.7188,5.7188,5.7188,5.7188,5.7188,5.7188,5.7188,5.7188,5.7188,4.8707,5.0338,5.1742,5.2909,5.3348,5.3348,5.2739,5.1589,5.0084,4.8054,4.6143,4.4204,4.2185,4.3639,4.5546,4.6633,4.9137,5.1539,5.3264,5.3974,5.4313,5.4313,5.4972,5.5429,5.5429,5.6089,5.6528,5.6528,5.6697,5.712,5.7848,5.7881,5.8237,5.8998,5.9015,5.9353,6.0097,6.0689,6.0994,6.1011,6.1552,6.1806,6.1806,6.1806,6.1501,6.096,6.0165,5.9522,5.8947,5.8203,5.7881,5.7881,5.7881,5.7881,5.7881,5.7881,5.7881,5.7881,5.7881,5.7763,5.7526,5.6985,5.6173,5.5327,5.4769,5.4076,5.3501,5.3501,5.3501,5.3501,5.3501,5.3501,5.3501,5.3501,5.3501,5.3501,5.3501,5.3501,5.3501,5.3501,5.3501,5.3501,5.3501,5.3501,5.3684,5.4313,5.4391,5.4747,5.5716,5.5876,5.5876,5.5876,5.6239,5.6528,5.6528,5.6941,5.7188,5.7188,5.7188,5.7188,5.7188,5.7188,5.7188,5.7188,5.7188,5.7188,5.7188,5.7188,5.7188,5.7188,5.7188,5.7188,5.0541,5.1928,5.2942,5.3399,5.323,5.2604,5.1183,4.9712,4.7733,4.453,4.2574,4.0798,3.8541,4.0324,4.2692,4.4418,4.7547,5.0524,5.2672,5.3907,5.4583,5.4583,5.5547,5.619,5.619,5.685,5.7273,5.7273,5.7273,5.7594,5.8338,5.8389,5.8879,5.9979,6.0013,6.0368,6.1095,6.1552,6.1772,6.1789,6.2195,6.2381,6.2381,6.2381,6.2161,6.1721,6.0588,5.9877,5.9404,5.8338,5.7881,5.7881,5.7881,5.7881,5.7881,5.7881,5.7881,5.7881,5.7881,5.7881,5.7814,5.7408,5.6782,5.6055,5.531,5.4566,5.3923,5.3602,5.3501,5.3501,5.3501,5.3501,5.3501,5.3501,5.3501,5.3501,5.3501,5.3501,5.3501,5.3501,5.3501,5.3501,5.3501,5.3501,5.3618,5.3946,5.4011,5.4124,5.4506,5.5026,5.5385,5.5385,5.5705,5.5904,5.5904,5.6474,5.6811,5.6811,5.7061,5.7188,5.7188,5.7188,5.7188,5.7188,5.7188,5.7188,5.7188,5.7188,5.7188,5.7188,5.7188,5.7188,5.2063,5.2976,5.3484,5.3365,5.2672,5.142,4.9221,4.7259,4.4705,4.0536,3.8903,3.7584,3.5414,3.7212,3.9901,4.2675,4.5877,4.9021,5.1911,5.3704,5.4735,5.4735,5.6038,5.6951,5.6951,5.7509,5.7932,5.8034,5.8034,5.8321,5.8981,5.9099,5.981,6.1247,6.14,6.1755,6.2381,6.2381,6.2381,6.2381,6.2381,6.2381,6.2381,6.2381,6.2381,6.2313,6.0875,6.0199,5.9996,5.8609,5.7983,5.7881,5.7881,5.7881,5.7881,5.7881,5.7881,5.7881,5.7881,5.7881,5.7881,5.7881,5.7391,5.6681,5.6055,5.526,5.4465,5.3822,5.3585,5.3501,5.3501,5.3501,5.3501,5.3501,5.3501,5.3501,5.3501,5.3501,5.3501,5.3501,5.3501,5.3501,5.3501,5.3501,5.3501,5.3501,5.3501,5.3501,5.3501,5.4443,5.5164,5.5164,5.5207,5.5266,5.5266,5.5819,5.6229,5.6284,5.6785,5.7112,5.7206,5.7188,5.7188,5.7188,5.7188,5.7188,5.7188,5.7188,5.7188,5.7188,5.7315,5.7351,5.2892,5.3399,5.3348,5.2672,5.1488,4.9898,4.7682,4.4113,4.0527,3.7912,3.5757,3.388,3.2256,3.5808,3.9563,4.1305,4.5652,4.9644,5.1978,5.416,5.553,5.553,5.6816,5.7695,5.7695,5.7814,5.8152,5.8778,5.8829,5.8879,5.9015,5.959,6.0334,6.1264,6.189,6.2262,6.2381,6.2381,6.2381,6.2381,6.2381,6.2381,6.2381,6.2381,6.2381,6.233,6.1467,6.0706,6.003,5.9184,5.8457,5.7881,5.7881,5.7881,5.7881,5.7881,5.7881,5.7881,5.7881,5.7881,5.7881,5.7881,5.7391,5.6782,5.6664,5.5666,5.4566,5.4448,5.3974,5.3501,5.3501,5.3501,5.3501,5.3501,5.3501,5.3501,5.3501,5.3501,5.3501,5.3501,5.3501,5.3501,5.3501,5.3501,5.3501,5.3501,5.3501,5.3501,5.3501,5.3685,5.3833,5.3833,5.4267,5.4579,5.4579,5.5159,5.5762,5.6257,5.6393,5.6679,5.7163,5.7188,5.7188,5.7188,5.7188,5.7188,5.7188,5.7188,5.7188,5.7224,5.7876,5.8184,5.257,5.3179,5.3315,5.2503,5.0896,4.8629,4.5229,4.161,3.799,3.4573,3.2655,3.1385,3.0748,3.3905,3.7249,3.9166,4.32,4.7158,5.0168,5.252,5.438,5.5546,5.7002,5.7881,5.7881,5.8254,5.8626,5.8981,5.9759,6.0216,6.0216,6.0892,6.1467,6.1856,6.2212,6.2381,6.2381,6.2381,6.2381,6.2381,6.2381,6.2381,6.2381,6.2381,6.2381,6.2347,6.162,6.0842,6.0047,5.9319,5.8575,5.7881,5.7881,5.7881,5.7881,5.7881,5.7881,5.7881,5.7881,5.7881,5.7881,5.7881,5.7645,5.7289,5.6917,5.6038,5.5091,5.4702,5.4059,5.3501,5.3501,5.3501,5.3501,5.3501,5.3501,5.3501,5.3501,5.3501,5.3501,5.3501,5.3501,5.3501,5.3501,5.3501,5.3501,5.3501,5.3501,5.3501,5.3501,5.3501,5.3501,5.3501,5.375,5.3913,5.3913,5.4502,5.5009,5.529,5.5629,5.5961,5.6239,5.6555,5.6732,5.6732,5.7036,5.7188,5.7188,5.7188,5.7188,5.7224,5.8021,5.8402,5.2014,5.2791,5.3163,5.2251,5.0223,4.7305,4.3037,3.9361,3.574,3.1742,3.002,2.9391,2.98,3.1929,3.4566,3.7435,4.0653,4.4238,4.8396,5.0913,5.3162,5.5446,5.7002,5.7881,5.7881,5.8575,5.9082,5.9235,6.0672,6.1535,6.1535,6.2076,6.2381,6.2381,6.2381,6.2381,6.2381,6.2381,6.2381,6.2381,6.2381,6.2381,6.2381,6.2381,6.2381,6.2347,6.162,6.0842,6.0047,5.9319,5.8575,5.7881,5.7881,5.7881,5.7881,5.7881,5.7881,5.7881,5.7881,5.7881,5.7881,5.7881,5.7881,5.778,5.7205,5.6528,5.5784,5.504,5.4296,5.3704,5.3551,5.3501,5.3501,5.3501,5.3501,5.3501,5.3501,5.3501,5.3501,5.3501,5.3501,5.3501,5.3501,5.3501,5.3501,5.3501,5.3501,5.3501,5.3501,5.3501,5.3501,5.3501,5.3501,5.3501,5.3501,5.3946,5.4249,5.4391,5.4887,5.5266,5.5385,5.5978,5.6311,5.6311,5.6889,5.7188,5.7188,5.7369,5.746,5.7478,5.8456,5.8909,5.1698,5.2521,5.2671,5.1428,4.8824,4.5609,4.2031,3.7227,3.2878,3.051,2.8508,2.7576,2.8868,3.0203,3.2623,3.7155,3.9504,4.2691,4.8213,5.0947,5.3196,5.5446,5.7002,5.7881,5.7881,5.8575,5.9285,5.9945,6.1417,6.2279,6.2279,6.2347,6.2381,6.2381,6.2381,6.2381,6.2381,6.2381,6.2381,6.2381,6.2381,6.2381,6.2381,6.2381,6.2381,6.2347,6.162,6.0842,6.0047,5.9319,5.8575,5.7881,5.7881,5.7881,5.7881,5.7881,5.7881,5.7881,5.7881,5.7881,5.7881,5.7881,5.7881,5.7881,5.7814,5.7273,5.6562,5.5818,5.5074,5.4329,5.367,5.3501,5.3501,5.3501,5.3501,5.3501,5.3501,5.3501,5.3501,5.3501,5.3501,5.3501,5.3501,5.3501,5.3501,5.3501,5.3501,5.3501,5.3501,5.3501,5.3501,5.3501,5.3501,5.3501,5.3501,5.3568,5.3816,5.4359,5.4454,5.4765,5.5355,5.5978,5.6311,5.6311,5.6889,5.7188,5.7188,5.7931,5.8293,5.8329,5.9868,6.0593,4.9416,5.0743,5.1346,5.039,4.7608,4.4155,4.0591,3.5811,3.1487,2.9171,2.7127,2.6395,2.8444,2.9161,3.0826,3.511,3.6539,3.8964,4.4226,4.6498,4.9137,5.3179,5.4989,5.6427,5.7763,5.8964,6.0182,6.1383,6.2042,6.2381,6.2381,6.2381,6.2381,6.2381,6.2381,6.2381,6.2381,6.2381,6.2381,6.2381,6.2381,6.2381,6.2381,6.2381,6.2144,6.1721,6.1434,6.0605,5.9438,5.9133,5.8575,5.7881,5.7881,5.7881,5.7881,5.7881,5.7881,5.7881,5.7881,5.7881,5.7881,5.7881,5.7881,5.7881,5.7881,5.7374,5.6748,5.6444,5.5835,5.5192,5.4905,5.4499,5.4042,5.3619,5.3501,5.3501,5.3501,5.3501,5.3501,5.3501,5.3501,5.3501,5.3501,5.3501,5.3501,5.3501,5.3501,5.3501,5.3501,5.3501,5.3501,5.3501,5.3501,5.3501,5.3501,5.3501,5.3618,5.3832,5.3865,5.3996,5.4254,5.4844,5.5367,5.5733,5.6812,5.7565,5.7913,5.8728,5.9126,5.9162,6.0285,6.081,4.7214,4.8822,4.9725,4.9072,4.6195,4.2665,3.9309,3.4686,3.0469,2.8137,2.6134,2.5512,2.7849,2.7999,2.9165,3.3462,3.4446,3.6547,4.1869,4.391,4.6549,5.1099,5.2976,5.4702,5.6714,5.8643,6.0419,6.1958,6.2059,6.2161,6.2381,6.2178,6.2161,6.2381,6.2381,6.2381,6.2381,6.2381,6.2279,6.2059,6.2059,6.1941,6.1721,6.1721,6.1434,6.0943,6.0723,6.0013,5.8998,5.8778,5.8372,5.7881,5.7881,5.7881,5.7881,5.7881,5.7881,5.7881,5.7881,5.7881,5.7881,5.7881,5.7881,5.7881,5.7881,5.7526,5.707,5.6867,5.6275,5.5681,5.5681,5.5158,5.4465,5.394,5.367,5.3501,5.3501,5.3501,5.3501,5.3501,5.3501,5.3501,5.3501,5.3501,5.3501,5.3501,5.3501,5.3501,5.3501,5.3501,5.3501,5.3501,5.3501,5.3501,5.3501,5.3501,5.3501,5.3501,5.3501,5.3501,5.3501,5.4091,5.4807,5.5701,5.6887,5.79,5.8764,5.9561,5.9959,5.9977,6.0792,6.1145,4.554,4.7052,4.7884,4.7363,4.4443,4.101,3.8346,3.3813,2.9626,2.7529,2.5613,2.4932,2.6935,2.662,2.7696,3.2774,3.394,3.6353,4.2523,4.4722,4.6786,4.9763,5.142,5.2926,5.4465,5.7289,5.9658,6.1197,6.1315,6.1637,6.2347,6.1704,6.1653,6.2364,6.2381,6.2381,6.2381,6.2381,6.2026,6.1315,6.1315,6.0892,6.0114,6.0114,6.0114,6.008,5.9353,5.9032,5.8947,5.8203,5.7898,5.7881,5.7881,5.7881,5.7881,5.7881,5.7881,5.7881,5.7881,5.7881,5.7881,5.7881,5.7881,5.7881,5.7881,5.7881,5.7729,5.7002,5.6275,5.5681,5.5681,5.5158,5.4583,5.4583,5.4025,5.3501,5.3501,5.3501,5.3501,5.3501,5.3501,5.3501,5.3501,5.3501,5.3501,5.3501,5.3501,5.3501,5.3501,5.3501,5.3501,5.3501,5.3501,5.3501,5.3501,5.3501,5.3501,5.3501,5.3501,5.3501,5.3501,5.4091,5.5064,5.6455,5.7135,5.8169,5.9597,6.0412,6.0792,6.0828,6.1598,6.1978,3.9644,4.0984,4.1711,4.0259,3.8265,3.6007,3.3503,3.0594,2.7929,2.6224,2.4774,2.4496,2.6698,2.6503,2.7766,3.3211,3.4561,3.6378,4.0449,4.3723,4.6638,4.9105,5.3398,5.6511,5.7509,5.8457,5.9421,6.0419,6.0486,6.0588,6.0808,6.0605,6.0842,6.162,6.1112,6.0825,6.0825,6.0825,6.0706,6.0486,6.0486,6.0351,6.0097,6.0097,5.9827,5.9353,5.9116,5.8727,5.822,5.7983,5.7881,5.7881,5.7881,5.7881,5.7881,5.7881,5.7881,5.7881,5.7881,5.7881,5.7881,5.7881,5.7881,5.7881,5.7881,5.7881,5.7831,5.7611,5.7374,5.6968,5.597,5.5547,5.5226,5.4718,5.4414,5.4397,5.4905,5.5023,5.5023,5.5023,5.46,5.4245,5.4245,5.3822,5.3501,5.3501,5.3501,5.3501,5.3501,5.3501,5.3501,5.3501,5.3501,5.3501,5.3501,5.3501,5.3501,5.3501,5.3501,5.3501,5.3501,5.4177,5.4932,5.5799,5.7526,5.8828,5.9727,6.099,6.1616,6.1616,6.1869,6.1996,3.5004,3.6621,3.7281,3.5779,3.4258,3.2635,3.0723,2.8498,2.6504,2.5288,2.4271,2.4195,2.6108,2.6206,2.7532,3.2134,3.4005,3.6098,3.9534,4.3069,4.6418,4.9538,5.3869,5.6934,5.7695,5.8271,5.8896,5.9641,5.9691,5.981,6.008,5.9844,5.9911,6.0419,6.0216,6.0097,6.0097,6.0097,5.9962,5.9691,5.9691,5.9539,5.9268,5.9268,5.9015,5.8592,5.8592,5.8321,0.0,5.7881,5.7881,5.7881,5.7881,5.7881,5.7881,5.7881,5.7881,5.7881,5.7881,5.7881,5.7881,5.7881,5.7881,5.7881,5.7881,5.7881,5.7881,5.7881,5.7881,5.7679,5.6765,5.6139,5.5563,5.5124,5.4803,5.4718,5.5192,5.5513,5.5681,5.5681,5.5344,5.5023,5.5023,5.4634,5.4245,5.3957,5.3923,5.3805,5.3551,5.3501,5.3619,5.389,5.367,5.3619,5.389,5.367,5.3501,5.3501,5.3754,5.3923,5.3923,5.4617,5.5434,5.6341,5.7697,5.9024,6.0272,6.143,6.1996,6.1996,6.1996,6.1996,0.0,3.3308,3.3977,3.3074,3.1777,3.0439,2.9408,2.7289,0.0,2.4664,2.4022,2.4044,2.548,2.5915,2.713,3.0428,3.2934,3.5873,3.9791,4.3081,4.6659,5.0918,5.345,5.5091,5.5695,5.7051,5.8169,5.8879,5.893,5.9235,5.9911,5.9302,5.893,5.893,5.959,5.9945,5.9945,5.9945,5.9607,5.893,5.893,5.8558,5.7881,5.7881,5.7881,5.7881,5.7881,5.7881,5.7881,5.7881,5.7881,5.7881,5.7881,5.7881,5.7881,5.7881,5.7881,5.7881,5.7881,5.7881,5.7881,5.7881,5.7881,5.7881,5.7881,5.7881,5.7881,5.7881,5.7881,5.7881,5.7831,5.6765,5.5698,5.5749,5.5209,5.4702,5.4803,5.5378,5.5869,5.5869,5.5818,5.5801,5.5801,5.5715,5.548,5.4769,5.4617,5.4346,5.367,5.3534,5.3754,5.4448,5.3957,5.3856,5.4532,5.3923,5.3518,5.3568,5.4211,5.4617,5.4668,5.5395,5.6387,5.7704,5.784,5.891,6.1016,6.1636,6.195,6.1996,6.1996,6.1996,2.4551,0.0,2.7116,2.5994,2.5829,2.5759,0.0,2.492,2.4634,2.3984,2.3714,2.4313,2.6701,2.6853,2.8324,3.3517,3.6083,3.8418,4.1228,4.629,5.0693,5.3335,5.5715,5.6937,5.6458,5.7295,5.7966,5.8152,5.8152,5.822,5.8406,5.8254,5.8152,5.8152,5.8321,5.8406,5.8406,5.8406,5.8321,5.8152,5.8152,5.8068,5.7881,5.7881,5.7881,5.7881,5.7881,5.7881,5.7881,5.7881,5.7881,5.7881,5.7881,5.7881,5.7881,5.7881,5.7881,5.7881,5.7881,5.7881,5.7881,5.7881,5.7881,5.7881,5.7881,5.7881,5.7881,5.7881,5.7881,5.7763,5.7205,5.6393,5.5817,5.6427,5.5987,5.575,5.6867,5.7256,5.7374,5.7374,5.6934,5.6545,5.6545,5.6089,5.5649,5.548,5.4955,5.4532,5.4346,5.3856,5.3568,5.3737,5.411,5.4397,5.4583,5.3923,5.3737,5.4296,5.4499,5.4854,5.5429,5.6156,5.6684,5.7014,5.8101,5.9434,6.1016,6.1169,6.1494,6.1996,6.1996,6.1996,2.1388,2.358,2.5669,2.4621,2.4985,2.5511,2.5085,2.4537,2.4044,2.367,2.3849,2.4702,2.6761,2.746,2.9124,3.344,3.6184,3.9298,4.3595,4.8518,5.2196,5.3683,5.5887,5.7126,5.6652,5.7368,5.7881,5.7881,5.7881,5.7881,5.7881,5.7881,5.7881,5.7881,5.7881,5.7881,5.7881,5.7881,5.7881,5.7881,5.7881,5.7881,5.7881,5.7881,5.7881,5.7881,5.7881,5.7881,5.7881,5.7881,5.7881,5.7881,5.7881,5.7881,5.7881,5.7881,5.7881,5.7881,5.7881,5.7881,5.7881,5.7881,5.7881,5.7881,5.7881,5.7881,5.7881,5.7881,5.7881,5.7797,5.7408,5.6765,5.6325,5.6714,5.6511,5.6427,5.7222,5.7645,5.7881,5.7881,5.7577,5.7306,5.7306,5.6968,5.6596,5.6275,5.5581,5.4972,5.4634,5.3957,5.3636,5.3974,5.4059,5.4363,5.5057,5.4431,5.4313,5.5057,5.5412,5.5784,5.619,5.6917,5.7306,5.7306,5.8358,5.9445,6.0529,6.0867,6.1343,6.1996,6.1996,6.2195,2.0716,2.3812,2.6705,2.547,2.6151,2.6998,2.6549,2.5121,2.3924,2.4029,2.45,2.5397,2.7051,2.8456,3.024,3.2946,3.6184,4.034,4.6207,4.9971,5.232,5.293,5.5126,5.6536,5.6403,5.7331,5.7881,5.7881,5.7881,5.7881,5.7881,5.7881,5.7881,5.7881,5.7881,5.7881,5.7881,5.7881,5.7881,5.7881,5.7881,5.7881,5.7881,5.7881,5.7881,5.7881,5.7881,5.7881,5.7881,5.7881,5.7881,5.7881,5.7881,5.7881,5.7881,5.7881,5.7881,5.7881,5.7881,5.7881,5.7881,5.7881,5.7881,5.7881,5.7881,5.7881,5.7881,5.7881,5.7881,5.7881,5.7881,5.734,5.6833,5.6934,5.6884,5.6833,5.6934,5.7459,5.7881,5.7881,5.7881,5.7881,5.7881,5.7881,5.7679,5.7053,5.6342,5.5649,5.5006,5.4296,5.4025,5.4532,5.4143,5.4346,5.558,5.5226,5.5243,5.6004,5.6528,5.685,5.6968,5.756,5.7881,5.7881,5.8458,5.9113,5.9838,6.0406,6.1075,6.1868,6.1976,6.2466,2.2566,2.5236,2.6781,2.3863,2.4935,2.6534,2.5884,2.551,2.545,2.6019,2.6213,2.7215,3.0195,3.139,3.3156,3.6881,4.11,4.4961,4.8038,5.0589,5.2087,5.2089,5.4772,5.6325,5.5579,5.6958,5.7881,5.7881,5.7881,5.7881,5.7881,5.7881,5.7881,5.7881,5.7881,5.7881,5.7881,5.7881,5.7881,5.7881,5.7881,5.7881,5.7881,5.7881,5.7881,5.7881,5.7881,5.7881,5.7881,5.7881,5.7881,5.7881,5.7881,5.7881,5.7881,5.7881,5.7881,5.7881,5.7881,5.7881,5.7881,5.7881,5.7881,5.7881,5.7881,5.7881,5.7881,5.7881,5.7881,5.7881,5.7881,5.734,5.6968,5.7577,5.7256,5.6968,5.7594,5.7814,5.7881,5.7881,5.7881,5.7881,5.7881,5.7881,5.7848,5.7746,5.7103,5.6596,5.6478,5.5835,5.5175,5.4651,5.5057,5.5463,5.5664,5.6173,5.6782,5.7509,5.707,5.707,5.7695,5.7831,5.7881,5.7881,5.801,5.8388,5.9062,5.9179,5.9899,6.1151,6.186,6.2536,2.1257,2.3939,2.6153,2.4642,2.7051,2.9714,2.9415,2.8517,2.7844,2.8169,2.8472,2.94,3.1615,3.32,3.5582,3.9989,4.3457,4.6158,4.7774,4.9627,5.0794,5.0741,5.3472,5.501,5.4159,5.6404,5.7681,5.7218,5.7645,5.7881,5.7881,5.7881,5.7881,5.7881,5.7881,5.7881,5.7881,5.7881,5.7881,5.7881,5.7881,5.7881,5.7881,5.7881,5.7881,5.7881,5.7881,5.7881,5.7881,5.7881,5.7881,5.7881,5.7881,5.7881,5.7881,5.7881,5.7881,5.7881,5.7881,5.7881,5.7881,5.7881,5.7881,5.7881,5.7881,5.7881,5.7881,5.7881,5.7881,5.7881,5.7881,5.7645,5.7476,5.7814,5.7628,5.7476,5.7814,5.7881,5.7881,5.7881,5.7881,5.7881,5.7881,5.756,5.7442,5.7831,5.6934,5.6359,5.6748,5.6173,5.5581,5.5243,5.5513,5.5869,5.6275,5.6613,5.7103,5.7831,5.7577,5.7543,5.7881,5.7881,5.7881,5.7881,5.7881,5.8244,5.8892,5.8892,5.9638,6.106,6.1414,6.2426,2.0516,2.3056,2.5749,2.6378,2.9205,3.1988,3.2602,3.1345,3.0268,3.1031,3.1569,3.2273,3.344,3.5549,3.8432,4.2491,4.5021,4.6778,4.7635,4.8855,4.9766,4.9877,5.2191,5.3479,5.2837,5.5236,5.6692,5.6387,5.6988,5.7513,5.7881,5.7881,5.7881,5.7881,5.7881,5.7881,5.7881,5.7881,5.7881,5.7881,5.7881,5.7881,5.7881,5.7881,5.7881,5.7881,5.7881,5.7881,5.7881,5.7881,5.7881,5.7881,5.7881,5.7881,5.7881,5.7881,5.7881,5.7881,5.7881,5.7881,5.7881,5.7881,5.7881,5.7881,5.7881,5.7881,5.7881,5.7881,5.7881,5.7881,5.7881,5.7881,5.7881,5.7881,5.7881,5.7881,5.7881,5.7881,5.7881,5.7881,5.7881,5.7881,5.7881,5.7425,5.7256,5.7797,5.6934,5.6427,5.6985,5.6562,5.6156,5.5987,5.597,5.6207,5.6748,5.6968,5.7289,5.7848,5.7881,5.7881,5.7881,5.7881,5.7881,5.7881,5.7881,5.8137,5.8685,5.8685,5.9339,6.06,6.0967,6.2136,2.2673,2.4448,2.6198,2.8682,2.9577,3.0432,3.2871,3.2377,3.2243,3.5355,3.6028,3.6267,3.6941,3.9694,4.2503,4.4278,4.6399,4.8149,4.8932,4.9424,4.9919,5.0469,5.1509,5.2156,5.2074,5.3005,5.4197,5.5554,5.5733,5.6371,5.7811,5.7881,5.7881,5.7881,5.7881,5.7881,5.7881,5.7881,5.7881,5.7881,5.7881,5.7881,5.7881,5.7881,5.7881,5.7881,5.7881,5.7881,5.7881,5.7881,5.7881,5.7881,5.7881,5.7881,5.7881,5.7881,5.7881,5.7881,5.7881,5.7881,5.7881,5.7881,5.7881,5.7881,5.7881,5.7881,5.7881,5.7881,5.7881,5.7881,5.7881,5.7881,5.7881,5.7881,5.7881,5.7881,5.7881,5.7881,5.7881,5.7881,5.7881,5.7881,5.7881,5.7848,5.7831,5.7881,5.7797,5.7746,5.7797,5.7763,5.7476,5.6799,5.6731,5.6748,5.6799,5.7425,5.7831,5.7881,5.7881,5.7881,5.7881,5.7881,5.7881,5.7881,5.7881,5.7918,5.7991,5.7991,5.8368,5.9081,6.0549,6.1658,2.0921,2.334,2.6048,2.7899,2.9579,3.1495,3.4143,3.5295,3.6387,3.8482,3.9245,3.9604,3.9843,4.1908,4.3788,4.4378,4.6328,4.8034,4.8887,4.8793,4.8978,4.9868,5.0677,5.0963,5.0611,5.2237,5.3539,5.4048,5.4616,5.5399,5.6476,5.6968,5.7222,5.7222,5.7645,5.7881,5.7881,5.7881,5.7881,5.7881,5.7881,5.7881,5.7881,5.7881,5.7881,5.7881,5.7881,5.7881,5.7881,5.7881,5.7881,5.7881,5.7881,5.7881,5.7881,5.7881,5.7881,5.7881,5.7881,5.7881,5.7881,5.7881,5.7881,5.7881,5.7881,5.7881,5.7881,5.7881,5.7881,5.7881,5.7881,5.7881,5.7881,5.7881,5.7881,5.7881,5.7881,5.7881,5.7881,5.7881,5.7881,5.7881,5.7881,5.7509,5.7357,5.7814,5.7509,5.7374,5.7831,5.7881,5.778,5.7509,5.7476,5.7476,5.7476,5.7729,5.7881,5.7881,5.7881,5.7881,5.7881,5.7881,5.7881,5.7881,5.7881,5.7881,5.7881,5.7881,5.8264,5.8996,6.0018,6.1191,2.0651,2.3242,2.6243,2.7585,2.9879,3.2572,3.5444,3.7285,3.9005,4.119,4.1669,4.1856,4.2222,4.324,4.4137,4.4556,4.6281,4.7976,4.9035,4.8506,4.8453,4.9661,4.9756,4.9641,4.9301,5.0747,5.206,5.2812,5.3444,5.4323,5.5629,5.619,5.6461,5.6461,5.6934,5.7205,5.7205,5.7205,5.7205,5.7205,5.7205,5.7442,5.7881,5.7881,5.7881,5.7881,5.7881,5.7881,5.7881,5.7881,5.7881,5.7881,5.7881,5.7881,5.7881,5.7881,5.7881,5.7881,5.7881,5.7881,5.7881,5.7881,5.7881,5.7881,5.7881,5.7881,5.7881,5.7881,5.7881,5.7881,5.7881,5.7881,5.7881,5.7881,5.7881,5.7881,5.7881,5.7881,5.7881,5.7881,5.7881,5.7881,5.7881,5.7476,5.7306,5.7814,5.7459,5.7323,5.7831,5.7881,5.7881,5.7881,5.7881,5.7881,5.7881,5.7881,5.7881,5.7881,5.7881,5.7881,5.7881,5.7881,5.7881,5.7881,5.7881,5.7881,5.7881,5.7881,5.8152,5.8676,5.9421,6.0432,2.2688,2.462,2.6931,2.8278,3.0612,3.3379,3.6686,3.7943,3.9559,4.3524,4.3299,4.283,4.4092,4.3753,4.3738,4.5095,4.6581,4.8088,4.9567,4.878,4.8521,5.0042,4.8893,4.8091,4.8286,4.8286,4.9387,5.1959,5.2177,5.3222,5.5543,5.5664,5.5664,5.5664,5.5681,5.5681,5.5681,5.5681,5.5681,5.5681,5.5681,5.6478,5.7881,5.7881,5.7881,5.7881,5.7881,5.7881,5.7881,5.7881,5.7881,5.7881,5.7881,5.7881,5.7881,5.7881,5.7881,5.7881,5.7881,5.7881,5.7881,5.7881,5.7881,5.7881,5.7881,5.7881,5.7881,5.7881,5.7881,5.7881,5.7865,5.7865,5.7865,5.7881,5.7881,5.7881,5.7881,5.7881,5.7881,5.7881,5.7881,5.7881,5.7881,5.7881,5.7881,5.7881,5.7881,5.7881,5.7881,5.7881,5.7881,5.7881,5.7881,5.7881,5.7881,5.7881,5.7881,5.7881,5.7881,5.7881,5.7881,5.7881,5.7881,5.7881,5.7881,5.7881,5.7881,5.7881,5.7881,5.7898,5.866,5.9404,2.2134,2.4926,2.8323,2.9609,3.2976,3.6582,3.8975,4.0382,4.2216,4.5693,4.5738,4.5125,4.502,4.5244,4.5409,4.5304,4.6469,4.7934,4.9567,4.849,4.8202,5.0002,4.8713,4.7794,4.8049,4.8218,4.8872,5.0185,5.0469,5.1147,5.2413,5.349,5.4078,5.4078,5.5131,5.5681,5.5681,5.5681,5.5681,5.5681,5.5681,5.6207,5.712,5.712,5.7408,5.7881,5.7881,5.7881,5.7881,5.7881,5.7881,5.7881,5.7881,5.7881,5.7831,5.7306,5.712,5.712,5.712,5.712,5.7205,5.7729,5.7881,5.7881,5.7881,5.7881,5.778,5.7273,5.712,5.7002,5.6494,5.6359,5.6613,5.7645,5.7881,5.7881,5.7881,5.7881,5.7881,5.7881,5.7881,5.7881,5.7881,5.7881,5.7881,5.7881,5.7881,5.7881,5.7881,5.7881,5.7881,5.7881,5.7881,5.7881,5.7881,5.7881,5.7881,5.7881,5.7881,5.7881,5.7881,5.7881,5.7881,5.7881,5.7881,5.7881,5.7881,5.7881,5.7881,5.7898,5.866,5.9133,2.4253,2.6856,2.9864,3.1973,3.4786,3.7838,4.0891,4.2596,4.4167,4.6441,4.6381,4.5948,4.6067,4.5992,4.5948,4.6067,4.677,4.7892,4.9567,4.8366,4.7976,4.9813,4.8547,4.7596,4.7794,4.7964,4.8381,4.9303,4.9821,5.029,5.0789,5.2419,5.3152,5.2812,5.4132,5.4837,5.4837,5.4837,5.4837,5.4837,5.4837,5.5209,5.5936,5.6241,5.6613,5.7036,5.734,5.7289,5.7053,5.734,5.7289,5.7019,5.7019,5.7019,5.6968,5.6528,5.6376,5.6376,5.6376,5.6376,5.6444,5.6884,5.7222,5.7408,5.7103,5.7222,5.7306,5.6579,5.6376,5.6275,5.5835,5.5681,5.6004,5.7171,5.7459,5.7543,5.7831,5.7881,5.7881,5.7881,5.7881,5.7881,5.7881,5.7881,5.7881,5.7881,5.7881,5.7881,5.7881,5.7881,5.7881,5.7881,5.7881,5.7881,5.7881,5.7881,5.7881,5.7881,5.7881,5.7881,5.7881,5.7881,5.7881,5.7881,5.7881,5.7881,5.7881,5.7881,5.7881,5.7898,5.8355,5.8727,2.7649,2.9445,3.139,3.4681,3.6222,3.8063,4.2402,4.4332,4.5409,4.6082,4.5783,4.5768,4.6995,4.6262,4.5873,4.71,4.7309,4.7892,4.9567,4.8366,4.7934,4.9607,4.8324,4.7381,4.7538,4.7581,4.7976,4.8969,4.9765,5.0181,5.0181,5.1865,5.2522,5.1813,5.2784,5.3382,5.3467,5.3382,5.3348,5.3348,5.328,5.3617,5.4395,5.5225,5.5649,5.575,5.6427,5.6325,5.5732,5.6427,5.6308,5.5681,5.5681,5.5681,5.57,5.5632,5.5615,5.5615,5.5615,5.5615,5.5632,5.5664,5.6156,5.6579,5.5919,5.619,5.6562,5.5818,5.5615,5.5563,5.553,5.5513,5.57,5.6427,5.6697,5.6985,5.7645,5.7797,5.7763,5.7695,5.7746,5.7797,5.7797,5.7848,5.7865,5.7797,5.7729,5.7712,5.778,5.7797,5.7814,5.7881,5.7881,5.7881,5.7881,5.7881,5.7881,5.7881,5.7881,5.7881,5.7881,5.7881,5.7881,5.7881,5.7881,5.7881,5.7881,5.7881,5.7881,5.7881,5.7881,5.8254,2.5959,2.87,3.1959,3.4801,3.7943,4.0861,4.2895,4.3958,4.4721,4.5379,4.5828,4.6187,4.6444,4.6726,4.6965,4.7249,4.7309,4.7892,4.9567,4.8366,4.7934,4.9607,4.8324,4.7309,4.7337,4.751,4.7709,4.7949,4.8297,4.8506,4.8506,4.9503,5.0274,5.0703,5.1578,5.2418,5.3264,5.2435,5.2082,5.2241,5.1594,5.1729,5.2525,5.4137,5.5158,5.5733,5.5886,5.5869,5.5698,5.5886,5.5817,5.5681,5.5681,5.5681,5.5614,5.5057,5.4837,5.4837,5.4837,5.4837,5.4921,5.553,5.5818,5.5919,5.5732,5.5818,5.5784,5.504,5.4837,5.4702,5.4126,5.3974,5.416,5.4888,5.5953,5.685,5.7002,5.7036,5.6867,5.6292,5.6647,5.7036,5.7036,5.7509,5.7695,5.712,5.6545,5.6393,5.6968,5.7036,5.7256,5.7831,5.7881,5.7881,5.7881,5.7881,5.7881,5.7881,5.7881,5.7881,5.7881,5.7881,5.7881,5.7881,5.7881,5.7881,5.7881,5.7881,5.7881,5.7881,5.7881,5.7966,2.6437,2.8996,3.1988,3.5908,3.8916,4.125,4.2566,4.3135,4.3569,4.4227,4.514,4.5828,4.5828,4.6381,4.6959,4.738,4.7722,4.8366,4.9607,4.8723,4.8256,4.9116,4.8088,4.7309,4.7309,4.7381,4.7467,4.7467,4.7992,4.8118,4.7681,4.8913,4.9829,5.0242,5.1139,5.1869,5.2435,5.1869,5.1451,5.1155,5.0757,5.0984,5.1813,5.3376,5.4279,5.4685,5.5023,5.4972,5.4685,5.504,5.4972,5.4668,5.4668,5.4668,5.4617,5.4211,5.4059,5.4059,5.4059,5.4059,5.4143,5.4532,5.4905,5.5108,5.4769,5.4905,5.5023,5.4279,5.4059,5.3974,5.3602,5.3501,5.3687,5.4414,5.5192,5.5835,5.6207,5.6275,5.6173,5.5749,5.6021,5.6275,5.6275,5.6596,5.6714,5.6342,5.5953,5.5817,5.6241,5.6579,5.6951,5.7323,5.7679,5.7881,5.7881,5.7881,5.7881,5.7881,5.7881,5.7881,5.7881,5.7881,5.7881,5.7881,5.7881,5.7881,5.7881,5.7881,5.7881,5.7881,5.7881,5.7881,2.6752,2.9265,3.2063,3.712,3.932,4.0576,4.1931,4.2231,4.241,4.303,4.4212,4.5125,4.5125,4.5693,4.6379,4.7079,4.7661,4.8327,4.9142,4.8624,4.828,4.8389,4.7746,4.7309,4.7309,4.7309,4.7309,4.7309,4.7976,4.8061,4.7352,4.8774,4.9734,5.0048,5.0838,5.1377,5.1578,5.1377,5.0876,5.0126,5.0281,5.0703,5.1451,5.28,5.3399,5.3433,5.4058,5.4025,5.3518,5.4143,5.4042,5.3501,5.3501,5.3501,5.3501,5.3501,5.3501,5.3501,5.3501,5.3501,5.3501,5.3501,5.3907,5.4296,5.3687,5.3923,5.4279,5.367,5.3501,5.3501,5.3501,5.3501,5.3653,5.4262,5.4397,5.46,5.5361,5.553,5.548,5.5361,5.5429,5.5564,5.5664,5.5598,5.553,5.553,5.5412,5.5378,5.5497,5.6055,5.6478,5.6613,5.7273,5.7695,5.7695,5.7814,5.7881,5.7881,5.7881,5.7881,5.7881,5.7881,5.7881,5.7881,5.7881,5.7881,5.7881,5.7881,5.7881,5.7881,5.7881,5.7881,2.367,2.8173,3.3245,3.736,3.8975,3.9888,4.1205,4.1504,4.1737,4.2396,4.3539,4.4451,4.4451,4.499,4.5465,4.559,4.5691,4.6025,4.6899,4.6787,4.6875,4.7655,4.7474,4.7309,4.7309,4.7309,4.7309,4.7309,4.7424,4.7424,4.7309,4.7538,4.835,4.9805,4.9947,5.0506,5.1422,5.0506,4.971,4.9013,4.9773,5.0281,5.0627,5.2238,5.2989,5.2989,5.3262,5.3314,5.3264,5.3518,5.3602,5.3501,5.3501,5.3501,5.3501,5.3501,5.3501,5.3501,5.3501,5.3501,5.3501,5.3501,5.3568,5.3636,5.3534,5.3568,5.3636,5.3534,5.3501,5.3501,5.3501,5.3501,5.3518,5.3619,5.3653,5.3856,5.4583,5.4735,5.4549,5.3923,5.4313,5.4955,5.5598,5.5175,5.4735,5.4735,5.4211,5.4025,5.4651,5.482,5.5141,5.5801,5.6511,5.6951,5.6951,5.7526,5.7881,5.7881,5.7881,5.7881,5.7881,5.7881,5.7881,5.7881,5.7881,5.7881,5.7881,5.7881,5.7881,5.7881,5.7881,5.7881,2.4814,2.8547,3.2258,3.5863,3.7285,3.8212,3.9903,4.0277,4.0576,4.1632,4.2267,4.2895,4.3629,4.4302,4.4899,4.5409,4.5793,4.6158,4.6557,4.6538,4.6412,4.6314,4.6575,4.6756,4.6756,4.7085,4.7309,4.7309,4.7309,4.7309,4.7309,4.7309,4.7849,4.9075,4.9116,4.9343,4.9821,4.9343,4.8749,4.7988,4.9287,4.975,4.9447,5.1623,5.2711,5.2903,5.3007,5.311,5.3213,5.3298,5.3382,5.3501,5.3501,5.3501,5.3501,5.3501,5.3501,5.3501,5.3501,5.3501,5.3501,5.3501,5.3212,5.2903,5.3348,5.2852,5.2326,5.3246,5.3178,5.2938,5.3399,5.3501,5.3501,5.3501,5.3501,5.3602,5.3907,5.3974,5.389,5.3568,5.3754,5.4093,5.4414,5.4211,5.3974,5.3974,5.3704,5.3619,5.394,5.4329,5.4718,5.5057,5.575,5.6359,5.6765,5.7103,5.7459,5.7865,5.7881,5.7881,5.7881,5.7881,5.7881,5.7881,5.7881,5.7881,5.7881,5.7881,5.7881,5.7881,5.7881,5.7881,2.4889,2.7515,2.9849,3.3365,3.4981,3.6237,3.8227,3.8931,3.9484,4.0651,4.101,4.1489,4.2626,4.3374,4.4053,4.4876,4.5437,4.5773,4.5773,4.5911,4.5778,4.5117,4.5648,4.6067,4.6067,4.6501,4.686,4.704,4.7055,4.713,4.7294,4.7309,4.7709,4.8573,4.8615,4.8615,4.8615,4.8366,4.7934,4.7309,4.879,4.9197,4.8682,5.0989,5.2197,5.2466,5.2501,5.2712,5.3041,5.2904,5.311,5.3416,5.3467,5.3501,5.3501,5.3501,5.3501,5.3501,5.3501,5.3501,5.3467,5.3246,5.2799,5.2378,5.2782,5.2059,5.1331,5.2555,5.2449,5.2148,5.2747,5.2886,5.2938,5.3127,5.3212,5.3246,5.3467,5.3501,5.3501,5.3501,5.3501,5.3501,5.3501,5.3501,5.3501,5.3501,5.3501,5.3501,5.3501,5.3974,5.4313,5.4313,5.4989,5.5649,5.619,5.6579,5.7036,5.7577,5.778,5.7881,5.7881,5.7881,5.7881,5.7881,5.7881,5.7881,5.7881,5.7881,5.7881,5.7881,5.7881,5.7881,2.141,2.3445,2.5845,2.9789,3.2213,3.4173,3.6178,3.7584,3.8646,3.9364,4.0023,4.0666,4.1354,4.2066,4.271,4.3324,4.3444,4.3474,4.3474,4.4013,4.4402,4.4362,4.4945,4.5349,4.5349,4.5379,4.5678,4.6279,4.6324,4.6651,4.7279,4.7309,4.7709,4.8573,4.8615,4.8615,4.8615,4.7779,4.7337,4.7294,4.8214,4.8641,4.8641,5.04,5.1194,5.1177,5.1401,5.1931,5.2589,5.2134,5.247,5.3213,5.3433,5.3501,5.3501,5.3501,5.3501,5.3501,5.3501,5.3501,5.3348,5.2607,5.2343,5.2164,5.1459,5.1182,5.1107,5.122,5.1182,5.1182,5.122,5.122,5.1422,5.2183,5.2343,5.2572,5.3331,5.3501,5.3501,5.3501,5.3501,5.3501,5.3501,5.3501,5.3501,5.3501,5.3501,5.3501,5.3501,5.3534,5.3568,5.3568,5.4211,5.4668,5.4702,5.5987,5.6816,5.685,5.7509,5.7881,5.7881,5.7881,5.7881,5.7881,5.7881,5.7881,5.7881,5.7881,5.7881,5.7881,5.7881,5.7881,2.1036,2.2517,2.4223,2.7764,3.0118,3.2093,3.4113,3.5908,3.7345,3.8003,3.8661,3.932,3.9993,4.101,4.1841,4.2043,4.2432,4.2701,4.2701,4.3269,4.3648,4.3648,4.4272,4.4661,4.4661,4.505,4.5394,4.5648,4.5663,4.5963,4.6636,4.6681,4.6989,4.7722,4.8282,4.8615,4.8615,4.7737,4.7309,4.7309,4.8172,4.8297,4.7822,4.9503,4.9978,4.9479,4.9559,5.0445,5.1822,5.1643,5.1882,5.2435,5.3059,5.3382,5.3433,5.2903,5.2729,5.2642,5.2131,5.1951,5.1898,5.1606,5.1161,5.0783,5.1032,5.0345,4.9734,5.0805,5.0729,5.0438,5.0957,5.1107,5.1294,5.2112,5.2307,5.2537,5.3314,5.3501,5.3501,5.3501,5.3501,5.3501,5.3501,5.3501,5.3501,5.3501,5.3501,5.3501,5.3501,5.3501,5.3501,5.3501,5.3737,5.4093,5.4549,5.5074,5.5581,5.6072,5.6342,5.6714,5.7171,5.7188,5.7408,5.7881,5.7881,5.7881,5.7881,5.7881,5.7881,5.7881,5.7881,5.7881,1.9884,2.1171,2.2823,2.6117,2.7724,2.9355,3.2452,3.4203,3.5459,3.6552,3.7464,3.8197,3.8661,3.9634,4.0591,4.1265,4.1782,4.2066,4.2066,4.2402,4.2761,4.2985,4.3389,4.3748,4.3958,4.4377,4.4721,4.4945,4.496,4.5259,4.5948,4.6202,4.6636,4.7279,4.7849,4.8172,4.8172,4.7581,4.7309,4.7309,4.7907,4.7849,4.7337,4.8764,4.9116,4.8615,4.8615,4.9463,5.0843,5.0621,5.0871,5.1504,5.24,5.2731,5.2661,5.2378,5.2112,5.1806,5.1311,5.1107,5.107,5.0767,5.0322,4.9947,5.019,4.9494,4.8852,4.9955,4.9892,4.959,5.0112,5.0461,5.0843,5.1348,5.1696,5.2023,5.259,5.3127,5.3501,5.3501,5.3501,5.3501,5.3501,5.3501,5.3501,5.3501,5.3501,5.3501,5.3501,5.3501,5.3501,5.3501,5.3501,5.3704,5.4194,5.4448,5.4803,5.531,5.5818,5.6292,5.6782,5.7036,5.7391,5.7881,5.7881,5.7881,5.7881,5.7881,5.7881,5.7881,5.7881,5.7881,0.0,0.0,0.0,2.4672,2.5008,2.5935,3.1135,3.2347,3.2946,3.4996,3.6402,3.7285,3.736,3.7913,3.9005,4.095,4.1347,4.1354,4.1354,4.1407,4.1647,4.2291,4.2366,4.262,4.32,4.326,4.3544,4.4242,4.4287,4.4571,4.5229,4.5918,4.6591,4.7292,4.7279,4.7279,4.7352,4.7294,4.7309,4.7309,4.7309,4.7309,4.7352,4.8172,4.8558,4.8558,4.8558,4.8994,4.9686,4.9029,4.9416,5.0435,5.1467,5.1521,5.1182,5.1967,5.1733,5.107,5.1032,5.1032,5.0881,5.0143,4.9868,4.971,4.8852,4.862,4.862,4.862,4.862,4.862,4.862,4.9244,4.9868,4.9868,5.0515,5.107,5.1107,5.2326,5.3433,5.3467,5.3467,5.3501,5.3501,5.3501,5.3501,5.3501,5.3501,5.3501,5.3501,5.3501,5.3501,5.3501,5.3501,5.3501,5.3501,5.416,5.4566,5.4566,5.5902,5.6731,5.6765,5.7442,5.7848,5.7881,5.7881,5.7881,5.7881,5.7881,5.7881,5.7881,5.7881,5.7881,1.8568,0.0,0.0,0.0,0.0,0.0,2.6936,2.8248,2.9774,3.2736,3.3619,3.4457,3.6387,3.7255,3.7853,3.8422,3.9723,4.0666,4.0666,4.1085,4.1444,4.1662,4.1692,4.1946,4.2566,4.2626,4.2895,4.3514,4.3559,4.3858,4.4541,4.5214,4.6165,4.7465,4.6915,4.7099,4.824,4.7624,4.7309,4.7309,4.7309,4.7309,4.7309,4.7538,4.7666,4.7666,4.7666,4.7779,4.8003,4.8475,4.8897,4.9336,5.0397,5.0795,5.0773,5.0615,5.04,5.0128,4.9494,4.9309,4.9269,4.9041,4.8975,4.8918,4.8646,4.862,4.862,4.862,4.862,4.862,4.862,4.8769,4.9122,4.9749,5.0065,5.04,5.0957,5.1443,5.1951,5.252,5.3093,5.3501,5.3501,5.3501,5.3501,5.3501,5.3501,5.3501,5.3501,5.3501,5.3501,5.3501,5.3501,5.3501,5.3501,5.3687,5.3805,5.3805,5.4194,5.4905,5.597,5.6207,5.6816,5.7865,5.7881,5.7881,5.7881,5.7881,5.7881,5.7881,5.7881,5.7881,1.945,2.0303,2.1665,2.2183,0.0,0.0,2.5869,2.6626,2.7619,3.0657,3.169,3.2632,3.4487,3.5579,3.6282,3.6567,3.8048,3.926,3.9529,4.0142,4.0666,4.0935,4.0965,4.1235,4.1931,4.2246,4.256,4.2895,4.314,4.3574,4.4272,4.4676,4.5417,4.66,4.641,4.6741,4.7635,4.7402,4.7309,4.7309,4.7309,4.7309,4.7309,4.7309,4.7309,4.7309,4.7309,4.7309,4.7352,4.7864,4.8157,4.8377,4.9352,4.9671,4.9583,4.9614,4.939,4.9041,4.8604,4.8453,4.8495,4.8578,4.862,4.862,4.862,4.862,4.862,4.862,4.862,4.862,4.862,4.862,4.8728,4.9244,4.9365,4.947,4.9955,5.0345,5.0859,5.1643,5.2183,5.259,5.2938,5.2989,5.3093,5.3433,5.3501,5.3501,5.3501,5.3501,5.3501,5.3501,5.3501,5.3501,5.3501,5.3501,5.3501,5.3501,5.3788,5.4482,5.5666,5.6004,5.6714,5.7865,5.7881,5.7881,5.7881,5.7881,5.7881,5.7881,5.7881,5.7881,2.0891,2.1774,0.0,2.4276,2.3415,0.0,2.6237,2.6123,2.6078,2.8532,2.9894,3.0913,3.1869,3.3095,3.4189,3.4846,3.6148,3.736,3.8167,3.8811,3.9409,4.0008,4.0127,4.0427,4.11,4.1796,4.2216,4.2291,4.2851,4.3439,4.4062,4.4167,4.4511,4.517,4.5858,4.6204,4.6279,4.698,4.7309,4.7309,4.7309,4.7309,4.7309,4.7309,4.7309,4.7309,4.7309,4.7309,4.7309,4.7309,4.7424,4.7624,4.8377,4.8392,4.8049,4.878,4.863,4.8007,4.8202,4.8244,4.8286,4.8495,4.8578,4.8578,4.8578,4.862,4.862,4.862,4.862,4.862,4.862,4.862,4.862,4.862,4.862,4.862,4.862,4.9203,4.9986,5.0691,5.0995,5.1348,5.204,5.2164,5.2449,5.3246,5.3365,5.3399,5.3501,5.3501,5.3501,5.3501,5.3501,5.3501,5.3501,5.3501,5.3501,5.3501,5.411,5.4803,5.5564,5.6224,5.6934,5.7746,5.7848,5.7881,5.7881,5.7881,5.7881,5.7881,5.7881,5.7881,2.4852,2.5533,2.6192,2.4268,2.5121,0.0,2.3407,2.343,2.4298,2.5352,2.5337,2.6019,2.8846,3.0013,3.0775,3.1375,3.3484,3.5654,3.736,3.7719,3.7853,3.7973,3.8452,3.905,3.9738,4.0397,4.0995,4.1572,4.2216,4.265,4.277,4.324,4.3783,4.4481,4.5155,4.5753,4.6279,4.698,4.7309,4.7309,4.7309,4.7309,4.7309,4.7309,4.7309,4.7309,4.7309,4.7309,4.7309,4.7309,4.7309,4.7381,4.7694,4.7779,4.7709,4.8076,4.8118,4.8007,4.8049,4.8049,4.8091,4.8286,4.837,4.837,4.8537,4.862,4.862,4.862,4.862,4.862,4.862,4.862,4.862,4.862,4.862,4.862,4.862,4.8728,4.8893,4.9081,5.019,5.1145,5.1311,5.1331,5.1606,5.2414,5.2537,5.2764,5.3433,5.3501,5.3501,5.3501,5.3501,5.3501,5.3501,5.3501,5.3501,5.3501,5.3636,5.4042,5.4769,5.4938,5.5649,5.6985,5.7594,5.7881,5.7881,5.7881,5.7881,5.7881,5.7881,5.7881,2.6632,2.7081,2.7794,2.6422,2.6587,0.0,0.0,2.4358,2.456,2.6249,2.5247,2.5136,2.8472,2.8843,2.8933,2.9879,3.1988,3.3724,3.4366,3.6178,3.7404,3.7404,3.7704,3.8033,3.8377,3.932,4.0322,4.1309,4.1722,4.2051,4.2381,4.2671,4.315,4.3768,4.4466,4.4975,4.5319,4.6322,4.6815,4.6815,4.7145,4.7309,4.7309,4.7309,4.7309,4.7309,4.7309,4.7309,4.7309,4.7309,4.7309,4.7309,4.7424,4.7467,4.7467,4.7596,4.7639,4.7681,4.7767,4.7794,4.7837,4.8091,4.8218,4.8328,4.8412,4.8537,4.862,4.862,4.862,4.862,4.862,4.862,4.862,4.862,4.862,4.862,4.862,4.862,4.862,4.862,4.9269,4.9994,5.0438,5.0515,5.0767,5.157,5.204,5.2307,5.2291,5.3007,5.3365,5.2938,5.3246,5.3501,5.3501,5.3501,5.3501,5.3501,5.3501,5.3822,5.4566,5.4583,5.5277,5.6765,5.7154,5.7526,5.7881,5.7881,5.7881,5.7881,5.7881,5.7881,2.8532,2.8801,2.9549,2.8786,2.8263,2.775,0.0,0.0,0.0,2.7305,2.5905,2.5262,2.8113,2.7739,2.739,2.8442,3.0387,3.1451,3.0658,3.3754,3.6178,3.6432,3.6806,3.7045,3.7045,3.7913,3.9065,4.0516,4.0502,4.0868,4.1782,4.2186,4.2635,4.3135,4.3913,4.4317,4.4317,4.5514,4.6145,4.6294,4.686,4.7189,4.7309,4.7309,4.7309,4.7309,4.7309,4.7309,4.7309,4.7309,4.7309,4.7309,4.7309,4.7309,4.7309,4.7309,4.7309,4.7309,4.751,4.7553,4.7581,4.7837,4.8049,4.8244,4.8244,4.837,4.8495,4.8537,4.8537,4.8495,4.8578,4.8578,4.8537,4.8578,4.862,4.862,4.862,4.862,4.862,4.862,4.862,4.8811,4.9526,4.9646,4.9947,5.0729,5.1422,5.1659,5.1145,5.2362,5.3024,5.2378,5.3024,5.3501,5.3501,5.3501,5.3501,5.3501,5.3501,5.3771,5.4346,5.4515,5.5158,5.6359,5.6664,5.7087,5.7679,5.7814,5.7881,5.7881,5.7881,5.7881,3.2946,3.3245,3.3006,2.9475,3.0672,3.1195,2.5375,0.0,2.6671,2.4597,0.0,2.4014,2.4993,0.0,0.0,2.5143,2.7365,2.8607,2.7335,2.9535,3.1734,3.2931,3.4637,3.5729,3.5729,3.531,3.5818,3.7719,3.7345,3.7838,3.9649,4.1414,4.2425,4.2515,4.3673,4.4317,4.4317,4.505,4.5723,4.6279,4.6396,4.6741,4.7309,4.7309,4.7309,4.7309,4.7309,4.7309,4.7309,4.7309,4.7309,4.7309,4.7309,4.7309,4.7309,4.7309,4.7309,4.7309,4.7352,4.7337,4.7396,4.7596,4.7837,4.8049,4.8049,4.8049,4.8091,4.8286,4.8218,4.8175,4.8495,4.8453,4.837,4.8578,4.862,4.862,4.862,4.862,4.862,4.862,4.862,4.862,4.8728,4.8728,4.9041,4.9908,5.0104,5.04,5.1032,5.1878,5.2378,5.2307,5.3024,5.3501,5.3501,5.3501,5.3501,5.3501,5.3501,5.3551,5.3619,5.4245,5.4668,5.4837,5.6139,5.685,5.6934,5.7577,5.7881,5.7881,5.7881,5.7881,3.409,3.397,3.332,3.0883,3.0761,3.0402,2.723,2.6467,2.6557,2.6976,0.0,0.0,0.0,0.0,0.0,0.0,2.5546,2.5935,2.4986,2.6467,2.8442,3.0567,3.1869,3.3215,3.4756,3.4307,3.4726,3.6731,3.5908,3.6342,3.8691,3.9993,4.1175,4.2366,4.2935,4.3359,4.3708,4.4392,4.487,4.517,4.5948,4.6429,4.6756,4.713,4.7309,4.7309,4.7309,4.7309,4.7309,4.7309,4.7309,4.7309,4.7309,4.7309,4.7309,4.7309,4.7309,4.7309,4.7309,4.7309,4.7352,4.7553,4.7666,4.7794,4.7964,4.8007,4.8007,4.8091,4.8049,4.8049,4.8202,4.8175,4.8175,4.8244,4.8244,4.8244,4.8244,4.8244,4.8244,4.8244,4.8244,4.8244,4.8244,4.8328,4.8537,4.8769,4.9188,4.9454,4.9334,5.039,5.1203,5.1203,5.1902,5.2662,5.3264,5.3348,5.3382,5.3501,5.3501,5.3501,5.3501,5.3805,5.416,5.4583,5.5209,5.5733,5.6173,5.69,5.7256,5.7273,5.7695,5.7881,3.4892,3.4622,3.3804,3.1737,3.0664,2.9701,2.815,2.7081,2.6916,2.8693,2.7545,0.0,0.0,0.0,0.0,0.0,0.0,2.444,2.3251,2.4073,2.5719,2.8203,2.937,3.0881,3.3201,3.2302,3.2662,3.5205,3.4024,3.4474,3.7449,3.8571,3.9963,4.1796,4.2216,4.2671,4.329,4.3768,4.4137,4.4332,4.5304,4.592,4.6337,4.6815,4.713,4.7309,4.7309,4.7309,4.7309,4.7309,4.7309,4.7309,4.7309,4.7309,4.7309,4.7309,4.7309,4.7309,4.7309,4.7309,4.7309,4.7467,4.751,4.7538,4.7767,4.781,4.7794,4.788,4.7837,4.7852,4.7964,4.7964,4.7922,4.7964,4.8007,4.8007,4.8007,4.8007,4.8007,4.8007,4.8007,4.7964,4.788,4.8091,4.8175,4.8007,4.8521,4.8671,4.8091,4.9237,5.0064,5.0064,5.1005,5.1921,5.2697,5.3025,5.3298,5.3501,5.3501,5.3501,5.3501,5.3501,5.3754,5.4279,5.4482,5.4854,5.5412,5.6139,5.6511,5.6528,5.7459,5.7881,3.6197,3.6337,3.5384,3.1493,3.1005,3.0432,2.6567,2.7156,2.8338,2.7779,2.9097,2.9968,0.0,0.0,0.0,0.0,0.0,0.0,0.0,2.2358,2.3526,2.5495,2.747,2.9175,3.0507,2.8308,2.8427,3.2347,3.0836,3.145,3.5385,3.7389,3.905,4.0412,4.1737,4.2671,4.329,4.3319,4.3648,4.4317,4.4362,4.5065,4.6279,4.6309,4.6711,4.7309,4.7309,4.7309,4.7309,4.7309,4.7309,4.7309,4.7309,4.7309,4.7309,4.7309,4.7309,4.7309,4.7309,4.7309,4.7309,4.7309,4.7309,4.7309,4.7309,4.7309,4.7337,4.7553,4.7467,4.7439,4.788,4.7794,4.7666,4.7922,4.8007,4.8007,4.8007,4.8007,4.8007,4.8007,4.8007,4.7922,4.7681,4.7837,4.8007,4.8007,4.8007,4.8049,4.8007,4.8697,4.9253,4.9253,5.0665,5.1598,5.1634,5.2592,5.3298,5.3501,5.3501,5.3501,5.3501,5.3501,5.3518,5.3534,5.4228,5.46,5.4634,5.5395,5.575,5.5749,5.7222,5.7881,3.6214,3.6116,3.5179,3.2474,3.1049,2.9769,2.7985,2.7754,2.7884,2.7645,2.9157,0.0,0.0,0.0,0.0,0.0,0.0,0.0,0.0,2.1231,2.1784,2.2892,2.5151,2.6961,2.7829,2.7525,2.8184,3.0402,3.0342,3.1539,3.4666,3.6671,3.8362,3.9709,4.1025,4.2066,4.2686,4.312,4.3409,4.3618,4.4107,4.4556,4.502,4.5876,4.6399,4.6681,4.7115,4.7309,4.7309,4.7309,4.7309,4.7309,4.7309,4.7309,4.7309,4.7309,4.7309,4.7309,4.7309,4.7309,4.7309,4.7309,4.7309,4.7309,4.7309,4.7309,4.7294,4.7381,4.7337,4.7352,4.751,4.7467,4.7424,4.751,4.7553,4.7553,4.7553,4.7553,4.7553,4.7553,4.7553,4.751,4.7439,4.7467,4.7553,4.7553,4.7553,4.7553,4.7553,4.7779,4.8172,4.8723,4.9287,4.9891,5.0534,5.1171,5.1557,5.1647,5.1809,5.2131,5.2677,5.2729,5.2955,5.3501,5.3737,5.3873,5.3873,5.4617,5.4972,5.5006,5.5987,5.6714,3.6214,3.6116,3.5345,3.335,3.1912,3.0555,2.8959,2.8607,2.8573,2.8364,2.9475,0.0,0.0,0.0,0.0,0.0,0.0,0.0,0.0,2.0752,2.1141,2.1321,2.3251,2.5001,2.6138,2.6012,2.6806,2.9056,2.937,3.0717,3.3619,3.5878,3.7689,3.9005,4.0576,4.1737,4.2396,4.3015,4.329,4.3305,4.3723,4.4092,4.4347,4.5214,4.5831,4.6309,4.677,4.7085,4.7309,4.7309,4.7309,4.7309,4.7309,4.7309,4.7309,4.7309,4.7309,4.7309,4.7309,4.7309,4.7309,4.7309,4.7309,4.7309,4.7309,4.7309,4.7309,4.7309,4.7309,4.7309,4.7309,4.7309,4.7309,4.7309,4.7309,4.7309,4.7309,4.7309,4.7309,4.7309,4.7309,4.7309,4.7309,4.7309,4.7309,4.7309,4.7309,4.7309,4.7309,4.7309,4.751,4.8103,4.8407,4.9019,5.0126,5.0435,5.0643,5.0811,5.1016,5.1331,5.1842,5.2164,5.2537,5.3058,5.3348,5.3501,5.3501,5.3974,5.4211,5.4211,5.4702,5.531]}]]